[[{"header":{"parameterUnit":"m.s-1","parameterCategory":1,"la1":30.6,"la2":28.766,"lo1":-90.7593,"lo2":-88.6598,"dy":0.0162,"dx":0.0183,"nx":116,"ny":114,"refTime":"2024-05-30T06:00:00:Z","depth":0,"parameterNumber":2,"parameterNumberName":"U-component_of_WINDS"},"data":[0.0,0.0,0.0,0.0,0.0,0.0,0.0,0.0,0.0,0.0,0.0,0.0,0.0,0.0,0.0,0.0,0.0,0.0,0.0,0.0,0.0,0.0,0.0,0.0,0.0,0.0,0.0,0.0,0.0,0.0,0.0,0.0,0.0,0.0,0.0,0.0,0.0,0.0,0.0,0.0,0.0,0.0,0.0,0.0,0.0,0.0,0.0,0.0,0.0,0.0,0.0,0.0,0.0,0.0,0.0,0.0,0.0,0.0,0.0,0.0,0.0,0.0,0.0,0.0,0.0,0.0,0.0,0.0,0.0,0.0,0.0,0.0,0.0,0.0,0.0,0.0,0.0,0.0,0.0,0.0,0.0,0.0,0.0,0.0,0.0,0.0,0.0,0.0,0.0,0.0,0.0,0.0,0.0,0.0,0.0,0.0,0.0,0.0,0.0,0.0,0.0,0.0,0.0,0.0,0.0,0.0,0.0,0.0,0.0,0.0,0.0,0.0,0.0,0.0,0.0,0.0,0.0,0.0,0.0,0.0,0.0,0.0,0.0,0.0,0.0,0.0,0.0,0.0,0.0,0.0,0.0,0.0,0.0,0.0,0.0,0.0,0.0,0.0,0.0,0.0,0.0,0.0,0.0,0.0,0.0,0.0,0.0,0.0,0.0,0.0,0.0,0.0,0.0,0.0,0.0,0.0,0.0,0.0,0.0,0.0,0.0,0.0,0.0,0.0,0.0,0.0,0.0,0.0,0.0,0.0,0.0,0.0,0.0,0.0,0.0,0.0,0.0,0.0,0.0,0.0,0.0,0.0,0.0,0.0,0.0,0.0,0.0,0.0,0.0,0.0,0.0,0.0,0.0,0.0,0.0,0.0,0.0,0.0,0.0,0.0,0.0,0.0,0.0,0.0,0.0,0.0,0.0,0.0,0.0,0.0,0.0,0.0,0.0,0.0,0.0,0.0,0.0,0.0,0.0,0.0,0.0,0.0,0.0,0.0,0.0,0.0,0.0,0.0,0.0,0.0,0.0,0.0,0.0,0.0,0.0,0.0,0.0,0.0,0.0,0.0,0.0,0.0,0.0,0.0,0.0,0.0,0.0,0.0,0.0,0.0,0.0,0.0,0.0,0.0,0.0,0.0,0.0,0.0,0.0,0.0,0.0,0.0,0.0,0.0,0.0,0.0,0.0,0.0,0.0,0.0,0.0,0.0,0.0,0.0,0.0,0.0,0.0,0.0,0.0,0.0,0.0,0.0,0.0,0.0,0.0,0.0,0.0,0.0,0.0,0.0,0.0,0.0,0.0,0.0,0.0,0.0,0.0,0.0,0.0,0.0,0.0,0.0,0.0,0.0,0.0,0.0,0.0,0.0,0.0,0.0,0.0,0.0,0.0,0.0,0.0,0.0,0.0,0.0,0.0,0.0,0.0,0.0,0.0,0.0,0.0,0.0,0.0,0.0,0.0,0.0,0.0,0.0,0.0,0.0,0.0,0.0,0.0,0.0,0.0,0.0,0.0,0.0,0.0,0.0,0.0,0.0,0.0,0.0,0.0,0.0,0.0,0.0,0.0,0.0,0.0,0.0,0.0,0.0,0.0,0.0,0.0,0.0,0.0,0.0,0.0,0.0,0.0,0.0,0.0,0.0,0.0,0.0,0.0,0.0,0.0,0.0,0.0,0.0,0.0,0.0,0.0,0.0,0.0,0.0,0.0,0.0,0.0,0.0,0.0,0.0,0.0,0.0,0.0,0.0,0.0,0.0,0.0,0.0,0.0,0.0,0.0,0.0,0.0,0.0,0.0,0.0,0.0,0.0,0.0,0.0,0.0,0.0,0.0,0.0,0.0,0.0,0.0,0.0,0.0,0.0,0.0,0.0,0.0,0.0,0.0,0.0,0.0,0.0,0.0,0.0,0.0,0.0,0.0,0.0,0.0,0.0,0.0,0.0,0.0,0.0,0.0,0.0,0.0,0.0,0.0,0.0,0.0,0.0,0.0,0.0,0.0,0.0,0.0,0.0,0.0,0.0,0.0,0.0,0.0,0.0,0.0,0.0,0.0,0.0,0.0,0.0,0.0,0.0,0.0,0.0,0.0,0.0,0.0,0.0,0.0,0.0,0.0,0.0,0.0,0.0,0.0,0.0,0.0,0.0,0.0,0.0,0.0,0.0,0.0,0.0,0.0,0.0,0.0,0.0,0.0,0.0,0.0,0.0,0.0,0.0,0.0,0.0,0.0,0.0,0.0,0.0,0.0,0.0,0.0,0.0,0.0,0.0,0.0,0.0,0.0,0.0,0.0,0.0,0.0,0.0,0.0,0.0,0.0,0.0,0.0,0.0,0.0,0.0,0.0,0.0,0.0,0.0,0.0,0.0,0.0,0.0,0.0,0.0,0.0,0.0,0.0,0.0,0.0,0.0,0.0,0.0,0.0,0.0,0.0,0.0,0.0,0.0,0.0,0.0,0.0,0.0,0.0,0.0,0.0,0.0,0.0,0.0,0.0,0.0,0.0,0.0,0.0,0.0,0.0,0.0,0.0,0.0,0.0,0.0,0.0,0.0,0.0,0.0,0.0,0.0,0.0,0.0,0.0,0.0,0.0,0.0,0.0,0.0,0.0,0.0,0.0,0.0,0.0,0.0,0.0,0.0,0.0,0.0,0.0,0.0,0.0,0.0,0.0,0.0,0.0,0.0,0.0,0.0,0.0,0.0,0.0,0.0,0.0,0.0,0.0,0.0,0.0,0.0,0.0,0.0,0.0,0.0,0.0,0.0,0.0,0.0,0.0,0.0,0.0,0.0,0.0,0.0,0.0,0.0,0.0,0.0,0.0,0.0,0.0,0.0,0.0,0.0,0.0,0.0,0.0,0.0,0.0,0.0,0.0,0.0,0.0,0.0,0.0,0.0,0.0,0.0,0.0,0.0,0.0,0.0,0.0,0.0,0.0,0.0,0.0,0.0,0.0,0.0,0.0,0.0,0.0,0.0,0.0,0.0,0.0,0.0,0.0,0.0,0.0,0.0,0.0,0.0,0.0,0.0,0.0,0.0,0.0,0.0,0.0,0.0,0.0,0.0,0.0,0.0,0.0,0.0,0.0,0.0,0.0,0.0,0.0,0.0,0.0,0.0,0.0,0.0,0.0,0.0,0.0,0.0,0.0,0.0,0.0,0.0,0.0,0.0,0.0,0.0,0.0,0.0,0.0,0.0,0.0,0.0,0.0,0.0,0.0,0.0,0.0,0.0,0.0,0.0,0.0,0.0,0.0,0.0,0.0,0.0,0.0,0.0,0.0,0.0,0.0,0.0,0.0,0.0,0.0,0.0,0.0,0.0,0.0,0.0,0.0,0.0,0.0,0.0,0.0,0.0,0.0,0.0,0.0,0.0,0.0,0.0,0.0,0.0,0.0,0.0,0.0,0.0,0.0,0.0,0.0,0.0,0.0,0.0,0.0,0.0,0.0,0.0,0.0,0.0,0.0,0.0,0.0,0.0,0.0,0.0,0.0,0.0,0.0,0.0,0.0,0.0,0.0,0.0,0.0,0.0,0.0,0.0,0.0,0.0,0.0,0.0,0.0,0.0,0.0,0.0,0.0,0.0,0.0,0.0,0.0,0.0,0.0,0.0,0.0,0.0,0.0,0.0,0.0,0.0,0.0,0.0,0.0,0.0,0.0,0.0,0.0,0.0,0.0,0.0,0.0,0.0,0.0,0.0,0.0,0.0,0.0,0.0,0.0,0.0,0.0,0.0,0.0,0.0,0.0,0.0,0.0,0.0,0.0,0.0,0.0,0.0,0.0,0.0,0.0,0.0,0.0,0.0,0.0,0.0,0.0,0.0,0.0,0.0,0.0,0.0,0.0,0.0,0.0,0.0,0.0,0.0,0.0,0.0,0.0,0.0,0.0,0.0,0.0,0.0,0.0,0.0,0.0,0.0,0.0,0.0,0.0,0.0,0.0,0.0,0.0,0.0,0.0,0.0,0.0,0.0,0.0,0.0,0.0,0.0,0.0,0.0,0.0,0.0,0.0,0.0,0.0,0.0,0.0,0.0,0.0,0.0,0.0,0.0,0.0,0.0,0.0,0.0,0.0,0.0,0.0,0.0,0.0,0.0,0.0,0.0,0.0,0.0,0.0,0.0,0.0,0.0,0.0,0.0,0.0,0.0,0.0,0.0,0.0,0.0,0.0,0.0,0.0,0.0,0.0,0.0,0.0,0.0,0.0,0.0,0.0,0.0,0.0,0.0,0.0,0.0,0.0,0.0,0.0,0.0,0.0,0.0,0.0,0.0,0.0,0.0,0.0,0.0,0.0,0.0,0.0,0.0,0.0,0.0,0.0,0.0,0.0,0.0,0.0,0.0,0.0,0.0,0.0,0.0,0.0,0.0,0.0,0.0,0.0,0.0,0.0,0.0,0.0,0.0,0.0,0.0,0.0,0.0,0.0,0.0,0.0,0.0,0.0,0.0,0.0,0.0,0.0,0.0,0.0,0.0,0.0,0.0,0.0,0.0,0.0,0.0,0.0,0.0,0.0,0.0,0.0,0.0,0.0,0.0,0.0,0.0,0.0,0.0,0.0,0.0,0.0,0.0,0.0,0.0,0.0,0.0,0.0,0.0,0.0,0.0,0.0,0.0,0.0,0.0,0.0,0.0,0.0,0.0,0.0,0.0,0.0,0.0,0.0,0.0,0.0,0.0,0.0,0.0,0.0,0.0,0.0,0.0,0.0,0.0,0.0,0.0,0.0,0.0,0.0,0.0,0.0,0.0,0.0,0.0,0.0,0.0,0.0,0.0,0.0,0.0,0.0,0.0,0.0,0.0,0.0,0.0,0.0,0.0,0.0,0.0,0.0,0.0,0.0,0.0,0.0,0.0,0.0,0.0,0.0,0.0,0.0,0.0,0.0,0.0,0.0,0.0,0.0,0.0,0.0,0.0,0.0,0.0,0.0,0.0,0.0,0.0,0.0,0.0,0.0,0.0,0.0,0.0,0.0,0.0,0.0,0.0,0.0,0.0,0.0,0.0,0.0,0.0,0.0,0.0,0.0,0.0,0.0,0.0,0.0,0.0,0.0,0.0,0.0,0.0,0.0,0.0,0.0,0.0,0.0,0.0,0.0,0.0,0.0,0.0,0.0,0.0,0.0,0.0,0.0,0.0,0.0,0.0,0.0,0.0,0.0,0.0,0.0,0.0,0.0,0.0,0.0,0.0,0.0,0.0,0.0,0.0,0.0,0.0,0.0,0.0,0.0,0.0,0.0,0.0,0.0,0.0,0.0,0.0,0.0,0.0,0.0,0.0,0.0,0.0,0.0,0.0,0.0,0.0,0.0,0.0,0.0,0.0,0.0,0.0,0.0,0.0,0.0,0.0,0.0,0.0,0.0,0.0,0.0,0.0,0.0,0.0,0.0,0.0,0.0,0.0,0.0,0.0,0.0,0.0,0.0,0.0,0.0,0.0,0.0,0.0,0.0,0.0,0.0,0.0,0.0,0.0,0.0,0.0,0.0,0.0,0.0,0.0,0.0,0.0,0.0,0.0,0.0,0.0,0.0,0.0,0.0,0.0,0.0,0.0,0.0,0.0,0.0,0.0,0.0,0.0,0.0,0.0,0.0,0.0,0.0,0.0,0.0,0.0,0.0,0.0,0.0,0.0,0.0,0.0,0.0,0.0,0.0,0.0,0.0,0.0,0.0,0.0,0.0,0.0,0.0,0.0,0.0,0.0,0.0,0.0,0.0,0.0,0.0,0.0,0.0,0.0,0.0,0.0,0.0,0.0,0.0,0.0,0.0,0.0,0.0,0.0,0.0,0.0,0.0,0.0,0.0,0.0,0.0,0.0,0.0,0.0,0.0,0.0,0.0,0.0,0.0,0.0,0.0,0.0,0.0,0.0,0.0,0.0,0.0,0.0,0.0,0.0,0.0,0.0,0.0,0.0,0.0,0.0,0.0,0.0,0.0,0.0,0.0,0.0,0.0,0.0,0.0,0.0,0.0,0.0,0.0,0.0,0.0,0.0,0.0,0.0,0.0,0.0,0.0,0.0,0.0,0.0,0.0,0.0,0.0,0.0,0.0,0.0,0.0,0.0,0.0,0.0,0.0,0.0,0.0,0.0,0.0,0.0,-2.5182,-2.3272,0.0,0.0,0.0,0.0,0.0,0.0,0.0,0.0,0.0,0.0,0.0,0.0,0.0,0.0,0.0,0.0,0.0,0.0,0.0,0.0,0.0,0.0,0.0,-0.968,-0.9736,-0.9702,-0.9736,-0.9703,-0.9613,0.0,0.0,0.0,0.0,0.0,-0.9642,-1.0054,-1.0668,-1.1425,-1.1843,-1.2664,-1.3826,-1.377,-1.3083,-1.1922,0.0,0.0,0.0,0.0,0.0,0.0,0.0,0.0,0.0,0.0,0.0,0.0,0.0,0.0,0.0,0.0,0.0,0.0,0.0,0.0,0.0,0.0,0.0,0.0,0.0,0.0,0.0,0.0,0.0,0.0,0.0,0.0,0.0,0.0,0.0,0.0,0.0,0.0,0.0,0.0,0.0,0.0,0.0,0.0,0.0,0.0,0.0,0.0,0.0,0.0,0.0,0.0,0.0,0.0,0.0,0.0,0.0,0.0,0.0,0.0,0.0,0.0,0.0,0.0,0.0,0.0,0.0,0.0,0.0,0.0,-2.9867,-2.8049,0.0,0.0,0.0,0.0,0.0,0.0,0.0,0.0,0.0,0.0,0.0,0.0,0.0,0.0,0.0,0.0,0.0,0.0,0.0,0.0,0.0,-0.9712,-0.9858,-0.9943,-1.0068,-1.03,-1.018,-1.0064,-0.9958,-0.9887,0.0,0.0,0.0,-0.9912,-0.9919,-1.0824,-1.204,-1.3519,-1.4217,-1.5313,-1.68,-1.8408,-1.8089,-1.6163,-1.5447,0.0,0.0,0.0,0.0,0.0,0.0,0.0,0.0,0.0,0.0,0.0,0.0,0.0,0.0,0.0,0.0,0.0,0.0,0.0,0.0,0.0,0.0,0.0,0.0,0.0,0.0,0.0,0.0,0.0,0.0,0.0,0.0,0.0,0.0,0.0,0.0,0.0,0.0,0.0,0.0,0.0,0.0,0.0,0.0,0.0,0.0,0.0,0.0,0.0,0.0,0.0,0.0,0.0,0.0,0.0,0.0,0.0,0.0,0.0,0.0,0.0,0.0,0.0,-3.5199,-3.6122,-3.6827,-3.6836,-3.7202,-3.7668,-3.495,-3.3654,-3.3225,-3.0579,0.0,0.0,0.0,0.0,0.0,0.0,0.0,0.0,0.0,0.0,0.0,0.0,0.0,0.0,0.0,0.0,0.0,0.0,0.0,-0.9787,-1.049,-1.0634,-1.1233,-1.2613,-1.2147,-1.1786,-1.1755,-1.1171,0.0,0.0,-1.0364,-1.075,-1.0746,-1.221,-1.3422,-1.4347,-1.7832,-2.006,-2.1023,-2.263,-2.3235,-2.2776,-1.9216,-1.7165,-1.6302,0.0,0.0,0.0,0.0,0.0,0.0,0.0,0.0,0.0,0.0,0.0,0.0,0.0,0.0,0.0,0.0,0.0,0.0,0.0,0.0,0.0,0.0,0.0,0.0,0.0,0.0,0.0,0.0,0.0,0.0,0.0,0.0,0.0,0.0,0.0,0.0,0.0,0.0,0.0,0.0,0.0,-2.0967,-2.2063,0.0,0.0,0.0,0.0,0.0,0.0,0.0,0.0,0.0,0.0,0.0,0.0,0.0,-3.3532,-3.3532,-3.6706,-3.8361,-3.8476,-4.0816,-4.1989,-4.2104,-4.2165,-4.2208,-4.2247,-4.1858,0.0,-3.5207,-3.5564,0.0,0.0,0.0,0.0,0.0,0.0,0.0,0.0,0.0,0.0,0.0,0.0,0.0,0.0,0.0,0.0,0.0,0.0,0.0,0.0,0.0,-1.1897,-1.2685,-1.3885,-1.4146,-1.3857,-1.2951,-1.2966,-1.2468,-1.1225,-1.1398,-1.1769,-1.228,-1.384,-1.5955,-1.8592,-2.173,-2.3446,-2.385,-2.5016,-2.5548,-2.5474,-2.3676,-2.1675,-1.9528,-1.741,0.0,0.0,0.0,0.0,0.0,0.0,0.0,0.0,0.0,0.0,0.0,0.0,0.0,0.0,0.0,0.0,0.0,0.0,0.0,0.0,0.0,0.0,0.0,0.0,0.0,0.0,0.0,0.0,0.0,0.0,0.0,0.0,0.0,0.0,0.0,0.0,0.0,0.0,0.0,-2.1414,-2.4466,-2.485,-2.6091,-2.6395,0.0,0.0,0.0,0.0,0.0,0.0,0.0,0.0,0.0,-3.5911,-3.7675,-3.9039,-3.9979,-4.2034,-4.3291,-4.3756,-4.4873,-4.5661,-4.6145,-4.6177,-4.6151,-4.6145,-4.6177,-4.4612,-4.1877,-3.9316,-3.6832,-3.4584,0.0,0.0,0.0,0.0,-3.4026,-3.4212,0.0,0.0,0.0,0.0,0.0,0.0,0.0,0.0,0.0,0.0,0.0,0.0,-1.2472,-1.3579,-1.4668,-1.5751,-1.6253,-1.6014,-1.4805,-1.4707,-1.405,-1.267,-1.2451,-1.2803,-1.3718,-1.6054,-1.8948,-2.2418,-2.5044,-2.6329,-2.6347,-2.7365,-2.7824,-2.7805,-2.7391,-2.5658,-2.2877,-2.0409,-1.8544,-1.7084,0.0,0.0,0.0,0.0,0.0,0.0,0.0,0.0,0.0,0.0,0.0,0.0,0.0,0.0,0.0,0.0,0.0,0.0,0.0,0.0,0.0,0.0,0.0,0.0,0.0,0.0,0.0,0.0,0.0,0.0,0.0,0.0,0.0,0.0,0.0,0.0,0.0,-2.4712,-2.7313,-2.7544,-2.9256,-2.9761,0.0,0.0,0.0,0.0,0.0,0.0,-3.6007,-3.6998,-3.856,-4.0892,-4.2512,-4.3941,-4.5176,-4.6141,-4.6936,-4.7538,-4.7538,-4.7863,-4.8505,-4.8505,-4.8505,-4.8505,-4.8505,-4.8135,-4.7212,-4.3034,-4.0557,-3.9238,-3.7964,-3.7237,-3.7057,-3.8497,-3.8611,-3.8457,0.0,0.0,0.0,0.0,0.0,0.0,0.0,0.0,0.0,0.0,0.0,-1.2446,-1.4016,-1.5765,-1.7443,-1.9018,-1.8618,-1.8217,-1.8067,-1.6073,-1.4456,-1.3472,-1.3438,-1.3794,-1.4614,-1.9136,-2.2345,-2.408,-2.7262,-2.8822,-2.8858,-3.0411,-3.1158,-3.1103,-2.9555,-2.7941,-2.6209,-2.3776,-2.2263,-2.1206,-1.8001,0.0,0.0,0.0,0.0,0.0,0.0,0.0,0.0,0.0,0.0,0.0,0.0,0.0,0.0,0.0,0.0,0.0,0.0,0.0,0.0,0.0,0.0,0.0,0.0,0.0,0.0,0.0,0.0,0.0,0.0,0.0,0.0,0.0,0.0,0.0,0.0,0.0,0.0,-3.0115,-3.241,0.0,0.0,0.0,0.0,-3.5058,-3.5923,-3.7865,-4.1231,-4.2355,-4.3692,-4.542,-4.6438,-4.6989,-4.7061,-4.7941,-4.8388,-4.8427,-4.8427,-4.8466,-4.8505,-4.8505,-4.8505,-4.8505,-4.8505,-4.8485,-4.8349,-4.7256,-4.5351,-4.3112,-4.2902,-4.1917,-4.0722,-4.1509,-4.1764,-4.188,0.0,0.0,0.0,0.0,0.0,-0.9504,-0.9504,-0.9504,-0.9599,-0.9892,-1.153,-1.3326,-1.508,-1.7238,-1.9253,-2.1047,-2.1498,-2.1259,-2.022,-1.8756,-1.7808,-1.7573,-1.631,-1.7005,-1.9987,-2.2215,-2.463,-2.7281,-2.8436,-2.9537,-3.0558,-3.114,-3.1397,-3.1378,-3.0797,-3.0228,-2.9457,-2.6017,-2.3786,-2.2428,-2.0727,-1.8477,0.0,0.0,0.0,0.0,0.0,0.0,0.0,0.0,0.0,0.0,0.0,0.0,0.0,0.0,0.0,0.0,0.0,0.0,0.0,0.0,0.0,0.0,0.0,0.0,0.0,0.0,0.0,0.0,0.0,0.0,0.0,0.0,0.0,0.0,0.0,0.0,0.0,-3.4212,-3.6257,0.0,-3.5872,-3.6526,-3.7719,-3.9423,-4.0335,-4.2066,-4.4923,-4.5423,-4.6632,-4.8887,-4.9453,-5.0229,-5.1311,-5.1799,-5.2045,-5.2045,-5.2045,-5.1998,-5.1905,-5.2001,-5.1998,-5.1901,-5.1901,-5.1901,-5.1838,-5.0872,-4.8934,-4.6539,-4.6414,-4.6016,-4.5572,-4.5838,-4.5929,-4.5968,0.0,0.0,0.0,0.0,-0.9504,-0.9504,-0.9504,-0.9504,-0.9793,-1.0616,-1.2375,-1.4453,-1.6761,-1.9015,-2.0956,-2.2499,-2.3201,-2.2997,-2.1632,-2.0621,-1.9845,-1.9351,-1.8552,-1.9785,-2.3318,-2.4722,-2.6722,-2.939,-2.9959,-3.0748,-3.1806,-3.2082,-3.2223,-3.2192,-3.1935,-3.1806,-3.1604,-2.8679,-2.6502,-2.4914,-2.3548,-2.1579,-1.9273,0.0,0.0,0.0,0.0,0.0,0.0,0.0,0.0,0.0,0.0,0.0,0.0,0.0,0.0,0.0,0.0,0.0,0.0,0.0,0.0,0.0,0.0,0.0,0.0,0.0,0.0,0.0,0.0,0.0,0.0,0.0,0.0,0.0,0.0,-3.2481,-3.5257,-3.6949,-3.9411,-4.0546,-3.9392,-4.0585,-4.2008,-4.3423,-4.4066,-4.549,-4.8048,-4.8227,-4.9283,-5.1538,-5.1823,-5.2484,-5.3585,-5.3773,-5.3868,-5.3868,-5.3868,-5.3822,-5.374,-5.3826,-5.3818,-5.374,-5.374,-5.374,-5.3672,-5.2964,-5.1615,-4.9931,-4.8988,-4.845,-4.8232,-4.8174,-4.8176,-4.8167,0.0,0.0,0.0,-0.9447,-0.9504,-0.9504,-0.9504,-0.9504,-1.0358,-1.2743,-1.3891,-1.5747,-1.9055,-2.1085,-2.2551,-2.3474,-2.3642,-2.3296,-2.2351,-2.1443,-2.022,-1.8572,-2.0033,-2.1969,-2.43,-2.6667,-2.865,-3.0283,-3.183,-3.2601,-3.2656,-3.344,-3.3807,-3.377,-3.2986,-3.2638,-3.2583,-3.1806,-3.0558,-2.8895,-2.6476,-2.5017,-2.4007,0.0,0.0,0.0,0.0,0.0,0.0,0.0,0.0,0.0,0.0,0.0,0.0,0.0,0.0,0.0,0.0,0.0,0.0,0.0,0.0,0.0,0.0,0.0,0.0,0.0,0.0,0.0,0.0,0.0,0.0,0.0,0.0,0.0,-3.3051,-3.5955,-3.8123,-3.8219,-4.1854,-4.372,-4.2154,-4.422,-4.6047,-4.6951,-4.7019,-4.8125,-5.0635,-5.0904,-5.173,-5.3376,-5.355,-5.3644,-5.3663,-5.3689,-5.367,-5.367,-5.367,-5.3689,-5.3663,-5.3689,-5.3689,-5.3663,-5.3663,-5.3663,-5.3657,-5.3507,-5.3434,-5.3191,-5.0685,-4.9283,-4.8631,-4.8459,-4.8408,-4.8365,0.0,0.0,-0.9248,-0.947,-0.9504,-0.9504,-0.9504,-0.9504,-1.0164,-1.1988,-1.3567,-1.5783,-1.9171,-2.1136,-2.2837,-2.4449,-2.4036,-2.3781,-2.4009,-2.1473,-2.0206,-2.0701,-2.3447,-2.5835,-2.7647,-2.8906,-3.0338,-3.194,-3.2381,-3.2894,-3.3476,-3.3697,-3.3807,-3.3788,-3.3568,-3.3476,-3.3458,-3.322,-3.2559,-3.139,-2.8968,-2.7184,-2.5745,0.0,0.0,0.0,0.0,0.0,0.0,0.0,0.0,0.0,0.0,0.0,0.0,0.0,0.0,0.0,0.0,0.0,0.0,0.0,0.0,0.0,0.0,0.0,0.0,0.0,0.0,0.0,0.0,0.0,0.0,0.0,-3.4212,-3.6603,-3.6596,-3.845,-4.0727,-4.3228,-4.4536,-4.5528,-4.6297,-4.7009,-4.8048,-4.9529,-4.9663,-5.0491,-5.2414,-5.2541,-5.3071,-5.4149,-5.4332,-5.4684,-5.5257,-5.5357,-5.5411,-5.5411,-5.5411,-5.5357,-5.5265,-5.5364,-5.535,-5.5277,-5.5277,-5.5277,-5.521,-5.4486,-5.4188,-5.4072,-5.2724,-5.2097,-5.1816,-5.1153,-5.0547,-5.0027,0.0,-0.9159,-0.9258,-0.947,-0.9504,-0.9504,-0.9504,-0.9504,-1.0322,-1.2598,-1.3836,-1.5924,-1.9689,-2.1056,-2.2304,-2.3815,-2.3809,-2.3535,-2.3175,-2.1511,-2.1303,-2.306,-2.5701,-2.786,-2.9464,-3.062,-3.1843,-3.3096,-3.3096,-3.3348,-3.3807,-3.3807,-3.3807,-3.3807,-3.3807,-3.3807,-3.3807,-3.3807,-3.3532,-3.2963,-3.1207,-2.9744,-2.8426,-2.6849,-2.5702,-2.4782,-2.3611,-2.3017,-2.2525,-2.1049,0.0,0.0,0.0,0.0,0.0,0.0,0.0,0.0,0.0,0.0,0.0,0.0,0.0,0.0,0.0,0.0,0.0,0.0,0.0,0.0,0.0,0.0,0.0,0.0,-3.7904,-4.0373,-4.1085,-4.2016,-4.3517,-4.5874,-4.6759,-4.7567,-4.8548,-4.9279,-5.0106,-5.1125,-5.1529,-5.2337,-5.3664,-5.3741,-5.4126,-5.4972,-5.5085,-5.5335,-5.5808,-5.5887,-5.5919,-5.5919,-5.5919,-5.5887,-5.5817,-5.5887,-5.5879,-5.5808,-5.5808,-5.5808,-5.576,-5.5236,-5.4991,-5.4876,0.0,0.0,0.0,0.0,-5.2145,-5.1702,0.0,-0.9146,-0.9263,-0.947,-0.9504,-0.9504,-0.9504,-0.9504,-1.0611,-1.3757,-1.4361,-1.6078,-2.0198,-2.0879,-2.1425,-2.2521,-2.319,-2.2911,-2.1352,-2.1824,-2.3189,-2.5458,-2.7167,-2.8815,-3.0448,-3.1959,-3.3091,-3.3807,-3.3807,-3.3844,-3.3935,-3.3935,-3.399,-3.4082,-3.4082,-3.4082,-3.4082,-3.3972,-3.3935,-3.3862,-3.306,-3.2247,-3.1378,-2.9901,-2.9299,-2.9052,-2.763,-2.663,-2.5643,-2.334,0.0,0.0,0.0,0.0,0.0,0.0,0.0,0.0,0.0,0.0,0.0,0.0,0.0,0.0,0.0,0.0,0.0,0.0,0.0,0.0,0.0,0.0,0.0,0.0,-4.1223,-4.3989,-4.5787,-4.6037,-4.6317,-4.7086,-4.8586,-4.9586,-4.9663,-5.1125,-5.2096,-5.2192,-5.2914,-5.3722,-5.4587,-5.4645,0.0,0.0,0.0,-5.5703,-5.5703,-5.5703,-5.5703,-5.5703,-5.5703,-5.5703,-5.5703,-5.5703,-5.5703,-5.5703,-5.5703,-5.5703,-5.5703,-5.5703,-5.5703,-5.5549,-5.4068,-5.3433,-5.3356,-5.3356,-5.328,-5.3087,0.0,-0.9162,-0.9265,-0.9474,-0.9504,-0.9504,-0.9504,-0.9504,-1.0412,-1.2997,-1.4019,-1.5863,-1.9445,-2.053,-2.1604,-2.3096,-2.2917,-2.2745,-2.2773,-2.3832,-2.5272,-2.7086,-2.8759,-3.0436,-3.2106,-3.3091,-3.3642,-3.3807,-3.3807,-3.4137,-3.4766,-3.4766,-3.5133,-3.5826,-3.5826,-3.5826,-3.5771,-3.5059,-3.4766,-3.4711,-3.3899,-3.3091,-3.2265,-3.1317,-3.0546,-2.9958,-2.9711,-2.91,-2.8257,-2.7126,-2.6345,-2.569,-2.4745,-2.3128,0.0,0.0,0.0,0.0,0.0,0.0,0.0,0.0,0.0,0.0,0.0,0.0,0.0,0.0,0.0,0.0,0.0,0.0,0.0,-4.0588,-4.3335,-4.596,-4.8336,-4.8663,-4.8721,-4.8894,-4.9817,-5.0702,-5.1346,-5.2356,-5.3241,-5.3933,-5.4145,-5.4607,-5.5415,-5.5472,-5.553,-5.5703,-5.5703,-5.5703,-5.5703,-5.5703,-5.5703,-5.5703,-5.5703,0.0,-5.5703,-5.5703,-5.5703,-5.5703,-5.5703,-5.5703,-5.5703,-5.5703,-5.5703,-5.5665,-5.5338,-5.4818,-5.4241,-5.4241,-5.3799,-5.3183,-0.9018,-0.9138,-0.9236,-0.9376,-0.9447,-0.9504,-0.9504,-0.9504,-1.0376,-1.2779,-1.3513,-1.4963,-1.8018,-1.8713,-1.9344,-2.0351,-2.0784,-2.1788,-2.364,-2.4608,-2.5997,-2.8063,-2.9783,-3.1278,-3.2512,-3.3358,-3.3807,-3.3807,-3.4197,-3.4619,-3.5023,-3.5445,-3.5881,-3.6303,-3.6303,-3.6303,-3.6266,-3.5844,-3.5389,-3.4954,-3.4564,-3.3922,-3.3164,-3.2742,-3.21,-3.1421,-3.1446,-3.0692,-2.9579,-2.8813,-2.8331,-2.7838,-2.6626,-2.5805,-2.5053,0.0,0.0,0.0,0.0,0.0,0.0,0.0,0.0,0.0,0.0,0.0,0.0,0.0,0.0,-3.3895,-3.5217,0.0,-4.0742,-4.3297,-4.547,-4.7451,-4.9163,-4.9779,-5.0048,-5.0048,-5.0779,-5.1471,-5.1865,-5.3087,-5.403,-5.4472,-5.4876,-5.528,-5.5684,-5.5703,-5.5703,-5.5703,-5.5703,-5.5703,-5.5703,-5.5703,-5.5703,-5.5703,-5.5703,-5.5703,-5.5703,-5.5703,-5.5703,-5.5703,-5.5703,-5.5703,-5.5703,-5.5703,-5.5703,-5.5703,-5.5703,-5.5453,-5.5107,-5.5107,-5.4818,-5.4395,-0.8936,-0.9072,-0.9189,-0.9298,-0.9412,-0.9504,-0.9504,-0.9504,-1.0304,-1.2562,-1.3002,-1.4046,-1.6565,-1.6872,-1.717,-1.7855,-1.9117,-2.1192,-2.4293,-2.5027,-2.6488,-2.9064,-3.0544,-3.1759,-3.2742,-3.345,-3.3807,-3.3807,-3.4454,-3.4931,-3.5261,-3.5973,-3.6468,-3.6762,-3.6762,-3.6762,-3.6762,-3.6597,-3.6046,-3.5243,-3.5078,-3.4509,-3.3807,-3.3807,-3.3403,-3.2803,-3.2656,-3.1593,-3.0182,-2.9602,-2.9244,-2.8857,-2.7712,-2.7885,-2.8126,-2.6159,-2.5914,0.0,0.0,0.0,0.0,0.0,0.0,0.0,0.0,-3.1156,-3.2166,-3.353,-3.5458,-3.7355,-3.8923,-4.1046,-4.3316,-4.5701,-4.7355,-4.8663,-4.9529,-5.0269,-5.0712,-5.0712,-5.1568,-5.2154,-5.2154,-5.3722,-5.4722,-5.4722,-5.5318,-5.5703,-5.5703,-5.5703,-5.5703,-5.5703,-5.5703,-5.5703,-5.5703,-5.5726,-5.5728,-5.5728,-5.5728,-5.5728,-5.5747,-5.5705,-5.5703,-5.5703,-5.5703,-5.5703,-5.5703,-5.5703,-5.5703,-5.5703,-5.5703,-5.5703,-5.5703,-5.5703,-5.5703,-5.5607,0.0,-0.8936,-0.9104,-0.9352,-0.9448,-0.9504,-0.9504,-0.9504,-1.0105,-1.1807,-1.2658,-1.3792,-1.5656,-1.6477,-1.7574,-1.9218,-2.0548,-2.2391,-2.5024,-2.5804,-2.7596,-3.0792,-3.1154,-3.2041,-3.3628,-3.3752,-3.3807,-3.3807,-3.3899,-3.4706,-3.6156,-3.6248,-3.7055,-3.8432,-3.8432,-3.8432,-3.8377,-3.7676,-3.6905,-3.6083,-3.5316,-3.4509,-3.3807,-3.3807,-3.3733,-3.3568,-3.2858,-3.1568,-3.0203,-3.0111,-2.9218,-2.8239,-2.8767,-2.8584,-2.8137,-2.8032,-2.6627,-2.5385,-2.6702,-2.7395,-2.8467,-3.1448,-3.1212,-3.1988,0.0,-3.8546,-3.7932,-4.1069,-4.1961,-4.245,-4.3423,-4.4451,-4.5759,-4.7528,-4.8625,-4.9548,-5.0442,-5.0635,-5.0712,-5.0712,-5.2087,-5.3049,-5.3049,-5.4587,-5.5568,-5.5568,-5.5645,-5.5703,-5.5703,-5.5703,-5.5703,-5.5703,-5.5703,-5.5703,-5.5703,-5.5817,-5.588,-5.588,-5.588,-5.588,-5.5872,-5.5758,-5.5703,-5.5703,-5.5703,-5.5703,-5.5703,-5.5703,-5.5703,-5.5703,-5.5703,-5.5703,-5.5703,-5.5703,-5.5703,-5.5684,0.0,-0.8975,-0.9143,-0.9273,-0.9372,-0.9448,-0.9496,-0.9504,-0.9911,-1.1051,-1.1486,-1.2373,-1.4107,-1.5065,-1.622,-1.7878,-1.9335,-2.1233,-2.3738,-2.5375,-2.7477,-3.0257,-3.0943,-3.2012,-3.3648,-3.3766,-3.3807,-3.3807,-3.427,-3.4857,-3.5555,-3.6064,-3.6652,-3.7312,-3.779,-3.7734,-3.7312,-3.7437,-3.6743,-3.55,-3.5151,-3.4509,-3.3752,-3.3293,-3.2816,-3.2357,-3.2027,-3.087,0.0,-2.9014,-2.8758,-2.8618,-2.8532,-2.8689,-2.8848,-2.8446,-2.8087,-2.8324,-3.0646,-3.1404,-3.2147,-3.4526,-3.5698,-3.7117,-4.029,-4.0507,-4.0605,-4.2586,-4.3401,-4.4014,-4.4913,-4.6144,-4.7451,-4.8663,-4.9586,-5.0289,-5.0654,-5.0712,-5.0712,-5.0712,-5.1722,-5.2635,-5.3145,-5.4299,-5.5203,-5.5665,-5.5703,-5.5703,-5.5703,-5.5703,-5.5703,-5.5703,-5.5703,-5.5747,-5.5808,-5.5798,-5.5817,-5.5907,-5.5817,-5.5779,-5.5779,-5.5726,-5.5703,-5.5703,-5.5703,-5.5703,-5.5703,-5.5703,-5.5703,-5.5703,-5.5703,-5.5703,-5.5703,-5.5703,-5.5703,-5.5703,0.0,-0.8985,-0.9154,-0.9201,-0.9316,-0.9426,-0.9491,-0.9504,-0.9784,-1.0598,-1.0888,-1.1685,-1.3386,-1.4136,-1.5067,-1.6405,-1.7936,-1.9892,-2.2346,-2.4442,-2.6746,-2.9401,-3.0176,-3.1407,-3.3268,-3.3396,-3.3542,-3.378,-3.438,-3.4784,-3.5023,-3.5646,-3.6064,-3.6321,-3.6905,-3.685,-3.634,-3.6923,-3.6321,-3.5004,-3.5004,-3.438,-3.3385,-3.2577,-3.1641,-3.0742,-3.0742,-2.9696,-2.8264,-2.7721,-2.779,-2.8051,-2.7735,-2.815,-2.8736,-2.8662,-2.9592,-3.1031,-3.2806,-3.4059,-3.5295,-3.6966,-3.9115,-4.0954,-4.1426,-4.1928,-4.2582,-4.3499,-4.4189,-4.4898,-4.5788,-4.7124,-4.8394,-4.926,-5.0317,-5.0952,-5.0731,-5.0894,-5.0952,-5.0731,-5.1202,-5.201,-5.3087,-5.3991,-5.4818,-5.5645,-5.5703,-5.5703,-5.5703,-5.5703,-5.5703,-5.5703,-5.5703,-5.5748,-5.5835,-5.5789,-5.5789,-5.5907,-5.5808,-5.5758,-5.5758,-5.5716,-5.5703,-5.5703,-5.5703,-5.5703,-5.5703,-5.5703,-5.5703,-5.5703,-5.5703,-5.5703,-5.5703,-5.5703,-5.5703,-5.5703,0.0,0.0,-0.9039,-0.9182,-0.9316,-0.9426,-0.9491,-0.9504,-0.9784,-1.0598,-1.1377,-1.2477,-1.4089,-1.4288,-1.4632,-1.5476,-1.7012,-1.895,-2.1369,-2.3077,-2.5419,-2.8694,-2.8858,-3.0014,-3.2477,-3.2527,-3.2925,-3.3698,-3.3785,-3.4247,-3.5004,-3.5041,-3.5481,-3.6303,-3.6321,-3.6321,-3.6303,-3.6321,-3.5826,-3.5004,-3.5004,-3.405,-3.2546,-3.1733,-3.0448,-2.9078,-2.9078,-2.8033,-2.6657,-2.6649,-2.6176,-2.5748,-2.6495,-2.6806,-2.7221,-2.8961,-3.0905,-3.2416,-3.1898,-3.4135,-3.7031,-3.8704,-4.0397,-4.2089,-4.3722,-4.4116,-4.4374,-4.5236,-4.5446,-4.5743,-4.6692,-4.7548,-4.8394,-4.926,-5.0798,-5.1587,-5.0808,-5.1375,-5.1568,-5.0789,-5.0731,-5.1395,-5.3049,-5.3991,-5.4818,-5.5645,-5.5703,-5.5703,-5.5703,-5.5703,-5.5703,-5.5703,-5.5703,-5.5695,-5.5714,-5.5836,-5.5907,-5.5907,-5.5907,-5.5879,-5.5898,-5.5768,-5.5703,-5.5703,-5.5703,-5.5703,-5.5703,-5.5703,-5.5703,-5.5703,-5.5703,-5.5703,-5.5703,-5.5703,-5.5703,-5.5703,0.0,0.0,0.0,-0.9189,-0.9353,-0.9474,-0.95,-0.9504,-0.9784,-1.0598,-1.1867,0.0,0.0,0.0,0.0,0.0,-1.6968,-1.8461,-1.9811,-2.2366,-2.4563,-2.62,-2.7864,-2.9405,-3.0817,-3.1417,-3.1858,-3.2166,-3.2729,-3.3133,-3.3426,-3.394,-3.4357,-3.4651,-3.5188,-3.5147,-3.4688,-3.5206,-3.4949,-3.4174,-3.361,-3.3078,-3.2454,-3.1109,-2.9604,-2.8136,0.0,-2.6722,-2.5723,-2.5181,-2.5201,-2.5478,-2.5754,-2.5879,-2.6422,-2.8905,-3.0983,-3.2939,-3.5105,-3.703,-3.8962,-4.1163,-4.2567,-4.3691,-4.4758,-4.4998,-4.494,-4.4737,-4.4688,-4.4802,-4.5115,-4.5874,-4.6894,-4.8317,-4.9971,-5.1202,-5.1471,-5.2241,-5.2452,-5.1606,-5.201,-5.2587,-5.3145,-5.3472,-5.4203,-5.5588,-5.5703,-5.5703,-5.5703,-5.5703,-5.5703,-5.5703,-5.5703,-5.5738,-5.5836,-5.5789,-5.5808,-5.5907,-5.5798,-5.5778,-5.5778,-5.5726,-5.5703,-5.5703,-5.5703,-5.5703,-5.5703,-5.5703,-5.5703,-5.5703,-5.5703,-5.5703,-5.5703,-5.5703,-5.5703,-5.5703,0.0,0.0,0.0,0.0,0.0,0.0,0.0,0.0,0.0,0.0,0.0,0.0,0.0,0.0,0.0,0.0,0.0,-1.7519,-1.8606,-2.0835,-2.2864,-2.4534,-2.5862,-2.7349,-2.9077,-2.9393,-2.9844,-3.0479,-3.1047,-3.1463,-3.1739,-3.2265,-3.2669,-3.2963,-3.3476,-3.344,-3.2981,-3.3495,-3.3421,-3.2871,-3.2082,-3.1574,-3.1133,-2.9519,-2.8081,0.0,-2.6025,-2.5401,-2.4897,-2.4373,-2.4548,-2.5026,-2.5349,-2.6335,-2.7764,-2.968,-3.1941,-3.448,-3.7464,-3.9191,-4.0688,-4.2902,-4.4084,-4.4814,-4.5323,-4.5199,-4.4872,-4.4399,-4.3803,-4.3476,-4.3771,-4.428,-4.5318,-4.7318,-4.9365,-5.0971,-5.1788,-5.2933,-5.3337,-5.2462,-5.2856,-5.3318,-5.3626,-5.3664,-5.4222,-5.5588,-5.5703,-5.5703,-5.5703,-5.5703,-5.5703,-5.5703,-5.5703,-5.5738,-5.5827,-5.5738,-5.5738,-5.5827,-5.5738,-5.5703,-5.5703,-5.5703,-5.5703,-5.5703,-5.5703,-5.5703,-5.5703,-5.5703,-5.5703,-5.5703,-5.5703,-5.5703,-5.5703,-5.5703,-5.5703,-5.5703,0.0,0.0,0.0,0.0,0.0,0.0,0.0,0.0,0.0,0.0,0.0,0.0,0.0,0.0,0.0,0.0,0.0,0.0,-1.7682,-1.8606,-2.0454,-2.3515,-2.3047,-2.4153,-2.7252,-2.6683,-2.7107,-2.87,-2.8855,-2.9335,-3.0081,-3.0118,-3.0558,-3.1286,-3.1286,-3.1286,-3.1286,-3.1286,-3.1286,-3.1213,-3.0393,-2.961,-2.8767,-2.7189,-2.6098,-2.5301,-2.4548,-2.4226,-2.4208,-2.4245,-2.4346,-2.4595,-2.5481,-2.8125,-3.0998,-3.1336,-3.3851,-3.696,-3.895,-4.0649,-4.2241,-4.3939,-4.4891,-4.5429,-4.5428,-4.4851,-4.4245,-4.4077,-4.2725,-4.1777,-4.2469,-4.2738,-4.3688,-4.6205,-4.8914,-5.0991,-5.1846,-5.3472,-5.4241,-5.3376,-5.3299,-5.3645,-5.4414,-5.453,-5.4876,-5.5645,-5.5703,-5.5703,-5.5703,-5.5703,-5.5703,-5.5703,-5.5703,-5.5703,-5.5703,-5.5703,-5.5703,-5.5703,-5.5703,-5.5703,-5.5703,-5.5703,-5.5703,-5.5703,-5.5703,-5.5703,-5.5703,-5.5703,-5.5703,-5.5703,-5.5703,-5.5703,-5.5703,-5.5703,-5.5703,-5.5703,0.0,0.0,0.0,0.0,0.0,0.0,0.0,0.0,0.0,0.0,0.0,0.0,0.0,0.0,0.0,0.0,0.0,0.0,-1.6092,-1.7982,-1.9458,-2.0291,-2.186,-2.3388,-2.485,-2.534,-2.6095,-2.7164,-2.7801,-2.8209,-2.8441,-2.9023,-2.9427,-2.961,-2.961,-2.961,-2.961,-2.961,-2.961,-2.9537,-2.8741,-2.8282,-2.8007,-2.6979,-2.6098,-2.5374,-2.5172,-2.4713,-2.4281,-2.4897,-2.6315,-2.7995,-2.8887,-3.0759,-3.2943,-3.4349,-3.6462,-3.8872,-4.1387,-4.284,-4.3878,-4.4863,-4.5341,-4.5377,-4.4755,-4.4446,-4.3588,-4.1034,-4.0153,-3.9319,-3.7648,-3.9423,-4.1775,-4.3722,-4.7798,-5.1202,-5.2664,-5.4337,-5.5088,-5.426,-5.4703,-5.4914,-5.453,-5.503,-5.5472,-5.5684,-5.5703,-5.5703,-5.5703,-5.5703,-5.5703,-5.5703,-5.5703,-5.5703,-5.5703,-5.5703,-5.5703,-5.5703,-5.5703,-5.5703,-5.5703,-5.5703,-5.5703,-5.5703,-5.5703,-5.5703,-5.5703,-5.5703,-5.5703,-5.5703,-5.5703,-5.5703,-5.5703,-5.5703,-5.5703,-5.5703,0.0,0.0,0.0,0.0,0.0,0.0,0.0,0.0,0.0,0.0,0.0,0.0,0.0,0.0,0.0,0.0,0.0,0.0,0.0,-1.7095,-1.8353,-1.9077,-2.0399,-2.1688,-2.2881,-2.3404,-2.3938,-2.4454,-2.5281,-2.5695,-2.5713,-2.6521,-2.709,-2.7438,-2.7794,-2.7959,-2.7959,-2.7959,-2.7959,0.0,0.0,-2.6751,-2.666,-2.5841,-2.5273,-2.4879,-2.4879,-2.5264,-2.5962,-2.7151,-2.8493,-2.9931,-3.1493,-3.3422,-3.5432,-3.712,-3.9138,-4.1294,-4.3534,-4.4725,-4.5456,-4.5927,-4.5783,-4.51,-4.3562,-4.261,-4.1195,-3.8155,-3.7203,-3.6374,-3.4585,-3.6742,-3.9484,-4.161,-4.6231,-5.0279,-5.2337,-5.4395,-5.553,-5.5068,-5.5434,-5.5511,-5.5068,-5.5434,-5.5703,-5.5703,-5.5703,-5.5703,-5.5703,-5.5703,-5.5703,-5.5703,-5.5703,-5.5703,-5.5703,-5.5703,-5.5876,-5.6272,-5.5876,-5.6088,-5.6838,-5.6434,-5.6472,-5.6838,-5.6838,-5.6626,-5.6272,-5.6272,-5.6049,-5.5703,-5.5703,-5.5703,-5.5703,-5.5703,-5.5703,-5.5703,0.0,0.0,0.0,0.0,0.0,0.0,0.0,0.0,0.0,0.0,0.0,0.0,0.0,0.0,0.0,0.0,0.0,0.0,0.0,0.0,0.0,-1.8878,-1.9041,-1.981,-2.1325,-2.1416,-2.1525,-2.1697,-2.2465,-2.2841,-2.2859,-2.3547,-2.4309,-2.5117,-2.5805,-2.618,-2.6282,-2.6282,-2.6282,-2.6227,-2.5521,-2.5246,-2.5154,0.0,0.0,-2.419,-2.419,-2.5603,-2.7791,-2.9796,-3.0731,-3.1461,-3.3874,-3.6143,-3.8179,-3.9735,-4.1723,-4.3778,-4.5327,-4.6301,-4.6877,-4.6867,-4.6138,-4.4757,-4.2206,-4.0284,-3.8243,-3.5451,-3.4146,-3.3259,-3.2445,-3.4479,-3.7206,-4.0041,-4.4694,-4.8913,-5.1673,-5.4068,-5.5568,-5.5684,-5.5703,-5.5703,-5.5703,-5.5703,-5.5703,-5.5703,-5.5703,-5.5703,-5.5703,-5.5703,-5.5703,-5.5703,-5.5703,-5.5761,-5.5857,-5.5857,-5.6299,-5.7157,-5.6415,-5.6838,-5.828,-5.7511,-5.7569,-5.83,-5.83,-5.7877,-5.7176,-5.7176,-5.6656,-5.5857,-5.5857,-5.5799,-5.5703,-5.5703,-5.5703,-5.5703,0.0,0.0,0.0,0.0,0.0,0.0,0.0,0.0,0.0,0.0,-1.4137,-1.43,0.0,0.0,0.0,0.0,0.0,0.0,0.0,0.0,0.0,-1.8063,-1.8748,-1.9571,-2.058,-2.0605,-2.0967,-2.1697,-2.1852,-2.1952,-2.2014,-2.2143,-2.2657,-2.341,-2.3556,-2.3978,-2.4612,-2.4612,-2.4612,-2.4593,-2.4465,-2.442,-2.4392,0.0,0.0,0.0,-2.419,-2.4897,0.0,0.0,-3.2705,-3.4866,-3.7219,-3.91,-4.0745,-4.2238,-4.3868,-4.5365,-4.6254,-4.7165,-4.7674,-4.6916,-4.6148,-4.4713,-4.1476,-3.9411,-3.7052,-3.3015,-3.1531,-3.0674,-2.9825,-3.2337,-3.5832,-3.9857,-4.4214,-4.8481,-5.2433,-5.3972,-5.4953,-5.5607,-5.5703,-5.5703,-5.5703,-5.5703,-5.5703,-5.5703,-5.5703,-5.5703,-5.5703,-5.5703,-5.5703,-5.5703,-5.5703,-5.6049,-5.6772,-5.6772,-5.7203,-5.8069,-5.7915,-5.8011,-5.83,-5.8146,-5.8165,-5.83,-5.83,-5.8204,-5.8069,-5.8069,-5.755,-5.6772,-5.6772,-5.6329,-5.5703,-5.5703,-5.5703,-5.5703,0.0,0.0,0.0,0.0,0.0,0.0,0.0,-1.3286,-1.4752,-1.6008,-1.6171,-1.5845,-1.5024,-1.4553,-1.43,0.0,0.0,0.0,0.0,0.0,0.0,0.0,-1.8667,-1.93,-1.9707,-2.0169,0.0,0.0,0.0,0.0,0.0,0.0,0.0,0.0,0.0,0.0,0.0,-2.419,-2.419,-2.419,-2.419,-2.419,0.0,0.0,0.0,0.0,0.0,0.0,-2.6384,0.0,-3.1513,-3.4587,-3.8258,-4.0086,-4.1142,-4.2696,-4.4189,-4.562,-4.6882,-4.7921,-4.8481,-4.7636,-4.6455,-4.4372,-4.0112,-3.749,-3.4738,-3.04,-2.9219,-2.8543,-2.7253,-3.0196,-3.3779,-3.6728,-4.0788,-4.5346,-5.0451,-5.1951,-5.3288,-5.5391,-5.5692,-5.5703,-5.5703,-5.5703,-5.5703,-5.5703,-5.5703,-5.5703,-5.5703,-5.5703,-5.5703,-5.5703,-5.6126,-5.6579,-5.7003,-5.7453,-5.8107,-5.8915,-5.8511,-5.8761,-5.9588,-5.9127,-5.9165,-5.9608,-5.9608,-5.9338,-5.8915,-5.8915,-5.8434,-5.7684,-5.7684,-5.7126,-5.6387,-5.6387,-5.6088,-5.5703,0.0,0.0,0.0,0.0,0.0,0.0,0.0,-1.4209,-1.5809,-1.7881,-1.8316,-1.7881,-1.6436,-1.5404,-1.4734,0.0,0.0,0.0,0.0,0.0,0.0,0.0,0.0,-1.9094,-1.9091,0.0,0.0,0.0,0.0,0.0,0.0,0.0,0.0,0.0,0.0,0.0,0.0,0.0,-2.419,0.0,0.0,0.0,0.0,0.0,0.0,0.0,0.0,0.0,-2.6264,-2.7402,-2.9515,-3.2428,-3.6789,-3.9147,-4.0637,-4.2254,-4.3813,-4.541,-4.7182,-4.8398,-4.8963,-4.8249,-4.6724,-4.4096,-3.9027,-3.5764,-3.2664,-2.8543,-2.7415,-2.6816,-2.5663,-2.8363,-3.1578,-3.4031,-3.755,-4.208,-4.8173,-4.999,-5.1836,-5.4973,-5.5555,-5.5761,-5.5953,-5.5972,-5.6049,-5.6242,-5.6069,-5.5895,-5.5703,-5.5703,-5.578,-5.5972,-5.6637,-5.7176,-5.7541,-5.8204,-5.8973,-5.9762,-5.9146,-5.9531,-6.0781,-6.0089,-6.0146,-6.08,-6.08,-6.0416,-5.9781,-5.9781,-5.93,-5.8569,-5.8569,-5.7915,-5.7003,-5.7003,-5.6445,-5.5703,0.0,0.0,0.0,0.0,0.0,0.0,0.0,-1.5635,-1.7918,-1.886,-1.963,-1.9739,-1.8851,-1.7392,-1.6197,0.0,0.0,0.0,0.0,0.0,0.0,0.0,0.0,0.0,0.0,0.0,0.0,0.0,0.0,0.0,0.0,0.0,0.0,0.0,0.0,0.0,0.0,0.0,0.0,0.0,0.0,0.0,0.0,0.0,0.0,0.0,0.0,0.0,-2.4759,-2.7045,-2.8044,-2.8787,-3.1385,-3.5521,-3.9737,-4.1338,-4.3207,-4.5159,-4.7101,-4.8262,-4.877,-4.8086,-4.6694,-4.4133,-3.8991,-3.527,-3.1929,-2.8415,-2.6485,-2.5612,-2.6185,-2.7261,-2.9628,-3.4419,-3.6895,-4.0548,-4.7204,-4.9615,-5.1654,-5.4216,0.0,0.0,-5.681,-5.6887,-5.7203,-5.8011,-5.7319,-5.6541,-5.5742,-5.5703,-5.6049,-5.6868,-5.6964,-5.7723,-5.9261,-5.9358,-5.9819,-6.0685,-6.0608,-6.0646,-6.08,-6.0723,-6.0723,-6.08,-6.08,-6.0742,-6.0685,-6.0685,-6.0165,-5.9396,-5.9396,-5.8415,-5.7003,-5.7003,-5.6445,-5.5703,0.0,0.0,0.0,0.0,0.0,0.0,-1.2984,-1.5012,-1.7276,-1.9522,-2.0101,-2.0554,-2.1206,-1.9829,-1.8153,-1.6378,0.0,0.0,0.0,0.0,0.0,0.0,0.0,0.0,0.0,0.0,0.0,0.0,0.0,0.0,0.0,0.0,0.0,0.0,0.0,0.0,0.0,0.0,0.0,0.0,0.0,0.0,0.0,0.0,0.0,0.0,0.0,0.0,-2.4355,-2.5309,-2.6284,-2.7269,-2.822,-3.0959,-3.4445,-3.7625,-4.0619,-4.3331,-4.5356,-4.6927,-4.7853,-4.7259,-4.5878,-4.3446,-3.8797,-3.5185,-3.1837,-2.8402,-2.637,-2.5293,-2.5629,-2.6387,-2.8319,-3.2414,-3.3688,-3.6496,-4.3195,-4.5208,-4.753,-5.1621,-5.3313,-5.4882,-5.6799,-5.7003,-5.7137,-5.7492,-5.7684,-5.7396,-5.6541,-5.6483,-5.6876,-5.7742,-5.8242,-5.8838,-5.9492,-6.0012,-6.0454,-6.08,-6.08,-6.08,-6.08,-6.08,-6.08,-6.08,-6.08,-6.08,-6.08,-6.08,-6.0589,-6.0281,-6.0281,-5.955,-5.8454,-5.7953,-5.7223,-5.6406,0.0,0.0,0.0,0.0,0.0,-1.2169,-1.2984,-1.4861,-1.7105,-1.9612,-2.0355,-2.1097,-2.221,-2.0916,-1.9367,-1.7881,-1.7327,0.0,0.0,0.0,0.0,0.0,0.0,0.0,0.0,0.0,-2.1152,-2.1981,-2.2859,0.0,0.0,0.0,0.0,0.0,0.0,0.0,0.0,0.0,0.0,0.0,0.0,0.0,0.0,0.0,0.0,0.0,0.0,0.0,0.0,0.0,0.0,-2.5897,-2.5897,-2.7383,0.0,-3.4458,-3.7831,-4.0751,-4.3605,-4.5452,-4.6517,-4.6279,-4.4967,-4.2604,-3.8313,-3.4791,-3.1522,-2.8357,-2.637,-2.5197,-2.5195,-2.5903,-2.742,-3.0336,-3.1448,-3.4124,-4.0344,-4.241,-4.4997,-4.9632,-5.1687,-5.3766,-5.6357,-5.7541,-5.7926,-5.7426,-5.8165,-5.828,-5.7434,-5.7607,-5.8011,-5.8646,-5.9204,-5.9627,-5.9877,-6.0492,-6.08,-6.08,-6.08,-6.08,-6.08,-6.08,-6.08,-6.08,-6.08,-6.08,-6.08,-6.08,-6.08,-6.08,-6.08,-6.0127,-5.9088,-5.8511,-5.7588,-5.6541,0.0,0.0,0.0,0.0,0.0,0.0,-1.2984,-1.5816,-1.8171,-1.9005,-2.0499,-2.1486,-2.1514,-2.0083,-1.9413,-2.0192,-1.8805,0.0,0.0,0.0,0.0,0.0,0.0,0.0,0.0,0.0,-2.2018,-2.2887,-2.3749,-2.419,-2.419,0.0,0.0,0.0,0.0,0.0,0.0,0.0,0.0,0.0,0.0,0.0,0.0,0.0,0.0,0.0,0.0,0.0,0.0,0.0,0.0,0.0,0.0,-2.5346,0.0,0.0,-3.5187,-3.7479,-4.2145,-4.4013,-4.4745,-4.5211,-4.4038,-4.1714,-3.7492,-3.393,-3.0783,-2.8224,-2.637,-2.5191,-2.5191,-2.5854,-2.6956,-2.865,-3.1099,-3.4558,-3.9603,-4.2546,-4.5438,0.0,-5.0813,-5.292,-5.5472,-5.8761,-6.0069,-5.8415,-5.9031,-5.9146,-5.8338,-5.905,-5.9473,-5.9492,-5.9492,-5.9915,-6.0781,-6.08,-6.08,-6.08,-6.08,-6.08,-6.08,-6.08,-6.08,-6.08,-6.08,-6.08,-6.08,-6.08,-6.08,-6.08,-6.08,-5.9781,-5.8319,-5.83,-5.7203,-5.5703,0.0,0.0,0.0,0.0,0.0,0.0,0.0,-1.4089,-1.5936,-1.7284,-1.79,-1.8642,-1.9739,-1.9421,-1.9204,-1.9458,-1.8516,0.0,0.0,0.0,0.0,0.0,0.0,0.0,0.0,0.0,-2.1999,-2.283,-2.3757,-2.419,-2.419,-2.419,-2.419,0.0,0.0,0.0,0.0,0.0,0.0,0.0,0.0,0.0,0.0,0.0,0.0,0.0,0.0,0.0,0.0,0.0,0.0,0.0,0.0,0.0,0.0,-2.8151,-3.1642,-3.5016,-3.6776,-3.8713,-4.0049,-3.9276,-3.8784,-3.7691,-3.459,-3.2198,-2.9881,-2.7345,-2.595,-2.5191,-2.5191,-2.5421,-2.6886,-3.0846,-3.2198,0.0,-3.9591,-4.3025,0.0,-4.8112,-5.2491,-5.5626,-5.6437,-5.8085,-5.8877,-5.8338,-5.905,-5.9396,-5.9127,-5.9935,-6.0396,-6.0396,-6.0396,-6.0512,-6.08,-6.08,-6.08,-6.08,-6.08,-6.08,-6.08,-6.08,-6.08,-6.08,-6.08,-6.08,-6.08,-6.08,-6.08,-6.08,-6.08,-6.0473,-5.9877,-5.8723,-5.7953,-5.7319,0.0,0.0,0.0,0.0,0.0,0.0,0.0,-1.3521,-1.5114,-1.6124,-1.6512,-1.7201,-1.8497,-1.8642,-1.8769,-1.9077,-1.8642,0.0,0.0,0.0,0.0,0.0,0.0,0.0,-2.0771,-2.1316,-2.2328,-2.3783,-2.4372,-2.4658,-2.4658,-2.4658,-2.4493,-2.419,-2.419,0.0,0.0,0.0,0.0,0.0,0.0,0.0,0.0,0.0,0.0,0.0,0.0,0.0,0.0,0.0,0.0,0.0,0.0,0.0,0.0,0.0,-2.8484,-3.1489,-3.3399,-3.5349,-3.6738,-3.6311,-3.5889,-3.498,-3.2756,-3.0701,-2.8714,-2.6784,-2.5759,-2.5191,-2.5191,-2.572,-2.7173,-3.0293,-3.2145,-3.4625,-3.875,-4.2527,-4.5991,-4.9039,-5.3264,-5.6042,-5.633,-5.7497,-5.8108,-5.7785,-5.8535,-5.8873,-5.8569,-5.9377,-5.9858,-5.9858,-6.0473,-6.08,-6.08,-6.08,-6.08,-6.08,-6.08,-6.08,-6.08,-6.08,-6.08,-6.08,-6.08,-6.08,0.0,-6.08,-6.08,-6.0762,-6.0435,-6.0127,-5.9685,-5.8319,-5.7607,-5.7165,0.0,0.0,0.0,0.0,0.0,0.0,0.0,-1.3847,-1.5343,-1.5415,-1.607,-1.682,-1.7555,-1.7755,-1.8117,-1.886,0.0,0.0,0.0,0.0,0.0,0.0,0.0,0.0,-2.1562,-2.1598,-2.2813,-2.5319,-2.5374,-2.5393,-2.5393,-2.5448,-2.5062,-2.4281,-2.4281,-2.4245,0.0,0.0,0.0,0.0,0.0,0.0,0.0,0.0,0.0,0.0,0.0,0.0,0.0,0.0,0.0,0.0,0.0,0.0,0.0,0.0,0.0,0.0,0.0,-3.3342,-3.4369,-3.5258,-3.4501,-3.3135,-3.1503,-2.9306,0.0,-2.6479,-2.572,-2.5249,-2.544,-2.6689,-2.7835,-2.8255,-3.1675,-3.516,-3.7693,-4.1762,-4.633,-5.1369,-5.3388,-5.4668,-5.5416,-5.6961,-5.763,-5.694,-5.7651,-5.7809,-5.7126,-5.7857,-5.83,-5.83,-5.98,-6.0646,-6.0704,-6.0762,-6.08,-6.08,-6.08,-6.08,-6.08,-6.08,-6.08,-6.08,-6.08,-6.08,-6.08,-6.08,-6.0762,-6.0627,-5.9819,-5.9011,-5.8184,-5.733,-5.6503,-5.578,0.0,0.0,0.0,0.0,0.0,0.0,0.0,0.0,0.0,0.0,-1.4752,-1.494,-1.5139,-1.6233,-1.7056,0.0,0.0,0.0,0.0,0.0,0.0,0.0,0.0,0.0,-2.1489,-2.1562,-2.252,-2.4416,-2.5061,-2.5393,-2.5411,-2.6025,-2.5878,-2.5117,-2.5117,-2.4787,0.0,0.0,0.0,0.0,0.0,0.0,0.0,0.0,0.0,0.0,-2.419,-2.419,0.0,0.0,0.0,0.0,0.0,0.0,0.0,0.0,-2.4612,-2.5127,-2.6763,0.0,-2.9551,-2.8567,-2.8746,-2.8905,0.0,-2.7147,-2.646,-2.5644,-2.5325,-2.5778,-2.7676,-2.7848,-2.9192,-3.3692,-3.5783,-3.7941,-4.1151,-4.5774,-5.0249,-5.4075,-5.4903,-5.5209,-5.5401,-5.5844,-5.6326,-5.6863,-5.7086,-5.7436,-5.7973,-5.8184,-5.83,-5.83,-5.8684,-5.9184,-5.98,-6.0473,-6.08,-6.08,-6.08,-6.08,-6.08,-6.08,-6.08,-6.08,-6.08,-6.08,-6.08,-6.08,-6.0416,-5.9781,-5.9588,-5.9011,-5.8184,-5.733,-5.6868,-5.6599,0.0,0.0,0.0,0.0,0.0,0.0,0.0,0.0,0.0,0.0,0.0,-1.43,-1.43,-1.5744,0.0,0.0,0.0,0.0,0.0,0.0,0.0,0.0,0.0,-1.9872,-2.1507,-2.1616,-2.284,-2.525,-2.5721,-2.6146,-2.6513,-2.6943,-2.6521,-2.5374,-2.5007,-2.4622,0.0,0.0,0.0,0.0,0.0,0.0,0.0,0.0,0.0,0.0,-2.419,-2.419,0.0,-2.419,-2.419,-2.419,0.0,0.0,0.0,0.0,-2.419,-2.43,-2.4732,-2.6842,-2.8817,-2.8318,-2.8525,-2.8714,-2.8255,-2.6943,-2.572,-2.5287,-2.5497,-2.6275,-2.802,-2.8956,-3.0739,-3.4713,-3.7005,-4.0024,-4.4991,-4.8697,-5.2014,-5.5052,-5.5396,-5.5396,-5.5396,-5.5434,-5.5655,-5.6156,-5.6206,-5.6452,-5.7024,-5.7063,-5.7074,-5.7107,-5.7492,-5.8107,-5.8934,-5.9415,-5.9838,-6.0204,-6.0204,-6.0416,-6.08,-6.08,-6.08,-6.08,-6.08,-6.08,-6.08,-6.08,-6.0281,-5.9454,-5.9088,-5.8434,-5.7588,-5.6722,-5.6406,-5.6319,0.0,0.0,0.0,0.0,0.0,0.0,0.0,0.0,0.0,0.0,0.0,0.0,0.0,0.0,0.0,0.0,0.0,0.0,0.0,0.0,0.0,0.0,-1.9309,-2.0024,-2.158,-2.1789,-2.3299,-2.6227,-2.6612,-2.7126,-2.7816,-2.8055,-2.7247,-2.554,-2.475,-2.43,0.0,0.0,0.0,0.0,0.0,0.0,0.0,0.0,0.0,0.0,0.0,0.0,0.0,-2.419,-2.419,-2.419,-2.419,0.0,0.0,0.0,0.0,0.0,-2.4698,-2.7382,-3.0084,-3.0132,-3.0165,-3.0135,-2.9879,-2.7612,-2.5573,-2.5573,-2.6217,-2.7166,-2.8427,-3.0529,-3.2745,-3.4816,-3.796,-4.2335,-4.8602,-5.0818,-5.269,-5.5116,-5.5403,-5.5403,-5.5403,-5.5403,-5.5409,-5.5395,-5.5408,-5.5456,-5.5573,-5.5596,-5.5618,-5.5682,-5.6415,-5.7146,-5.7885,-5.8154,-5.8704,-5.9492,-5.9492,-5.9954,-6.08,-6.08,-6.08,-6.0781,-6.0666,-6.0589,-6.0589,-6.0473,-5.9896,-5.905,-5.8377,-5.7569,-5.6692,-5.5962,-5.5692,-5.5651,0.0,0.0,0.0,0.0,0.0,0.0,0.0,0.0,0.0,0.0,0.0,0.0,0.0,0.0,0.0,0.0,0.0,0.0,0.0,0.0,0.0,-2.0171,-2.0198,-2.0678,-2.167,-2.2365,-2.3326,-2.4575,-2.6612,-2.7677,-2.7835,-2.9182,-2.8613,-2.6374,-2.5576,-2.4842,-2.419,0.0,0.0,0.0,0.0,0.0,0.0,0.0,0.0,0.0,0.0,0.0,0.0,-2.419,-2.419,-2.419,-2.419,0.0,0.0,0.0,0.0,0.0,-2.6962,-2.9655,-3.0988,-2.7518,-2.8446,-2.9822,-2.8408,-2.7682,-2.7319,-2.7319,-2.7962,-2.9433,-3.2458,-3.391,-3.5897,-3.9718,-4.3157,-4.6729,-5.0665,-5.2021,-5.3301,-5.5193,-5.5403,-5.5403,-5.5403,-5.5403,-5.5409,-5.5395,-5.5408,-5.5432,-5.5516,-5.5573,-5.5573,-5.5527,-5.5764,-5.5931,-5.6011,-5.7527,-5.8704,-5.9492,-5.9492,-5.9954,-6.08,-6.08,-6.08,-6.0762,-6.0012,-5.9704,-5.9646,-5.8954,-5.8165,-5.7368,-5.7253,-5.6624,-5.5799,-5.5665,-5.5573,-5.5527,0.0,0.0,0.0,0.0,0.0,0.0,0.0,0.0,0.0,0.0,0.0,0.0,0.0,0.0,0.0,0.0,0.0,0.0,0.0,0.0,-1.9937,-2.0378,-2.1225,-2.1899,-2.2346,-2.3162,-2.4437,-2.6153,-2.7695,-2.8888,-2.9744,-2.9163,-2.8081,-2.6557,-2.5291,-2.4548,-2.419,-2.419,0.0,0.0,0.0,0.0,0.0,0.0,0.0,0.0,0.0,0.0,0.0,0.0,-2.419,-2.419,-2.419,0.0,0.0,0.0,0.0,0.0,-2.5698,-2.8381,-3.0376,-2.8428,-3.0796,-3.3394,-3.2623,-3.1381,-3.0407,-3.0407,-3.1076,-3.2267,-3.4273,-3.6088,-3.8782,-4.3443,-4.6653,-4.9423,-5.1907,-5.2977,-5.397,-5.525,-5.5403,-5.5403,-5.5403,-5.5403,-5.5396,-5.5403,-5.5403,-5.5421,-5.5444,-5.548,-5.5492,-5.5504,-5.5562,-5.5573,-5.5551,-5.636,-5.7251,-5.8146,-5.8146,-5.8607,-5.9454,-5.9454,-5.9454,-5.9415,-5.8996,-5.8823,-5.8819,-5.842,-5.7735,-5.6947,-5.6947,-5.6376,-5.5551,-5.5551,-5.5504,-5.5444,0.0,0.0,0.0,0.0,0.0,0.0,0.0,0.0,0.0,0.0,0.0,0.0,0.0,0.0,0.0,0.0,0.0,0.0,0.0,0.0,-2.0435,-2.0659,-2.2054,-2.2941,-2.3198,-2.4235,-2.575,-2.7798,-2.898,-3.0191,-3.136,-2.9108,-2.7548,-2.6539,-2.5107,-2.4373,-2.419,-2.419,-2.419,0.0,0.0,0.0,0.0,0.0,0.0,0.0,0.0,0.0,0.0,0.0,0.0,0.0,0.0,0.0,0.0,-2.419,-2.419,-2.4337,-2.4966,-2.7382,-2.9857,-3.0486,-3.3147,-3.5774,-3.6366,-3.4838,-3.3406,-3.3788,-3.4732,-3.5668,-3.6279,-3.8782,-4.2144,-4.6424,-4.9232,-5.1391,-5.29,-5.3855,-5.4658,-5.5326,-5.5403,-5.5403,-5.5403,-5.5403,-5.5403,-5.5403,-5.5403,-5.5396,-5.539,-5.5395,-5.542,-5.5476,-5.5492,-5.5492,-5.548,-5.5492,-5.5992,-5.6959,-5.6959,-5.742,-5.8254,-5.8254,-5.8254,-5.8235,-5.7977,-5.7901,-5.7928,-5.767,-5.7167,-5.6583,-5.6583,-5.6115,-5.548,-5.5476,-5.5439,-5.5402,0.0,0.0,0.0,0.0,0.0,0.0,0.0,0.0,0.0,0.0,0.0,0.0,0.0,0.0,0.0,0.0,0.0,0.0,0.0,0.0,-2.0725,-2.148,-2.2392,-2.3271,-2.4098,-2.564,-2.6888,-2.7798,-3.0111,-3.1286,-3.136,-2.9684,-2.8088,-2.6547,-2.5705,-2.4897,-2.419,-2.419,-2.419,-2.419,0.0,0.0,0.0,0.0,0.0,0.0,0.0,0.0,0.0,0.0,0.0,0.0,0.0,0.0,-2.419,-2.419,-2.419,-2.4735,-2.7233,-2.8792,-3.0307,-3.2784,-3.3187,-3.3597,-3.5965,-3.5736,-3.5458,-3.7024,-3.8686,-3.9862,-3.9919,-4.3252,-4.6615,-4.8594,-5.1001,-5.2938,-5.3874,-5.4753,-5.5326,-5.5403,-5.5403,-5.5403,-5.5403,-5.5403,-5.5403,-5.5403,-5.5403,-5.5403,-5.5403,-5.5409,-5.539,-5.5416,-5.5483,-5.5468,-5.5408,-5.5468,-5.5938,-5.6812,-5.6812,-5.7273,-5.8098,-5.8098,-5.8098,-5.8059,-5.7254,-5.6896,-5.6851,-5.6033,-5.5657,-5.56,-5.56,-5.5526,-5.5408,-5.5422,-5.5396,-5.5403,0.0,0.0,0.0,0.0,0.0,0.0,0.0,0.0,0.0,0.0,0.0,0.0,0.0,0.0,0.0,0.0,0.0,0.0,0.0,-2.0344,-2.1261,-2.1652,-2.2941,-2.4059,-2.4934,-2.6521,-2.7989,-2.9292,-3.1219,-3.188,-3.136,-2.9237,-2.7658,-2.6528,-2.5236,-2.4483,-2.419,-2.419,-2.419,-2.419,-2.419,0.0,0.0,0.0,0.0,0.0,0.0,0.0,0.0,0.0,-2.419,-2.419,-2.419,-2.419,-2.419,-2.419,-2.419,-2.442,-2.5448,-2.8063,-3.0874,-3.2392,-3.3916,-3.5736,-3.8276,-3.9403,-4.054,-4.2717,-4.3291,-4.3405,-4.3405,-4.5105,-4.7226,-4.948,-5.1505,-5.3282,-5.4715,-5.5193,-5.5403,-5.5403,-5.5403,-5.5403,-5.5403,-5.5403,-5.5403,-5.5403,-5.5403,-5.5403,-5.5403,-5.5409,-5.5409,-5.5403,-5.5415,-5.5428,-5.5403,-5.5428,-5.5593,-5.5919,-5.5967,-5.6156,-5.6482,-5.6482,-5.6482,-5.6463,-5.6101,-5.5947,-5.5964,-5.559,-5.5444,-5.5432,-5.5434,-5.5415,-5.539,-5.5403,-5.5403,-5.5403,0.0,0.0,0.0,0.0,0.0,0.0,0.0,0.0,0.0,0.0,0.0,0.0,0.0,0.0,0.0,0.0,0.0,0.0,-1.9107,-2.0388,-2.1316,-2.1679,-2.3015,-2.4271,-2.5374,-2.699,-2.8466,-2.9824,-3.117,-3.1427,-3.0595,-2.8686,-2.7365,-2.6528,-2.5181,-2.4585,-2.4566,-2.43,-2.419,-2.419,-2.419,-2.419,0.0,0.0,0.0,0.0,0.0,0.0,0.0,0.0,-2.419,-2.419,-2.419,-2.419,-2.419,-2.419,-2.4606,-2.505,-2.505,-2.7979,-3.1315,-3.2392,-3.4791,-3.7684,-4.0759,-4.2163,-4.3577,-4.6347,-4.6462,-4.6175,-4.6454,-4.694,-4.8067,-5.034,-5.2117,-5.3722,-5.5193,-5.5403,-5.5403,-5.5403,-5.5403,-5.5403,-5.5403,-5.5403,-5.5403,-5.5403,-5.5403,-5.5403,-5.5403,-5.5403,-5.5403,-5.5403,-5.5403,-5.5403,-5.5403,-5.5403,-5.5403,-5.5403,-5.5453,-5.5483,-5.5483,-5.5483,-5.5483,-5.547,-5.5434,-5.5434,-5.5451,-5.5434,-5.5409,-5.5409,-5.5396,-5.5403,-5.5403,-5.5403,-5.5403,-5.5403,0.0,0.0,0.0,0.0,0.0,0.0,0.0,0.0,0.0,0.0,0.0,0.0,0.0,0.0,0.0,0.0,0.0,0.0,-1.9107,-1.9913,-2.0803,-2.166,-2.2548,-2.3749,-2.5338,-2.6953,-2.8172,-2.9005,-2.9794,-2.9776,-2.8968,-2.8172,-2.7365,-2.6547,-2.576,-2.5393,-2.5338,-2.4548,-2.419,-2.419,-2.419,-2.419,0.0,0.0,0.0,0.0,0.0,0.0,0.0,0.0,-2.419,-2.419,-2.419,-2.4208,-2.4226,-2.419,-2.5486,-2.6907,-2.6888,-2.9012,-3.1621,-3.3311,-3.5746,-3.8858,-4.3051,-4.3424,-4.3806,-4.7158,-4.7845,-4.8124,-4.8976,-4.9129,-4.9671,-5.1353,-5.3015,-5.4409,-5.5288,-5.5403,-5.5403,-5.5403,-5.5403,-5.5403,-5.5403,-5.5403,-5.5403,-5.5403,-5.5403,-5.5403,-5.5403,-5.5403,-5.5403,-5.5403,-5.5403,-5.5403,-5.5403,-5.5403,-5.5403,-5.5403,-5.5403,-5.5403,-5.5403,-5.5403,-5.5403,-5.5403,-5.5403,-5.5403,-5.5403,-5.5403,-5.5403,-5.5403,-5.5403,-5.5403,-5.5403,-5.5403,-5.5403,-5.5403,0.0,0.0,0.0,0.0,0.0,0.0,0.0,0.0,0.0,0.0,0.0,0.0,0.0,0.0,0.0,0.0,0.0,0.0,-1.9176,-1.9948,-2.0812,-2.1731,-2.2566,-2.3492,-2.453,-2.5576,-2.7339,-2.9831,-2.9519,-2.8932,-2.8136,-2.7328,-2.6521,-2.576,-2.5503,-2.5081,-2.4548,-2.43,-2.419,-2.419,-2.419,-2.419,0.0,0.0,0.0,0.0,0.0,0.0,0.0,0.0,0.0,0.0,-2.419,-2.4979,-2.5676,-2.452,-2.5387,-2.6601,-2.6182,-2.9373,-3.3119,-3.4309,-3.8404,-4.2622,-4.4494,-4.564,-4.7283,-5.0627,-5.1314,-5.1219,-5.0913,-5.0856,-5.1219,-5.227,-5.3378,-5.4409,-5.5288,-5.5403,-5.5403,-5.5403,-5.5403,-5.5403,-5.5403,-5.5403,-5.5403,-5.5403,-5.5403,-5.5403,-5.5403,-5.5403,-5.5403,-5.5403,-5.5403,-5.5403,-5.5403,-5.5403,-5.5403,-5.5403,-5.5403,-5.5403,-5.5403,-5.5403,-5.5403,-5.5403,-5.5403,-5.5403,-5.5403,-5.5403,-5.5403,-5.5403,-5.5403,-5.5403,-5.5403,-5.5403,-5.5403,-5.5403,0.0,0.0,0.0,0.0,0.0,0.0,0.0,0.0,0.0,0.0,0.0,0.0,0.0,0.0,0.0,0.0,0.0,0.0,0.0,-1.9948,-2.0812,-2.1723,-2.2566,-2.3529,-2.4658,-2.5154,-2.6347,-2.8282,-2.8124,-2.764,-2.6862,-2.7328,-2.6961,-2.5907,-2.6539,-2.6209,-2.5126,-2.4814,-2.4677,-2.4677,-2.4677,-2.4677,-2.4677,0.0,0.0,0.0,0.0,0.0,0.0,0.0,0.0,0.0,-2.419,-2.4869,-2.5605,-2.5345,-2.6486,-2.7986,-2.8698,-3.1957,-3.5647,-3.7604,-4.1074,-4.4579,-4.6787,-4.8334,-5.0073,-5.2766,-5.3034,-5.2766,-5.2614,-5.2308,-5.2346,-5.3168,-5.4046,-5.4811,-5.5326,-5.5403,-5.5403,-5.5403,-5.5403,-5.5403,-5.5403,-5.5403,-5.5403,-5.5403,-5.5403,-5.5403,-5.5403,-5.5403,-5.5403,-5.5403,-5.5403,-5.5403,-5.5403,-5.5403,-5.5403,-5.5403,-5.5403,-5.5403,-5.5403,-5.5403,-5.5403,-5.5403,-5.5403,-5.5403,-5.5403,-5.5403,-5.5403,-5.5403,-5.5403,-5.5403,-5.5403,-5.5403,-5.5403,-5.5403,0.0,0.0,0.0,0.0,0.0,0.0,0.0,0.0,0.0,0.0,0.0,0.0,0.0,0.0,0.0,0.0,0.0,0.0,0.0,0.0,-2.0803,-2.1669,-2.2603,-2.3786,-2.5264,-2.5283,-2.5283,-2.5283,-2.6098,-2.608,-2.5338,-2.7695,-2.7959,-2.6557,-2.8106,-2.7923,-2.6447,-2.5631,-2.5283,-2.5283,-2.5283,-2.5283,-2.5283,-2.5283,0.0,0.0,0.0,0.0,0.0,0.0,0.0,0.0,-2.419,-2.43,-2.4715,-2.62,-2.8091,-3.0215,-3.268,-3.5396,-3.8391,-4.182,-4.3577,-4.5515,-4.9519,-5.1028,-5.2066,-5.376,-5.3531,-5.3282,-5.4065,-5.3569,-5.3301,-5.4085,-5.4887,-5.5403,-5.5403,-5.5403,-5.5403,-5.5403,-5.5403,-5.5403,-5.5403,-5.5403,-5.5403,-5.5403,-5.5403,-5.5403,-5.5403,-5.5403,-5.5403,-5.5403,-5.5403,-5.5403,-5.5403,-5.5403,-5.5403,-5.5403,-5.5403,-5.5403,-5.5403,-5.5403,-5.5403,-5.5403,-5.5403,-5.5403,-5.5403,-5.5403,-5.5403,-5.5403,-5.5403,-5.5403,-5.5403,-5.5403,-5.5403,-5.5403,0.0,0.0,0.0,0.0,0.0,0.0,0.0,0.0,0.0,0.0,0.0,0.0,0.0,0.0,0.0,0.0,0.0,0.0,0.0,0.0,-2.0881,-2.174,-2.318,-2.4098,-2.4447,-2.4456,-2.4456,-2.4456,-2.5264,-2.5246,-2.4511,-2.6282,-2.6594,-2.5705,-2.6686,-2.6576,-2.5613,-2.4805,-2.4456,-2.4456,-2.4456,-2.4456,-2.4456,-2.4456,-2.4355,0.0,0.0,0.0,0.0,0.0,0.0,0.0,-2.419,-2.5071,-2.5907,-2.5029,-2.6998,-2.9625,-3.0357,-3.3486,-3.7376,-4.0903,-4.4914,-4.8582,-5.0818,-5.1455,-5.2066,-5.376,-5.4505,-5.4906,-5.5097,-5.4982,-5.4906,-5.5097,-5.5288,-5.5403,-5.5403,-5.5403,-5.5403,-5.5403,-5.5403,-5.5403,-5.5403,-5.5403,-5.5403,-5.5403,-5.5403,-5.5403,-5.5403,-5.5403,-5.5403,-5.5403,-5.5403,-5.5403,-5.5403,-5.5403,-5.5403,-5.5403,-5.5403,-5.5403,-5.5403,-5.5403,-5.5403,-5.5403,-5.5403,-5.5403,-5.5403,-5.5403,-5.5403,-5.5403,-5.5403,-5.5403,-5.5403,-5.5403,-5.5403,-5.5403,0.0,0.0,0.0,0.0,0.0,0.0,0.0,0.0,0.0,0.0,0.0,0.0,0.0,0.0,0.0,0.0,0.0,0.0,0.0,-2.0381,-2.1641,-2.2896,-2.3749,-2.419,-2.419,-2.419,-2.419,-2.419,-2.4622,-2.4805,-2.4824,-2.6833,-2.7519,-2.7163,-2.797,-2.7658,-2.6476,-2.5283,-2.4768,-2.4768,-2.4768,-2.4768,-2.4768,-2.4768,-2.4548,-2.419,-2.419,0.0,0.0,0.0,0.0,0.0,0.0,0.0,-2.5468,-2.5485,-2.7054,-2.9277,-3.1609,-3.4765,-3.8546,-4.3307,-4.6825,-4.9423,-5.0684,-5.1314,-5.1849,-5.2728,-5.3894,-5.4906,-5.5326,-5.5403,-5.5403,-5.5403,-5.5403,-5.5403,-5.5403,-5.5403,-5.5403,-5.5403,-5.5403,-5.5403,-5.5403,-5.5403,-5.5403,-5.5403,-5.5403,-5.5403,-5.5403,-5.5403,-5.5403,-5.5403,-5.5403,-5.5403,-5.5403,-5.5403,-5.5403,-5.5403,-5.5403,-5.5403,-5.5403,-5.5403,-5.5403,-5.5403,-5.5403,-5.5403,-5.5403,-5.5403,-5.5403,-5.5403,-5.5403,-5.5403,-5.5403,-5.5403,-5.5403,-5.5403,0.0,0.0,0.0,0.0,0.0,0.0,0.0,0.0,0.0,0.0,0.0,0.0,0.0,0.0,0.0,0.0,0.0,0.0,0.0,-2.0792,-2.2465,-2.4135,-2.419,-2.419,-2.419,-2.419,-2.419,-2.419,-2.419,-2.4814,-2.6054,-2.7923,-2.8877,-2.9023,-2.9549,-2.8962,-2.7493,-2.5888,-2.5191,-2.5191,-2.5191,-2.5191,-2.5191,-2.5191,-2.4787,-2.419,-2.419,-2.419,-2.419,-2.419,0.0,0.0,0.0,0.0,-2.4495,-2.5996,-2.7121,-2.8755,-3.2751,-3.6321,-4.0314,-4.6132,-4.8334,-4.932,-5.0111,-5.0856,-5.1417,-5.1582,-5.2805,-5.4142,-5.5021,-5.5193,-5.5231,-5.5384,-5.5403,-5.5403,-5.5403,-5.5403,-5.5403,-5.5403,-5.5403,-5.5403,-5.5403,-5.5403,-5.5403,-5.5403,-5.5403,-5.5403,-5.5403,-5.5403,-5.5403,-5.5403,-5.5403,-5.5403,-5.5403,-5.5403,-5.5403,-5.5403,-5.5403,-5.5403,-5.5403,-5.5403,-5.5403,-5.5403,-5.5403,-5.5403,-5.5403,-5.5403,-5.5403,-5.5403,-5.5403,-5.5403,-5.5403,-5.5403,-5.5403,-5.5403,0.0,0.0,0.0,0.0,0.0,0.0,0.0,0.0,0.0,0.0,-1.9041,-1.9112,-1.9091,-1.9102,0.0,0.0,0.0,0.0,-1.9274,0.0,0.0,-2.4135,-2.419,-2.419,-2.419,-2.419,-2.419,-2.419,-2.419,-2.5676,-2.851,-2.8136,-2.8338,-2.8968,-2.8374,-2.7603,-2.6649,-2.5034,-2.4355,-2.4355,-2.4355,-2.4355,-2.4355,-2.4355,-2.4281,-2.419,-2.419,-2.419,-2.419,-2.419,-2.419,0.0,0.0,0.0,-2.4254,-2.4495,-2.5755,-2.7364,-2.8736,0.0,-4.0925,0.0,-4.7895,-4.932,-5.0111,-5.0397,-5.0684,-5.1448,-5.2327,-5.3244,-5.4104,-5.4276,-5.4524,-5.5288,-5.5403,-5.5403,-5.5403,-5.5403,-5.5403,-5.5403,-5.5403,-5.5403,-5.5403,-5.5403,-5.5403,-5.5403,-5.5403,-5.5403,-5.5403,-5.5403,-5.5403,-5.5403,-5.5403,-5.5403,-5.5403,-5.5403,-5.5403,-5.5403,-5.5403,-5.5403,-5.5403,-5.5403,-5.5403,-5.5403,-5.5403,-5.5403,-5.5403,-5.5403,-5.5403,-5.5403,-5.5403,-5.5403,-5.5403,-5.5403,-5.5403,-5.5403,0.0,0.0,0.0,0.0,0.0,0.0,0.0,0.0,0.0,0.0,0.0,-1.9104,-1.9102,-1.9092,0.0,0.0,0.0,0.0,-1.9937,-2.1116,0.0,-2.3492,-2.3951,-2.419,-2.419,-2.3768,-2.3749,-2.419,-2.3749,-2.564,-2.9666,-2.9769,-3.0723,-3.2289,-3.0577,-2.9365,-2.8448,-2.5944,-2.4622,-2.419,-2.419,-2.5016,-2.6062,-2.4704,-2.5034,-2.6043,-2.4685,-2.419,-2.419,-2.419,-2.419,-2.419,-2.419,0.0,0.0,0.0,-2.5085,-2.6923,-3.0788,-3.5152,-3.9764,0.0,-4.6405,-4.7447,-4.9213,-4.9633,-4.9862,-5.0703,-5.1142,-5.1792,-5.3129,-5.376,-5.4237,-5.4619,-5.5078,-5.5403,-5.5403,-5.5403,-5.5403,-5.5403,-5.5403,-5.5403,-5.5403,-5.5403,-5.5403,-5.5403,-5.5403,-5.5403,-5.5403,-5.5403,-5.5403,-5.5403,-5.5403,-5.5403,-5.5403,-5.5403,-5.5403,-5.5403,-5.5403,-5.5403,-5.5403,-5.5403,-5.5403,-5.5403,-5.5403,-5.5403,-5.5403,-5.5403,-5.5403,-5.5403,-5.5403,-5.5403,-5.5403,-5.5403,-5.5403,-5.5403,0.0,0.0,0.0,0.0,0.0,0.0,0.0,0.0,0.0,0.0,0.0,0.0,-1.9094,0.0,0.0,0.0,0.0,0.0,-2.0448,0.0,0.0,0.0,0.0,-2.419,-2.419,-2.341,-2.3391,-2.419,-2.3391,-2.5574,-3.0522,-3.1109,-3.3018,-3.583,-3.3403,-3.1421,-2.9732,-2.7119,-2.5668,-2.5107,-2.5107,-2.619,-2.7688,-2.6704,-2.7328,-2.8441,-2.6209,-2.5291,-2.5016,-2.441,-2.419,-2.419,-2.419,-2.419,0.0,0.0,0.0,-2.6259,0.0,0.0,-3.7041,-4.2302,-4.4098,-4.5254,0.0,-4.8785,-4.9282,-4.9862,-5.0168,-5.0684,-5.1926,-5.2881,-5.3531,-5.3741,-5.4314,-5.483,-5.504,-5.5078,-5.5154,-5.5365,-5.5403,-5.5403,-5.5403,-5.5403,-5.5403,-5.5403,-5.5403,-5.5403,-5.5403,-5.5403,-5.5403,-5.5403,-5.5403,-5.5403,-5.5403,-5.5403,-5.5403,-5.5403,-5.5403,-5.5403,-5.5403,-5.5403,-5.5403,-5.5403,-5.5403,-5.5403,-5.5403,-5.5403,-5.5403,-5.5403,-5.5403,-5.5403,-5.5403,-5.5403,-5.5403,-5.5403,0.0,0.0,0.0,0.0,0.0,0.0,0.0,0.0,0.0,0.0,0.0,0.0,-1.9099,-1.9107,-1.9158,-1.9274,0.0,0.0,0.0,0.0,0.0,0.0,0.0,0.0,-2.419,-2.341,-2.3391,-2.419,-2.3391,-2.586,-3.1342,-3.1378,-3.3935,-3.8395,-3.5922,-3.2674,-2.9005,-2.8062,-2.764,-2.7614,-2.7614,-2.7688,-2.8117,-3.1054,-3.177,-3.1011,-2.9335,-2.8264,-2.7255,-2.4961,-2.419,-2.419,-2.419,-2.419,-2.419,0.0,0.0,0.0,0.0,-2.9773,0.0,-3.7715,-4.0864,-4.3341,0.0,-4.7914,-4.911,-4.9148,-4.9767,-5.034,-5.0417,-5.1142,-5.1983,-5.2728,-5.29,-5.3225,-5.4046,-5.418,-5.4467,-5.5307,-5.5403,-5.5403,-5.5403,-5.5403,-5.5403,-5.5403,-5.5403,-5.5403,-5.5403,-5.5403,-5.5403,-5.5403,-5.5403,-5.5403,-5.5403,-5.5403,-5.5403,-5.5403,-5.5403,-5.5403,-5.5403,-5.5403,-5.5403,-5.5403,-5.5403,-5.5403,-5.5403,-5.5403,-5.5403,-5.5403,-5.5403,-5.5403,-5.5403,-5.5403,-5.5403,-5.5403,0.0,0.0,0.0,0.0,0.0,0.0,0.0,0.0,0.0,0.0,0.0,0.0,0.0,-1.9107,-1.914,-1.9301,-1.9295,0.0,0.0,0.0,0.0,0.0,0.0,0.0,-2.419,-2.341,-2.3391,-2.419,-2.3391,-2.5089,-2.912,-3.0155,-3.1568,-3.3275,-3.3954,-3.3426,-3.1898,-2.9017,-2.7798,-2.7842,-2.8356,-2.9806,-3.1659,-3.177,-3.2963,-3.4266,-3.2087,-3.0124,-2.851,-2.8172,-2.6667,-2.497,-2.497,-2.4622,-2.419,-2.419,-2.419,-2.48,0.0,0.0,0.0,-3.5116,-3.7813,-4.0134,-4.3394,-4.543,-4.6959,-4.8048,-4.8945,-4.9519,-4.9519,-5.0665,-5.1684,-5.1983,-5.2461,-5.29,-5.3225,-5.3263,-5.3378,-5.3683,-5.3722,-5.3722,-5.3722,-5.3722,-5.3722,-5.3722,-5.3722,-5.397,-5.4543,-5.4581,-5.483,-5.5384,-5.5403,-5.5403,-5.5403,-5.5403,-5.5403,-5.5403,-5.5403,-5.5403,-5.5403,-5.5403,-5.5403,-5.5403,-5.5403,-5.5403,-5.5403,-5.5403,-5.5403,-5.5403,-5.5403,-5.5403,-5.5403,-5.5403,-5.5403,-5.5403,0.0,0.0,0.0,0.0,0.0,0.0,0.0,0.0,0.0,-1.9476,0.0,0.0,0.0,0.0,-1.9984,-2.013,-2.0144,-2.0142,-2.0142,-2.1427,0.0,0.0,0.0,0.0,0.0,-2.341,-2.3391,-2.419,-2.3391,-2.4649,-2.7824,-2.8888,-2.9824,-3.065,-3.1715,-3.2651,-3.3238,-3.0834,-2.9659,-2.9512,-3.0583,-3.2124,-3.388,-3.4743,-3.5899,-3.689,-3.5224,-3.3261,-3.139,-3.1109,-2.9219,-2.6917,-2.6384,-2.5283,-2.419,-2.419,-2.419,-2.4587,-2.6357,0.0,0.0,0.0,-3.4575,-3.6452,-4.1165,-4.3132,-4.4518,-4.6547,-4.7876,-4.8659,-4.8659,-4.9576,-5.05,-5.1066,-5.1601,-5.2059,-5.2365,-5.2403,-5.2499,-5.2766,-5.2805,-5.2805,-5.2805,-5.2805,-5.2805,-5.2805,-5.2805,-5.3053,-5.3626,-5.3664,-5.3932,-5.4505,-5.4524,-5.4677,-5.4963,-5.4963,-5.5116,-5.5403,-5.5403,-5.5403,-5.5403,-5.5403,-5.5403,-5.5403,-5.5403,-5.5403,-5.5403,-5.5403,-5.5403,-5.5403,-5.5403,-5.5403,-5.5403,-5.5403,-5.5403,-5.5403,0.0,0.0,0.0,0.0,0.0,0.0,0.0,0.0,-1.9449,-2.0228,0.0,0.0,0.0,0.0,0.0,-2.1822,-2.1831,-2.1831,-2.1794,-2.2556,0.0,0.0,0.0,0.0,-2.419,-2.3428,-2.341,-2.419,-2.341,-2.463,-2.7688,-2.7725,-2.8991,-3.1195,-2.9677,-3.0308,-3.2546,-3.3275,-3.322,-3.2766,-3.4289,-3.4527,-3.4578,-4.0102,-4.0781,-3.8817,-3.8817,-3.7771,-3.6009,-3.361,-3.1702,-3.0008,-2.8319,-2.6153,-2.4226,-2.4208,-2.4208,-2.4226,0.0,0.0,0.0,0.0,0.0,0.0,-3.9288,0.0,-4.1848,-4.4616,-4.647,-4.7635,-4.7731,-4.7769,-4.8323,-4.9958,-5.0245,-5.0569,-5.1448,-5.1551,-5.1849,-5.2633,-5.2728,-5.2728,-5.2728,-5.2728,-5.2728,-5.2728,-5.2728,-5.2728,-5.2747,-5.2785,-5.2805,-5.2805,-5.2805,-5.3206,-5.4046,-5.4065,-5.4505,-5.5365,-5.5365,-5.5384,-5.5403,-5.5403,-5.5403,-5.5403,-5.5403,-5.5403,-5.5403,-5.5403,-5.5403,-5.5403,-5.5403,-5.5403,-5.5403,-5.5403,-5.5403,-5.5403,0.0,0.0,0.0,0.0,0.0,-2.0843,-2.0843,-2.0843,-2.0916,0.0,0.0,0.0,-2.1488,-2.2127,-2.2557,-2.2584,-2.2639,-2.2428,-2.1831,-2.2556,-2.3006,-2.3006,-2.3768,-2.419,-2.419,-2.3988,-2.3988,-2.419,-2.3988,-2.4318,-2.5199,-2.5797,-2.6733,-2.7952,-2.8675,-2.9372,-2.9941,-2.8987,-3.0485,-3.3421,-3.2687,-3.4724,-3.8322,-3.9313,-4.0377,-4.1295,-4.1295,-3.99,-3.8028,-3.7918,-3.5624,-3.221,-2.8851,-2.6549,-2.4952,-2.4373,-2.4622,-2.4934,-2.4355,0.0,0.0,0.0,0.0,0.0,-3.3787,-3.518,-3.6926,-4.1417,-4.2734,-4.3863,-4.6383,-4.7368,-4.7941,-4.8418,-4.9022,-4.971,-5.055,-5.0665,-5.0741,-5.0971,-5.099,-5.099,-5.099,-5.099,-5.099,-5.099,-5.099,-5.1276,-5.1907,-5.248,-5.2805,-5.2805,-5.2805,-5.2919,-5.3148,-5.3148,-5.3588,-5.4467,-5.4467,-5.4791,-5.5403,-5.5403,-5.5403,-5.5403,-5.5403,-5.5403,-5.5403,-5.5403,-5.5403,-5.5403,-5.5403,-5.5403,-5.5403,-5.5403,-5.5403,-5.5403,0.0,0.0,0.0,-2.1514,-2.1776,-2.1993,-2.1993,-2.1993,-2.2101,0.0,0.0,0.0,-2.2942,-2.4392,-2.4936,-2.3983,-2.3948,-2.3629,-2.2859,-2.3235,-2.3511,-2.3511,-2.3951,-2.419,-2.419,-2.419,-2.419,-2.419,-2.419,-2.419,-2.4208,-2.4677,-2.5154,-2.564,-2.6583,-2.717,-2.742,-2.6135,-2.8393,-3.2889,-3.399,-3.6431,-3.9533,-4.0744,-4.1882,-4.2892,-4.3552,-4.269,-4.1222,-4.135,-3.823,-3.3733,-3.0356,-2.8441,-2.7119,-2.5621,-2.6007,-2.6722,-2.5915,-2.5786,-2.625,-2.7711,0.0,0.0,-3.2545,-3.3245,-3.4329,-3.9147,-4.0819,-4.1997,-4.4045,-4.5411,-4.6317,-4.671,-4.7455,-4.8315,-4.9137,-4.9576,-4.9805,-4.9805,-5.0092,-5.0302,-5.0302,-5.0302,-5.0302,-5.0302,-5.0302,-5.0531,-5.1028,-5.1505,-5.1754,-5.1754,-5.1754,-5.1926,-5.2308,-5.2308,-5.2728,-5.355,-5.3932,-5.4371,-5.4868,-5.5231,-5.5403,-5.5403,-5.5403,-5.5403,-5.5403,-5.5403,-5.5403,-5.5403,-5.5403,-5.5403,-5.5403,-5.5403,-5.5403,-5.5403,0.0,0.0,-2.1785,-2.1876,-2.2481,-2.3025,-2.3187,-2.3151,-2.3387,0.0,-2.385,-2.4096,-2.571,-2.7652,-2.8027,-2.6001,-2.5573,-2.512,-2.4373,-2.4245,-2.419,-2.419,-2.419,-2.419,-2.419,-2.419,-2.419,-2.419,-2.419,-2.419,-2.419,-2.419,-2.419,-2.419,-2.419,-2.4603,-2.5246,-2.4869,-2.731,-3.1782,-3.6138,-3.8377,-3.9496,-4.3075,-4.4158,-4.3938,-4.5388,-4.5443,-4.4709,-4.3791,-4.001,-3.5243,-3.2724,-3.1384,-3.0265,-2.7842,-2.8271,-2.9335,-2.8429,-2.7732,-2.7897,-3.0485,-2.8661,0.0,-3.3165,-3.3138,-3.3117,-3.7112,-3.9268,-4.0549,-4.095,-4.2314,-4.363,-4.4404,-4.5369,-4.6459,-4.7635,-4.8468,-4.8945,-4.8945,-4.9595,-5.0015,-5.0015,-5.0111,-5.0168,-5.0168,-5.0245,-5.0302,-5.0302,-5.0302,-5.0302,-5.0302,-5.0302,-5.0665,-5.1448,-5.1455,-5.1868,-5.2671,-5.3454,-5.3913,-5.4123,-5.4906,-5.5307,-5.5403,-5.5403,-5.5403,-5.5403,-5.5403,-5.5403,-5.5403,-5.5403,-5.5403,-5.5403,-5.5403,-5.5403,-5.5403,0.0,-2.2944,-2.356,-2.4194,-2.4447,-2.499,-2.6283,-2.5921,-2.6029,-2.7477,-2.8105,-2.9023,-3.0636,-3.0127,-2.9506,-2.9126,-2.736,-2.5944,-2.5209,-2.4566,-2.419,-2.419,-2.419,-2.419,-2.419,-2.419,-2.419,-2.419,-2.419,-2.419,-2.419,-2.419,-2.419,-2.419,-2.419,-2.4281,-2.4593,-2.7024,-2.9347,-3.1488,-3.2443,-3.634,-4.168,-4.247,-4.3883,-4.5461,-4.5792,-4.5792,-4.5443,-4.3975,-4.1901,-3.9371,-3.6303,-3.4761,-3.3592,-3.1164,-3.1604,-3.2559,-3.1091,-3.1054,-3.1115,-2.9794,-3.0344,0.0,-2.8754,-2.9503,-3.1098,-3.285,-3.3519,-3.4636,-3.7446,-3.8809,-3.9547,-3.9717,-4.1688,-4.4284,-4.7376,-4.7941,-4.8048,-4.8048,-4.82,-4.8285,-4.8285,-4.8926,-4.9328,-4.9328,-4.992,-5.0302,-5.0302,-5.0302,-5.0302,-5.0302,-5.0302,-5.0378,-5.055,-5.055,-5.099,-5.1849,-5.2021,-5.2785,-5.4104,-5.4276,-5.4734,-5.5403,-5.5403,-5.5403,-5.5403,-5.5403,-5.5403,-5.5403,-5.5403,-5.5403,-5.5403,-5.5403,-5.5403,-5.5403,-2.3252,-2.3542,-2.4049,-2.4864,-2.5335,-2.6138,-2.7749,-2.7658,-2.7966,-2.959,-3.1202,-3.2035,-3.1636,-3.1991,-3.147,-2.9524,-2.7917,-2.6527,-2.5423,-2.4591,-2.417,-2.419,-2.419,-2.419,-2.419,-2.419,-2.419,-2.419,-2.419,-2.419,-2.419,-2.419,-2.463,-2.5364,-2.4557,-2.4869,-2.6043,-2.6851,-2.8594,-3.1054,-3.3899,-3.8193,-4.2983,-4.3791,-4.5351,-4.7095,-4.7095,-4.6838,-4.6195,-4.4176,-4.269,-4.1148,-3.79,-3.7147,-3.689,-3.4027,-3.4357,-3.5289,-3.3642,-3.3201,-3.3109,-3.2742,-3.232,0.0,0.0,-3.0592,-3.102,-3.3192,-3.279,-3.2947,-3.5907,-3.6836,-3.728,-3.7683,-3.9913,-4.2096,-4.3513,-4.5692,-4.7139,-4.7139,-4.754,-4.7788,-4.7788,-4.82,-4.8449,-4.8449,-4.9232,-4.9691,-4.9691,-5.0073,-5.0302,-5.0302,-5.0302,-5.0302,-5.0302,-5.0302,-5.0531,-5.0971,-5.1391,-5.204,-5.2881,-5.3722,-5.4333,-5.4791,-5.5212,-5.5403,-5.5403,-5.5403,-5.5403,-5.5403,-5.5403,-5.5403,-5.5403,-5.5403,-5.5403,-5.5403,-2.3806,-2.3806,-2.4049,-2.4864,-2.5679,-2.6735,-2.8346,-2.86,-2.9342,-3.1419,-3.3665,-3.4498,-3.2995,-3.4172,-3.3897,-3.0998,-2.9196,-2.7755,-2.6739,-2.5346,-2.4663,-2.4867,-2.4447,-2.4355,-2.4667,-2.4355,-2.419,-2.419,-2.419,-2.419,-2.419,-2.419,-2.4979,-2.6319,-2.5162,-2.5915,-2.7952,-2.6806,-2.8367,-3.2027,-3.6798,-4.0157,-4.2578,-4.4635,-4.6342,-4.7682,-4.8141,-4.7865,-4.6984,-4.4709,-4.3534,-4.2451,-3.9402,-3.942,-4.001,-3.7041,-3.7239,-3.8098,-3.6582,-3.5701,-3.5385,-3.6119,-3.4665,-3.322,0.0,0.0,0.0,-3.3988,-3.3146,-3.2645,-3.4596,-3.4997,-3.5255,-3.5908,-3.8138,-3.9495,-3.8681,-4.2246,-4.5066,-4.5379,-4.6236,-4.6879,-4.698,-4.6888,-4.7101,-4.775,-4.799,-4.8334,-4.8812,-4.9614,-5.0073,-5.0073,-5.0225,-5.0302,-5.0302,-5.0302,-5.0302,-5.0302,-5.1009,-5.1448,-5.1646,-5.2996,-5.3798,-5.4142,-5.4849,-5.525,-5.5403,-5.5403,-5.5403,-5.5403,-5.5403,-5.5403,-5.5403,-5.5403,-5.5403,-5.5403,-2.3806,-2.3806,-2.4049,-2.4864,-2.5679,-2.6735,-2.8346,-2.86,-2.9957,-3.3701,-3.5657,-3.743,-3.9224,-3.7812,-3.712,-3.8092,-3.3604,-3.0942,-3.155,-2.8225,-2.6542,-2.7277,-2.5316,-2.4869,-2.63,-2.4924,-2.419,-2.419,-2.419,-2.419,-2.419,-2.419,-2.4677,-2.5558,-2.6098,-2.7262,-2.8895,-2.9439,-3.2375,-3.6795,-3.8157,-3.8487,-3.8594,-4.2358,-4.4323,-4.5388,-4.7535,-4.8251,-4.7902,-4.6195,-4.5571,-4.5039,-4.2543,-4.2359,-4.2727,-4.093,-4.1056,-4.1552,-4.0636,-4.0343,-3.9627,-3.6964,-3.7624,-3.7496,-3.2008,0.0,-3.3792,-3.1305,0.0,-3.1568,-3.1845,0.0,0.0,-3.2023,-3.434,-3.5813,-3.5011,-3.7453,-3.9856,-4.1292,-4.2585,-4.3543,-4.4022,-4.3645,-4.4609,-4.7578,-4.5802,-4.5573,-4.7826,-4.8774,-4.9243,-4.9243,-4.992,-5.0302,-5.0302,-5.0302,-5.0302,-5.0302,-5.0397,-5.0856,-5.1608,-5.1799,-5.269,-5.4104,-5.4199,-5.4696,-5.5403,-5.5403,-5.5403,-5.5403,-5.5403,-5.5403,-5.5403,-5.5403,-5.5403,-5.5403,-2.3806,-2.3806,-2.4049,-2.4864,-2.528,-2.6204,-2.8274,-3.0989,-3.3541,-3.5711,-3.7775,-3.9405,-4.0383,-3.9623,-3.8933,-3.8714,-3.6139,-3.3916,-3.2484,-3.0376,-2.8968,-2.8482,-2.7035,-2.635,-2.6583,-2.5474,-2.4677,-2.419,-2.419,-2.419,-2.419,-2.419,-2.5383,-2.7512,-2.7831,-2.9666,-3.2472,-3.2339,-3.3476,-3.5509,-3.7276,-3.7529,-3.7441,-4.3351,-4.6104,-4.6929,-4.7939,-4.8306,-4.7994,-4.5902,-4.5516,-4.548,-4.3057,-4.2837,-4.3277,-4.2139,-4.2047,-4.2121,-4.1315,-4.1425,-4.1258,-3.8964,-3.8799,-3.8248,-3.4578,-3.3665,-3.3482,-3.3078,0.0,0.0,0.0,0.0,0.0,0.0,-3.276,-3.3364,-3.2101,-3.3846,-3.6114,-3.8376,-3.9153,-4.0011,-4.138,-4.1405,-4.2335,-4.4723,-4.3921,-4.4208,-4.6233,-4.8086,-4.911,-4.911,-4.9882,-5.0302,-5.0302,-5.0302,-5.0302,-5.0302,-5.0302,-5.0493,-5.0856,-5.136,-5.2251,-5.3359,-5.3874,-5.46,-5.5403,-5.5403,-5.5403,-5.5403,-5.5403,-5.5403,-5.5403,-5.5403,-5.5403,-5.5403,-2.3806,-2.3806,-2.3976,-2.4574,-2.5045,-2.6222,-2.8853,-3.26,-3.5675,-3.714,-3.8989,-4.0619,-4.1705,-4.1633,-4.1307,-4.0836,-3.9459,-3.7571,-3.5106,-3.315,-3.1837,-3.1278,-2.9156,-2.8082,-2.8235,-2.6573,-2.5318,-2.453,-2.43,-2.43,-2.453,-2.43,-2.5676,-2.8381,-2.9262,-3.1518,-3.4692,-3.5018,-3.5642,-3.6615,-3.8429,-3.9328,-4.0084,-4.4691,-4.7204,-4.8306,-4.8306,-4.8306,-4.8012,-4.6012,-4.5737,-4.5883,-4.3901,-4.3681,-4.3993,-4.3185,-4.3112,-4.3057,-4.2047,-4.2359,-4.2415,-4.0139,-3.9129,-3.8157,-3.6083,-3.4578,-3.3867,-3.4821,-3.35,0.0,0.0,0.0,0.0,0.0,0.0,-3.1959,0.0,-3.1043,-3.2813,-3.5263,-3.6411,-3.7664,-3.9367,-3.9048,-3.9747,-4.2189,-4.1502,-4.2162,-4.48,-4.692,-4.8269,-4.8735,-4.9538,-5.0073,-5.0302,-5.0302,-5.0302,-5.0302,-5.0302,-5.0302,-5.0321,-5.0971,-5.1697,-5.2518,-5.3378,-5.4237,-5.5059,-5.5307,-5.5403,-5.5403,-5.5403,-5.5403,-5.5403,-5.5403,-5.5403,-5.5403,-2.3806,-2.3806,-2.3806,-2.3831,-2.5135,-2.7236,-3.0441,-3.2379,-3.4606,-3.7756,-3.8915,-4.089,-4.4729,-4.444,-4.491,-4.721,-4.4512,-4.2339,-4.1451,-3.7118,-3.529,-3.6869,-3.1677,-2.9911,-3.2344,-2.8496,-2.6098,-2.5356,-2.4585,-2.4603,-2.5338,-2.4566,-2.5089,-2.6804,-2.9934,-3.2265,-3.4045,-3.7202,-4.0341,-4.3203,-4.3294,-4.5149,-4.77,-4.5572,-4.6232,-4.8306,-4.8306,-4.8306,-4.8177,-4.7314,-4.7039,-4.6911,-4.6049,-4.5792,-4.5663,-4.4874,-4.5168,-4.5443,-4.3846,-4.4011,-4.3681,-3.9717,-3.8726,-3.7863,-3.4614,-3.5073,-3.5954,-3.5169,-3.6211,-3.7052,-3.634,-3.5463,0.0,0.0,0.0,0.0,0.0,-2.909,-2.9744,-3.1385,-3.4618,-3.7144,-3.8258,-3.6182,-3.6572,-4.0932,-3.8248,-3.8641,-4.3767,-4.4914,-4.6175,-4.7788,-4.8697,-4.95,-5.0283,-5.0302,-5.0302,-5.0302,-5.0302,-5.0302,-5.0302,-5.034,-5.0818,-5.1677,-5.248,-5.3339,-5.4218,-5.5059,-5.5403,-5.5403,-5.5403,-5.5403,-5.5403,-5.5403,-5.5403,-5.5403,-2.4592,-2.5027,-2.5045,-2.3987,-2.4683,-2.6856,-3.1129,-3.4045,-3.7122,-4.0836,-4.1995,-4.3824,-4.7319,-4.7446,-4.7627,-4.842,-4.7518,-4.5872,-4.352,-4.1343,-3.9945,-3.9607,-3.6191,-3.4477,-3.4838,-3.1981,-2.9576,-2.7727,-2.6958,-2.6437,0.0,0.0,0.0,-2.8244,-3.0974,-3.3697,-3.6464,-3.9717,-4.1405,-4.2011,-4.3057,-4.5424,-4.8214,-4.7388,-4.759,-4.8306,-4.8306,-4.8306,-4.8269,-4.7975,-4.7535,-4.7058,-4.6782,-4.6342,-4.5847,-4.5571,-4.5681,-4.5773,-4.5241,-4.5681,-4.5443,-4.1956,-4.0689,-3.9426,-3.6193,-3.6285,-3.6688,-3.5298,-3.6762,-3.7881,-3.6541,0.0,0.0,0.0,0.0,0.0,0.0,0.0,-2.72,-2.8826,-3.1654,-3.3384,-3.3216,-3.418,-3.5665,-3.7736,-3.7985,-3.9567,-4.3013,-4.5048,-4.6347,-4.692,-4.8334,-4.9243,-4.95,-5.0034,-5.0302,-5.0302,-5.0302,-5.0302,-5.0302,-5.0302,-5.0779,-5.1627,-5.2442,-5.3282,-5.418,-5.504,-5.5403,-5.5403,-5.5403,-5.5403,-5.5403,-5.5403,-5.5403,-5.5403,-2.5479,-2.5842,-2.5878,-2.4827,-2.6276,-2.8902,-3.2868,-3.6435,-3.9786,-4.2919,-4.4277,-4.6069,-4.9021,-4.9329,-4.9438,-4.9727,-4.9764,-4.8409,-4.5243,-4.4497,-4.3683,-4.2523,-4.0053,-3.8546,-3.8134,-3.5472,-3.2657,-2.971,-2.8966,-2.8009,0.0,0.0,0.0,0.0,-3.1633,-3.433,-3.689,-4.1295,-4.302,-4.2947,-4.4562,-4.6452,-4.8306,-4.8306,-4.8306,-4.8306,-4.8306,-4.8306,-4.8306,-4.8306,-4.7957,-4.7516,-4.7516,-4.7168,-4.6709,-4.6416,-4.6526,-4.6636,-4.6067,-4.6489,-4.6397,-4.3461,-4.2341,-4.1111,-3.7881,-3.7991,-3.8303,-3.6655,-3.7808,-3.8909,-3.8157,-3.6853,0.0,0.0,0.0,0.0,0.0,-2.6484,-2.6219,-2.7255,-2.9389,0.0,0.0,-3.2345,-3.3808,-3.5998,-3.6748,-3.8642,-4.2144,-4.415,-4.5583,-4.6481,-4.7895,-4.8793,-4.911,-4.9901,-5.0302,-5.0302,-5.0302,-5.0302,-5.0302,-5.0302,-5.0608,-5.12,-5.2327,-5.311,-5.3722,-5.4906,-5.5403,-5.5403,-5.5403,-5.5403,-5.5403,-5.5403,-5.5403,-5.5403,-2.6475,-2.6457,-2.6584,-2.6663,-2.9735,-3.3049,-3.5587,-3.9189,-4.2266,-4.4041,-4.5635,-4.7536,-4.9967,-5.022,-5.0546,-5.1285,-5.1357,-5.0035,-4.6939,-4.6703,-4.6382,-4.5758,-4.3282,-4.2032,-4.2213,-3.887,-3.5293,-3.1546,-3.054,-2.9259,0.0,0.0,0.0,0.0,-3.1874,-3.4165,-3.5467,-4.1866,-4.5095,-4.6104,-4.7682,-4.8287,-4.8287,-4.8361,-4.8361,-4.8342,-4.8324,-4.8306,-4.8306,-4.8306,-4.8306,-4.8306,-4.8306,-4.8306,-4.8159,-4.7369,-4.77,-4.7976,-4.6434,-4.6581,-4.6599,-4.425,-4.3608,-4.2745,-3.9643,-4.0141,-4.082,-3.9221,-3.9551,-4.0322,-4.093,-3.9129,0.0,0.0,0.0,0.0,0.0,0.0,-2.6749,-2.6833,0.0,0.0,0.0,-3.072,-3.1213,-3.5513,-3.4595,-3.6055,0.0,-4.2249,-4.3834,-4.6309,-4.7292,-4.82,-4.9033,-4.9882,-5.0302,-5.0302,-5.0302,-5.0302,-5.0302,-5.0302,-5.0302,-5.0397,-5.2059,-5.2805,-5.2938,-5.4677,-5.5403,-5.5403,-5.5403,-5.5403,-5.5403,-5.5403,-5.5403,-5.5403,-2.802,-2.9903,-3.1926,-3.3125,-3.2705,-3.361,-3.783,-3.9804,-4.223,-4.625,-4.7663,-4.9202,-5.1611,-5.1864,-5.1973,-5.2172,-5.219,-5.1593,-5.0162,-4.951,-4.9097,-4.8919,-4.6579,-4.5292,-4.5332,-4.107,-3.8072,-3.6474,-3.2729,-3.0667,-3.0161,0.0,0.0,0.0,0.0,-3.3852,-3.6054,-4.0813,-4.438,-4.6874,-4.7902,-4.8267,-4.8301,-4.9002,-4.9203,-4.905,-4.8488,-4.8306,-4.8306,-4.8306,-4.8306,-4.8306,-4.8306,-4.8306,-4.8269,-4.8048,-4.8141,-4.8214,-4.781,-4.7829,-4.77,-4.647,-4.5278,-4.403,-4.258,-4.3057,-4.3315,-4.1717,-4.2488,-4.28,-4.0616,-3.9203,-3.7661,0.0,0.0,0.0,0.0,0.0,-2.8822,-3.0026,-2.9482,0.0,-2.829,-3.0149,-3.1636,-3.226,-3.4321,-3.7043,-4.0435,-4.1242,-4.2538,-4.4579,-4.6699,-4.7903,-4.8143,-4.9576,-5.0302,-5.0302,-5.0302,-5.0302,-5.0302,-5.0302,-5.0302,-5.0397,-5.2059,-5.2805,-5.2938,-5.4677,-5.5403,-5.5403,-5.5403,-5.5403,-5.5403,-5.5403,-5.5403,-5.5403,-3.0699,-3.3284,-3.5892,-3.716,-3.6816,-3.7395,-4.0456,-4.1886,-4.3842,-4.7265,-4.8713,-4.9945,-5.1303,-5.2063,-5.2498,-5.2498,-5.2498,-5.2009,-5.0854,-5.0995,-5.0832,-5.013,-4.913,-4.8279,-4.7572,-4.4261,-4.1161,-3.826,-3.4861,-3.2296,-3.0495,0.0,0.0,0.0,0.0,-3.3654,-3.5316,-4.0821,-4.4839,-4.7566,-4.8372,-4.8881,0.0,-4.9761,-4.9905,-4.977,-4.9375,-4.929,-4.9389,-4.9389,-4.9169,-4.8857,-4.8857,-4.8618,-4.8306,-4.8306,-4.8306,-4.8306,-4.8306,-4.8306,-4.8196,-4.7736,-4.6929,-4.5975,-4.48,-4.4892,-4.4874,-4.3608,-4.3791,-4.3736,-4.2268,-4.0487,-3.8175,0.0,0.0,0.0,-3.032,-2.9812,-2.9721,-3.0283,-2.9849,-2.8895,-2.7273,-2.9134,-3.0443,-3.0432,-3.2977,-3.5552,-3.7851,-4.0019,-4.1895,-4.3433,-4.6279,-4.7788,-4.7788,-4.9325,-5.0156,-5.0302,-5.0144,-5.0156,-5.0302,-5.0302,-5.0302,-5.0397,-5.2059,-5.2805,-5.2938,-5.4677,-5.5403,-5.5403,-5.5403,-5.5403,-5.5403,-5.5403,-5.5403,-5.5403,-3.4009,-3.6526,-3.888,-3.9568,-4.1162,-4.2628,-4.3552,-4.4784,-4.6232,-4.7953,-4.9564,-5.0619,-5.0728,-5.1973,-5.2806,-5.2806,-5.2806,-5.2172,-5.0651,-5.1864,-5.1991,-5.0492,-5.0977,-5.0651,-4.9235,-4.7228,-4.3751,-3.8825,-3.658,-3.3592,0.0,0.0,0.0,0.0,0.0,0.0,0.0,-4.1574,-4.5785,-4.8065,-4.8885,-4.9667,-5.0375,-5.0505,-5.056,-5.0557,-5.0669,-5.0744,-5.0763,-5.0763,-5.0325,-4.9757,-4.9757,-4.915,-4.8452,-4.8471,-4.8378,-4.8287,-4.8287,-4.8306,-4.8306,-4.8306,-4.8306,-4.7939,-4.6526,-4.6214,-4.6012,-4.5333,-4.4525,-4.4085,-4.447,-4.1919,-3.8542,0.0,-3.3018,-3.1874,-3.1384,-3.1035,-3.0613,-3.0032,-3.0381,0.0,-2.8282,-2.8301,-2.8745,-2.9446,-3.0949,-3.274,-3.4841,-3.8443,-4.1133,-4.2626,-4.5829,-4.7583,-4.7678,-4.894,-4.9802,-5.0236,-4.9942,-4.9968,-5.0302,-5.0302,-5.0359,-5.0569,-5.2117,-5.2862,-5.3091,-5.4734,-5.5403,-5.5403,-5.5403,-5.5403,-5.5403,-5.5403,-5.5403,-5.5403,-3.723,-3.9369,-4.1126,-4.127,-4.3733,-4.616,-4.7606,-4.7515,-4.8098,-5.0361,-5.2063,-5.3313,-5.4001,-5.4309,-5.449,-5.449,-5.449,-5.4092,-5.3132,-5.3331,-5.3078,-5.2118,-5.1574,-5.1158,-5.0886,-4.6703,-4.3715,-4.2086,-3.6526,-3.2777,0.0,0.0,0.0,0.0,0.0,0.0,-3.9667,-4.2923,-4.5745,-4.8063,-4.8885,-4.9625,-5.0304,-5.1103,-5.1355,-5.1399,-5.2124,-5.1633,-5.0643,-5.0643,-5.0593,-5.0582,-5.0582,-4.9953,-4.9233,-4.9332,-4.8816,-4.8246,-4.8287,-4.8306,-4.8306,-4.8306,-4.8306,-4.8233,-4.7939,-4.7884,-4.7847,-4.77,-4.7021,-4.5883,-4.4048,-4.1075,-3.845,-3.7088,-3.606,-3.5862,-3.7037,-3.5445,-3.4362,-3.4945,-3.3935,-3.2284,-3.0008,-2.9434,-2.8986,-2.8418,-2.867,-3.0563,-3.4454,-3.5833,-3.8214,-4.1933,-4.4672,-4.6388,-4.7052,-4.7951,-4.8909,-4.9884,-4.983,-4.9968,-5.0302,-5.0302,-5.0684,-5.1429,-5.2384,-5.3206,-5.3951,-5.4982,-5.5403,-5.5403,-5.5403,-5.5403,-5.5403,-5.5403,-5.5403,-5.5403,-4.1089,-4.2502,-4.3823,-4.4655,-4.6776,-4.8912,-5.0524,-5.1466,-5.1991,-5.1919,-5.2589,-5.3222,-5.3603,-5.4399,-5.4907,-5.4907,-5.4907,-5.4744,-5.4345,-5.4327,-5.3965,-5.315,-5.2752,-5.2154,-5.1303,-4.8206,-4.5381,-4.2901,-3.8192,-3.4425,-3.1582,0.0,0.0,0.0,0.0,-3.6343,0.0,-4.3792,-4.6225,-4.8571,-4.9789,-5.0729,-5.1447,-5.1896,-5.2055,-5.2064,-5.2495,-5.2203,-5.1639,-5.1721,-5.1508,-5.1224,-5.1224,-5.0675,-5.0017,-5.0035,-4.9742,-4.934,-4.8881,-4.8753,-4.8681,-4.8338,-4.8247,-4.8267,-4.8287,-4.8286,-4.8267,-4.8287,-4.7955,-4.6928,-4.4544,-4.1827,-3.968,-3.8888,-3.8065,-3.7826,-3.8597,-3.7312,-3.6138,-3.5665,0.0,0.0,-3.0467,-2.9971,-2.9107,-2.7454,-2.7815,-2.9572,-3.2973,-3.4638,-3.7281,-4.1147,-4.3721,-4.5632,-4.6895,-4.7535,-4.8399,-4.9541,-4.9363,-4.956,-5.0051,-5.0051,-5.0608,-5.1627,-5.2442,-5.3282,-5.418,-5.504,-5.5403,-5.5403,-5.5403,-5.5403,-5.5403,-5.5403,-5.5403,-5.5403,-4.4711,-4.5508,-4.6576,-4.8188,-4.9945,-5.1593,-5.3023,-5.5251,-5.5975,-5.3784,-5.3639,-5.382,-5.3983,-5.4997,-5.5649,-5.5649,-5.5486,-5.5323,-5.5142,-5.5142,-5.478,-5.4001,-5.3784,-5.3114,-5.1828,-5.0071,-4.7283,-4.3426,-4.0238,-3.6544,-3.2433,0.0,0.0,0.0,0.0,-3.8211,-4.2356,-4.4603,-4.7047,-4.9528,-5.0778,-5.1774,-5.2498,-5.2498,-5.2498,-5.2498,-5.2498,-5.2531,-5.2586,-5.2694,-5.2342,-5.1857,-5.1857,-5.1371,-5.0775,-5.0672,-5.0587,-5.0355,-4.9654,-4.9341,-4.907,-4.853,-4.8296,-4.8169,-4.8209,-4.8208,-4.8169,-4.8229,-4.7914,-4.7035,-4.5059,-4.3004,-4.1262,-4.0304,-3.9625,-3.9276,-3.9441,-3.8469,-3.7257,-3.594,0.0,0.0,-3.098,-2.9953,-2.8796,-2.7226,-2.7534,-2.8926,-3.157,-3.3894,-3.6788,-4.0419,-4.2759,-4.4755,-4.6423,-4.6954,-4.7897,-4.9193,-4.8934,-4.9113,-4.9702,-4.9702,-5.0413,-5.1675,-5.2387,-5.3328,-5.4428,-5.5116,-5.5403,-5.5403,-5.5403,-5.5403,-5.5403,-5.5403,-5.5403,-5.5403,-4.721,-4.8004,-4.9075,-5.0669,-5.2896,-5.4725,-5.554,-5.7713,-5.8655,-5.6971,-5.7387,-5.813,-5.8872,-5.842,-5.8076,-5.8076,-5.7406,-5.6681,-5.5939,-5.5884,-5.5558,-5.4834,-5.4092,-5.3639,-5.3476,-5.1176,-4.8369,-4.5073,-4.1868,-3.7867,-3.3284,-3.314,-3.381,-3.5261,-3.8501,-4.1415,-4.3987,-4.5671,-4.8206,-5.1086,-5.123,-5.1774,-5.2498,-5.2498,-5.2498,-5.2498,-5.2498,-5.2498,-5.2503,-5.2503,-5.2608,-5.2696,-5.2696,-5.2102,-5.1435,-5.1471,-5.09,-5.0235,-5.0283,-4.9779,-4.9177,-4.9104,-4.8559,-4.8012,-4.8032,-4.8032,-4.8012,-4.8032,-4.6844,-4.5586,-4.4748,-4.3833,-4.2697,-4.1242,-4.0912,-4.1132,-4.1864,-4.001,-3.8524,-3.8377,0.0,0.0,-3.2472,-2.9078,-2.7446,-2.8675,-2.7504,-2.8114,-3.1268,-3.3051,-3.5823,-3.9847,-4.1613,-4.3269,-4.4888,-4.5662,-4.7,-4.885,-4.8816,-4.8982,-4.9363,-4.9363,-5.0247,-5.1801,-5.2176,-5.3463,-5.5288,-5.5365,-5.5403,-5.5403,-5.5403,-5.5403,-5.5403,-5.5403,-5.5403,-5.5403,-5.114,-5.1176,-5.1864,-5.4399,-5.487,-5.5468,-5.717,-5.8257,-5.8655,-5.8003,-5.8619,-5.9253,-5.9561,-5.9307,-5.9126,-5.9126,-5.8836,-5.8293,-5.7496,-5.7442,-5.688,-5.5613,-5.5251,-5.487,-5.4436,-5.2516,-5.0434,-4.817,-4.4476,-4.0944,-3.7614,-3.6218,-3.6417,-3.8101,-4.1252,-4.3733,-4.5671,-4.7772,-4.9673,-5.1339,-5.1828,-5.2208,-5.2498,-5.2498,-5.2498,-5.2498,-5.2498,-5.2498,-5.2498,-5.2498,-5.2549,-5.2618,-5.2618,-5.2404,-5.2154,-5.215,-5.1896,-5.1554,-5.1078,-5.0693,-5.0243,-4.9364,-4.8912,-4.853,-4.8101,-4.797,-4.7947,-4.7992,-4.6715,-4.5531,-4.5259,-4.3834,-4.2643,-4.2513,-4.2092,-4.2054,-4.291,-4.1282,-3.9873,-3.9478,0.0,-3.478,-3.3458,-3.0558,-2.9237,-3.0356,-2.7163,-2.6778,-3.0485,-3.1751,-3.4229,-3.8337,-4.0487,-4.2581,-4.4673,-4.5498,-4.6765,-4.8495,-4.8495,-4.8694,-4.9036,-4.9486,-5.0742,-5.2569,-5.3426,-5.4273,-5.5052,-5.5305,-5.5403,-5.5403,-5.5403,-5.5403,-5.5403,-5.5403,-5.5403,-5.5403,-5.4218,-5.3911,-5.4381,-5.708,-5.6645,-5.6573,-5.8456,-5.8746,-5.8746,-5.8746,-5.9253,-5.9615,-5.9615,-5.9398,-5.9253,-5.9253,-5.9035,-5.8655,-5.8076,-5.8275,-5.7786,-5.641,-5.6337,-5.5993,-5.5233,-5.3892,-5.2299,-5.0456,-4.7355,-4.4512,-4.1886,-4.022,-4.0183,-4.1615,-4.4313,-4.6269,-4.7681,-4.9641,-5.0927,-5.1701,-5.2263,-5.2498,-5.2498,-5.2498,-5.2498,-5.2498,-5.2498,-5.2498,-5.2498,-5.2498,-5.2498,-5.2498,-5.2498,-5.2531,-5.2559,-5.2503,-5.2531,-5.2431,-5.1815,-5.1466,-5.1036,-5.0,-4.9386,-4.8898,-4.8379,-4.7907,-4.7618,-4.7666,-4.64,-4.5334,-4.5526,-4.3871,-4.2575,-4.2921,-4.2736,-4.268,-4.3025,-4.1837,-4.0648,-3.9926,-3.7286,-3.5174,-3.4234,-3.177,-3.0723,-3.2021,-2.8723,-2.8117,-3.1427,-3.2155,-3.4211,-3.808,-4.0543,-4.2745,-4.4673,-4.5736,-4.6948,-4.8306,-4.8306,-4.842,-4.8695,-4.975,-5.1192,-5.2924,-5.4002,-5.4604,-5.4821,-5.5113,-5.5286,-5.5403,-5.5403,-5.5403,-5.5403,-5.5403,-5.5403,-5.5403,-5.583,-5.5957,-5.6464,-5.8094,-5.8365,-5.8637,-5.947,-5.9597,-5.9597,-5.9597,-5.9597,-5.9615,-5.9615,-5.8891,-5.842,-5.842,-5.7695,-5.7224,-5.7224,-5.7967,-5.8039,-5.7224,-5.7188,-5.6808,-5.5993,-5.5251,-5.3693,-5.1285,-5.0456,-4.8409,-4.5236,-4.52,-4.5635,-4.6486,-4.8134,-4.9293,-5.0112,-5.0923,-5.1737,-5.248,-5.2498,-5.2498,-5.2498,-5.2498,-5.2498,-5.2498,-5.2498,-5.2498,-5.2498,-5.2498,-5.2498,-5.2498,-5.2498,-5.2498,-5.2498,-5.2498,-5.2498,-5.2498,-5.248,-5.19,-5.1285,-5.1267,-5.0071,-4.8891,-4.8894,-4.7855,-4.6908,-4.6908,-4.5641,-4.4724,-4.5368,-4.4177,-4.285,-4.214,-4.2793,-4.3066,-4.2138,-4.1422,-4.0668,-3.9811,-3.6157,-3.4064,-3.4899,-3.2087,-3.1201,-3.3587,-3.2981,-3.3206,-3.4844,-3.4949,-3.6472,-3.9769,-4.2194,-4.3864,-4.4691,-4.6287,-4.748,-4.8306,-4.8306,-4.8306,-4.8361,-5.0031,-5.1408,-5.2549,-5.3348,-5.4121,-5.4791,-5.4806,-5.5038,-5.5403,-5.5403,-5.5403,-5.5403,-5.5403,-5.5403,-5.5403,-5.7478,-5.7641,-5.7967,-5.9035,-5.8764,-5.8492,-5.8746,-5.8329,-5.7967,-5.7967,-5.7967,-5.7967,-5.7967,-5.8709,-5.9216,-5.9216,-5.8981,-5.8601,-5.8058,-5.8257,-5.8039,-5.7243,-5.7188,-5.708,-5.6808,-5.6047,-5.5269,-5.449,-5.2643,-5.0361,-4.7753,-4.7753,-4.7877,-4.8203,-4.9818,-5.0669,-5.0981,-5.1774,-5.2263,-5.2498,-5.2498,-5.2498,-5.2498,-5.2498,-5.2498,-5.2498,-5.2498,-5.2498,-5.2498,-5.2498,-5.2498,-5.2498,-5.2498,-5.2498,-5.2498,-5.2498,-5.2498,-5.2498,-5.2498,-5.2299,-5.1991,-5.143,-5.0488,-4.9564,-4.9039,-4.7855,-4.6908,-4.6908,-4.6047,-4.5326,-4.5359,-4.4574,-4.3556,-4.2457,-4.2775,-4.3014,-4.2408,-4.1487,-4.0784,-4.0542,-3.8025,-3.6402,-3.667,-3.4729,-3.3793,-3.4564,-3.3353,-3.306,-3.4137,-3.5789,-3.7165,-3.8227,-4.1679,-4.3883,-4.4691,-4.6305,-4.7498,-4.8306,-4.8306,-4.8912,-5.005,-5.1114,-5.2114,-5.3011,-5.3492,-5.3833,-5.4086,-5.4588,-5.4884,-5.5023,-5.5286,-5.5403,-5.5403,-5.5403,-5.5403,-5.5358,-5.8365,-5.8402,-5.8456,-5.8655,-5.8275,-5.7949,-5.7949,-5.7514,-5.7188,-5.7188,-5.7188,-5.7188,-5.7188,-5.8094,-5.8709,-5.8709,-5.8709,-5.8492,-5.7985,-5.8239,-5.8039,-5.7243,-5.7496,-5.7514,-5.7206,-5.6699,-5.6301,-5.5993,-5.4255,-5.2643,-5.1135,-5.1135,-5.1135,-5.119,-5.2208,-5.2643,-5.2679,-5.3186,-5.3403,-5.3403,-5.3403,-5.3403,-5.3403,-5.3403,-5.3403,-5.3403,-5.3403,-5.3403,-5.3403,-5.3403,-5.3204,-5.2951,-5.2951,-5.2733,-5.2498,-5.2498,-5.2498,-5.2498,-5.2498,-5.2498,-5.2371,-5.1864,-5.114,-5.0145,-4.8649,-4.7252,-4.6358,-4.6548,-4.5951,-4.5374,-4.5296,-4.4579,-4.359,-4.2503,-4.2474,-4.2408,-4.2008,-4.1104,-4.0472,-4.037,-3.8878,-3.7842,-3.7873,-3.7246,-3.6967,-3.7279,-3.6637,-3.6468,-3.6964,-3.7327,-3.819,-3.9714,-4.278,-4.4782,-4.559,-4.6892,-4.7791,-4.8306,-4.8636,-4.9646,-5.1261,-5.1756,-5.2435,-5.3206,-5.3402,-5.3584,-5.3739,-5.419,-5.4557,-5.4821,-5.5066,-5.5273,-5.539,-5.5214,-5.5168,-5.5113,-5.8456,-5.8329,-5.8076,-5.7333,-5.7188,-5.7188,-5.7188,-5.7188,-5.7188,-5.7188,-5.7188,-5.7188,-5.7188,-5.7188,-5.7188,-5.7188,-5.7188,-5.7188,-5.7188,-5.7895,-5.7985,-5.7224,-5.7913,-5.7967,-5.7224,-5.7188,-5.6826,-5.6066,-5.5341,-5.4979,-5.4979,-5.4925,-5.4907,-5.4907,-5.4907,-5.4907,-5.4907,-5.4907,-5.4907,-5.4907,-5.4907,-5.4907,-5.4907,-5.4907,-5.4907,-5.4907,-5.4907,-5.4907,-5.4907,-5.4907,-5.4399,-5.3784,-5.3784,-5.3277,-5.2643,-5.2516,-5.2498,-5.2498,-5.2498,-5.2498,-5.2498,-5.2498,-5.1859,-5.0559,-4.7901,-4.6308,-4.5503,-4.5943,-4.5446,-4.5012,-4.5287,-4.4291,-4.3173,-4.2371,-4.192,-4.1531,-4.1098,-4.0488,-3.9983,-3.9709,-3.9026,-3.8597,-3.8645,-3.9491,-4.0288,-4.0859,-4.1702,-4.2178,-4.2122,-3.9386,-3.957,-4.3386,-4.5112,-4.6342,-4.7094,-4.7901,-4.8343,-4.8398,-4.9335,-5.0565,-5.1995,-5.205,-5.2491,-5.3185,-5.3185,-5.338,-5.3662,-5.3701,-5.4103,-5.4731,-5.4761,-5.4976,-5.5292,-5.4899,-5.4761,-5.4697,-5.7514,-5.7478,-5.7424,-5.7224,-5.7188,-5.7188,-5.7188,-5.7188,-5.7188,-5.7188,-5.7188,-5.7188,-5.7188,-5.7188,-5.7188,-5.7188,-5.7188,-5.7188,-5.7188,-5.7369,-5.7387,-5.7206,-5.7387,-5.7387,-5.7188,-5.7188,-5.7098,-5.6917,-5.612,-5.574,-5.5721,-5.516,-5.4907,-5.4907,-5.4907,-5.4907,-5.4907,-5.4907,-5.4907,-5.4907,-5.4907,-5.4907,-5.4907,-5.4907,-5.4907,-5.4907,-5.4907,-5.4907,-5.4907,-5.4907,-5.478,-5.4617,-5.4617,-5.449,-5.4092,-5.286,-5.2498,-5.2498,-5.2498,-5.2498,-5.2498,-5.2498,-5.1549,-5.0037,-4.7801,-4.6734,-4.6088,-4.5581,-4.5329,-4.5294,-4.5566,-4.4565,-4.3449,-4.2701,-4.1996,-4.1516,-4.1388,-4.1111,-4.1026,-4.1288,-4.0666,-4.0242,-4.0259,-4.1006,-4.0822,-3.9161,-4.0347,-4.0911,-4.0355,-4.0811,-4.1834,-4.3442,-4.5663,-4.6911,-4.7094,-4.7901,-4.8636,-4.9317,-5.0767,-5.1628,-5.2013,-5.2637,-5.3023,-5.3185,-5.3185,-5.3248,-5.3336,-5.3584,-5.3796,-5.3979,-5.4313,-5.4482,-5.4546,-5.4446,-5.4361,-5.4223,-5.7188,-5.7188,-5.7188,-5.7188,-5.7188,-5.7188,-5.7188,-5.7514,-5.775,-5.775,-5.8076,-5.8166,-5.7786,-5.775,-5.7605,-5.7224,-5.7188,-5.7188,-5.7188,-5.7188,-5.7188,-5.7188,-5.7188,-5.7188,-5.7188,-5.7188,-5.7188,-5.7188,-5.6754,-5.6536,-5.6536,-5.6138,-5.5957,-5.5957,-5.5957,-5.5957,-5.5957,-5.5957,-5.5957,-5.5957,-5.5957,-5.5957,-5.5957,-5.5957,-5.5957,-5.5957,-5.5957,-5.5957,-5.5957,-5.5957,-5.5703,-5.5395,-5.5395,-5.5178,-5.4744,-5.3856,-5.3331,-5.3041,-5.3041,-5.277,-5.2498,-5.2498,-5.1251,-4.9751,-4.8624,-4.7452,-4.648,-4.5947,-4.5845,-4.5745,-4.5405,-4.4325,-4.3223,-4.2457,-4.1504,-4.088,-4.0942,-4.0856,-4.1038,-4.1723,-4.1523,-4.1449,-4.1831,-4.2267,-4.2012,-4.0681,-4.1392,-4.1883,-4.1844,-4.3121,-4.4088,-4.458,-4.6232,-4.7278,-4.7626,-4.8489,-4.9499,-5.0712,-5.1593,-5.2179,-5.2564,-5.3004,-5.3185,-5.3185,-5.3185,-5.3185,-5.3206,-5.34,-5.3545,-5.372,-5.3944,-5.4141,-5.4262,-5.4015,-5.3888,-5.3758,-5.7188,-5.7297,-5.7387,-5.7387,-5.7478,-5.755,-5.755,-5.8148,-5.8583,-5.8583,-5.918,-5.9343,-5.8655,-5.8583,-5.8257,-5.7442,-5.7387,-5.7333,-5.7206,-5.7188,-5.7188,-5.7188,-5.7188,-5.7188,-5.7188,-5.7188,-5.7188,-5.7188,-5.7188,-5.7188,-5.7188,-5.7188,-5.7188,-5.7188,-5.7188,-5.7188,-5.7188,-5.7188,-5.7188,-5.7188,-5.7188,-5.7188,-5.7188,-5.7188,-5.7188,-5.7188,-5.7188,-5.7188,-5.7188,-5.7188,-5.6736,-5.6174,-5.6174,-5.574,-5.5251,-5.5251,-5.4689,-5.4001,-5.3766,-5.3049,-5.2345,-5.2251,-5.0926,-4.9608,-4.9486,-4.8167,-4.6881,-4.6608,-4.645,-4.613,-4.5284,-4.3967,-4.2829,-4.2279,-4.1022,-4.0188,-4.0447,-4.0425,-4.0761,-4.1824,-4.2067,-4.2467,-4.334,-4.3487,-4.3524,-4.3524,-4.3524,-4.3816,-4.4526,-4.5441,-4.5955,-4.603,-4.6856,-4.7663,-4.8489,-4.9462,-5.0657,-5.1995,-5.2105,-5.2546,-5.3185,-5.3185,-5.3185,-5.3185,-5.3185,-5.3185,-5.3185,-5.3185,-5.3359,-5.3585,-5.3585,-5.3795,-5.4034,-5.3549,-5.3372,-5.3291,-5.7188,-5.775,-5.8202,-5.8202,-5.8782,-5.9235,-5.9235,-5.9343,-5.9416,-5.9416,-5.9524,-5.9561,-5.9434,-5.9416,-5.909,-5.8275,-5.8202,-5.7931,-5.7243,-5.7188,-5.7188,-5.7188,-5.7188,-5.7188,-5.7188,-5.7188,-5.7188,-5.7188,-5.7188,-5.7188,-5.7188,-5.7188,-5.7188,-5.7188,-5.7188,-5.7188,-5.7188,-5.7188,-5.7188,-5.7188,-5.7188,-5.7188,-5.7188,-5.7188,-5.7188,-5.7188,-5.7188,-5.7188,-5.7188,-5.7188,-5.7116,-5.7007,-5.7007,-5.6935,-5.6844,-5.6844,-5.6265,-5.5359,-5.4055,-5.275,-5.1601,-5.1113,-5.041,-4.9671,-4.9076,-4.8299,-4.756,-4.6886,-4.627,-4.5914,-4.6217,-4.4162,-4.2663,-4.3399,-4.1594,-4.04,-4.1191,-4.0965,-4.1323,-4.2947,-4.3161,-4.3647,-4.4836,-4.4968,-4.4968,-4.4968,-4.4968,-4.508,-4.5323,-4.6106,-4.6602,-4.6663,-4.7605,-4.8526,-4.939,-5.0896,-5.1738,-5.1995,-5.2692,-5.3096,-5.3185,-5.3185,-5.3185,-5.3185,-5.3185,-5.3185,-5.3185,-5.3185,-5.3167,-5.3109,-5.3109,-5.3069,-5.3008,-5.294,-5.2835,-5.2729,-5.8402,-5.8565,-5.8709,-5.8999,-5.9597,-5.9941,-5.9651,-5.9977,-6.0267,-6.0267,-6.0629,-6.0738,-6.0303,-6.0267,-5.9923,-5.9126,-5.9054,-5.8709,-5.7895,-5.7442,-5.7188,-5.7188,-5.7188,-5.7188,-5.7188,-5.7188,-5.7188,-5.7188,-5.7188,-5.7188,-5.7188,-5.7188,-5.7188,-5.7188,-5.7188,-5.7188,-5.7188,-5.7188,-5.7188,-5.7188,-5.7188,-5.7188,-5.7188,-5.7188,-5.7188,-5.7188,-5.7188,-5.7188,-5.7188,-5.7188,-5.7188,-5.7188,-5.7188,-5.7188,-5.7188,-5.7188,-5.6627,-5.569,-5.4194,-5.3046,-5.2116,-5.15,-5.0624,-4.9804,-4.9459,-4.8911,-4.8291,-4.7547,-4.7124,-4.6709,-4.6164,-4.468,-4.3559,-4.3572,-4.1963,-4.0924,-4.1608,-4.1531,-4.1771,-4.2829,-4.3561,-4.4207,-4.4812,-4.5132,-4.5291,-4.5291,-4.5291,-4.551,-4.6023,-4.6444,-4.7104,-4.802,-4.8526,-4.9393,-5.0675,-5.1486,-5.2113,-5.2535,-5.2981,-5.3185,-5.3185,-5.3185,-5.3185,-5.3185,-5.3185,-5.3185,-5.3185,-5.3124,-5.306,-5.2999,-5.2934,-5.285,-5.2783,-5.2721,-5.2635,-5.259,-5.9488,-5.9434,-5.9398,-5.9814,-6.0375,-6.0629,-6.0231,-6.0683,-6.1073,-6.1073,-6.1616,-6.1743,-6.1154,-6.1073,-6.0774,-5.9959,-5.9887,-5.9542,-5.8728,-5.8094,-5.7587,-5.7224,-5.7188,-5.7188,-5.7188,-5.7188,-5.7188,-5.7188,-5.7188,-5.7188,-5.7188,-5.7188,-5.7188,-5.7188,-5.7188,-5.7188,-5.7188,-5.7188,-5.7188,-5.7188,-5.7188,-5.7188,-5.7188,-5.7188,-5.7188,-5.7188,-5.7188,-5.7188,-5.7188,-5.7188,-5.7188,-5.7188,-5.7188,-5.7188,-5.7188,-5.7188,-5.6754,-5.5984,-5.4569,-5.3548,-5.2653,-5.1906,-5.0841,-4.9909,-4.9737,-4.9333,-4.8849,-4.8291,-4.8007,-4.7534,-4.643,-4.5466,-4.4643,-4.3956,-4.2654,-4.1826,-4.21,-4.2058,-4.225,-4.2887,-4.3849,-4.4609,-4.5027,-4.5323,-4.559,-4.5832,-4.5732,-4.5983,-4.6737,-4.7057,-4.7951,-4.9571,-4.9716,-5.0344,-5.1584,-5.1889,-5.2352,-5.2937,-5.306,-5.3121,-5.3121,-5.3121,-5.3121,-5.3121,-5.3121,-5.3121,-5.31,-5.2999,-5.2955,-5.2893,-5.2806,-5.2739,-5.2735,-5.2608,-5.2563,-5.2581,-5.9597,-6.0176,-6.0683,-6.072,-6.1371,-6.1851,-6.1815,-6.1869,-6.1906,-6.1906,-6.1942,-6.1978,-6.1906,-6.1906,-6.158,-6.0792,-6.072,-6.0375,-5.9561,-5.947,-5.8764,-5.7261,-5.7188,-5.7188,-5.7188,-5.7188,-5.7188,-5.7188,-5.7188,-5.7188,-5.7188,-5.7188,-5.7188,-5.7188,-5.7188,-5.7188,-5.7188,-5.7188,-5.7188,-5.7188,-5.7188,-5.7188,-5.7188,-5.7188,-5.7188,-5.7188,-5.7188,-5.7188,-5.7188,-5.7188,-5.7188,-5.7188,-5.7188,-5.7188,-5.7188,-5.7188,-5.7152,-5.6834,-5.5471,-5.4061,-5.2684,-5.1448,-5.0604,-4.9924,-4.9215,-4.9032,-4.8984,-4.8934,-4.8392,-4.7855,-4.7753,-4.6599,-4.5535,-4.5201,-4.4075,-4.3158,-4.2953,-4.2535,-4.2729,-4.394,-4.4163,-4.4876,-4.6567,-4.6301,-4.6459,-4.7455,-4.7056,-4.703,-4.7588,-4.8333,-4.9474,-5.109,-5.133,-5.1474,-5.1602,-5.235,-5.2751,-5.2806,-5.2828,-5.2828,-5.2828,-5.2828,-5.2828,-5.2828,-5.2828,-5.2828,-5.2846,-5.2806,-5.2743,-5.2613,-5.2613,-5.2581,-5.2521,-5.2521,-5.2521,-5.2521,-6.1009,-6.1308,-6.1525,-6.1525,-6.1797,-6.1996,-6.1996,-6.1996,-6.1996,-6.1996,-6.1996,-6.1996,-6.1996,-6.1996,-6.1869,-6.1562,-6.1525,-6.1181,-6.0412,-6.0357,-5.9633,-5.8003,-5.746,-5.7188,-5.7188,-5.7188,-5.7188,-5.7188,-5.7188,-5.7188,-5.7188,-5.7188,-5.7188,-5.7188,-5.7188,-5.7188,-5.7188,-5.7188,-5.7188,-5.7188,-5.7188,-5.7188,-5.7188,-5.7188,-5.7188,-5.7188,-5.7188,-5.7188,-5.7188,-5.7188,-5.7188,-5.7188,-5.7188,-5.7188,-5.7188,-5.7188,-5.7188,-5.7109,-5.658,-5.5106,-5.3538,-5.2675,-5.1278,-5.0016,-4.9746,-4.9323,-4.9001,-4.9001,-4.8781,-4.846,-4.7973,-4.7432,-4.6878,-4.63,-4.5066,-4.4111,-4.3997,-4.342,-4.3162,-4.3649,-4.4404,-4.5148,-4.5833,-4.6024,-4.6456,-4.7317,-4.7209,-4.7536,-4.8586,-4.9749,-5.0669,-5.1267,-5.1864,-5.2164,-5.2164,-5.2486,-5.2676,-5.2676,-5.2761,-5.2806,-5.2806,-5.2806,-5.2806,-5.2806,-5.2806,-5.2806,-5.2783,-5.2698,-5.2654,-5.2608,-5.2559,-5.2526,-5.2498,-5.2498,-5.2498,-5.2498,-6.1869,-6.1996,-6.1996,-6.1996,-6.1996,-6.1996,-6.1996,-6.1996,-6.1996,-6.1996,-6.1996,-6.1996,-6.1996,-6.1996,-6.1996,-6.1996,-6.1996,-6.1761,-6.12,-6.0955,-6.0194,-5.8836,-5.8257,-5.784,-5.7587,-5.7587,-5.7442,-5.7188,-5.7188,-5.7188,-5.7188,-5.7188,-5.7188,-5.7188,-5.7188,-5.7188,-5.7188,-5.7188,-5.7188,-5.7188,-5.7188,-5.7188,-5.7188,-5.7188,-5.7188,-5.7188,-5.7188,-5.7188,-5.7188,-5.7188,-5.7188,-5.7188,-5.7188,-5.7188,-5.7188,-5.7188,-5.7188,-5.7188,-5.7188,-5.6045,-5.4708,-5.4057,-5.2628,-5.1271,-5.0864,-5.0189,-4.96,-4.9371,-4.9171,-4.8849,-4.8359,-4.8257,-4.8003,-4.7276,-4.6295,-4.5551,-4.5326,-4.4823,-4.4485,-4.4485,-4.5254,-4.5829,-4.6017,-4.6186,-4.6656,-4.7497,-4.7421,-4.7908,-4.9213,-5.0211,-5.0946,-5.138,-5.1939,-5.2298,-5.2498,-5.2554,-5.2581,-5.2581,-5.2649,-5.2712,-5.2712,-5.2712,-5.2712,-5.2712,-5.2712,-5.2712,-5.269,-5.2604,-5.2581,-5.2559,-5.2526,-5.2498,-5.2498,-5.2498,-5.2498,-5.2498,-6.1996,-6.1996,-6.1996,-6.1996,-6.1996,-6.1996,-6.1996,-6.1996,-6.1996,-6.1996,-6.1996,-6.1996,-6.1996,-6.1996,-6.1996,-6.1996,-6.1996,-6.1996,-6.1996,-6.1236,-6.0466,-5.9651,-5.9615,-5.9235,-5.8438,-5.8402,-5.8021,-5.7206,-5.7206,-5.7206,-5.7188,-5.7188,-5.7188,-5.7188,-5.7188,-5.7188,-5.7188,-5.7188,-5.7188,-5.7188,-5.7188,-5.7188,-5.7188,-5.7188,-5.7188,-5.7188,-5.7188,-5.7188,-5.7188,-5.7188,-5.7188,-5.7188,-5.7188,-5.7188,-5.7188,-5.7188,-5.7188,-5.7188,-5.7188,-5.6758,-5.6133,-5.5384,-5.4689,-5.3853,-5.2515,-5.1622,-5.0926,-5.0241,-4.9526,-4.9018,-4.9018,-4.9001,-4.8765,-4.8024,-4.7889,-4.7618,-4.6904,-4.6786,-4.6786,-4.6786,-4.6786,-4.7003,-4.7537,-4.7101,-4.7244,-4.833,-4.7904,-4.8179,-4.9433,-4.9521,-5.0153,-5.1558,-5.1576,-5.1884,-5.2475,-5.2498,-5.2498,-5.2498,-5.2498,-5.2498,-5.2498,-5.2498,-5.2498,-5.2498,-5.2498,-5.2498,-5.2498,-5.2498,-5.2498,-5.2498,-5.2498,-5.2498,-5.2498,-5.2498,-5.2498,-5.2498,-6.1996,-6.1996,-6.1996,-6.1996,-6.1996,-6.1996,-6.1996,-6.1996,-6.1996,-6.1996,-6.1996,-6.1996,-6.1996,-6.1996,-6.1996,-6.1996,-6.1996,-6.1996,-6.1996,-6.1761,-6.1525,-6.1272,-6.0212,-5.9488,-5.9253,-5.9253,-5.8854,-5.8039,-5.8039,-5.775,-5.7188,-5.7188,-5.7188,-5.7188,-5.7188,-5.7188,-5.7188,-5.7188,-5.7188,-5.7188,-5.7188,-5.7188,-5.7188,-5.7188,-5.7188,-5.7188,-5.7188,-5.7188,-5.7188,-5.7188,-5.7188,-5.7188,-5.7188,-5.7188,-5.7188,-5.7188,-5.7188,-5.7188,-5.7188,-5.7061,-5.6783,-5.6134,-5.4757,-5.3549,-5.3591,-5.2339,-5.1242,-5.1518,-5.0598,-4.9763,-4.9763,-4.9357,-4.8934,-4.8714,-4.8257,-4.7804,-4.7614,-4.7124,-4.6786,-4.6786,-4.6786,-4.6874,-4.7031,-4.6886,-4.7153,-4.7996,-4.8753,-4.9389,-4.9767,-5.012,-5.0532,-5.0964,-5.0982,-5.1061,-5.1235,-5.2072,-5.2498,-5.2498,-5.2498,-5.2498,-5.2498,-5.2498,-5.2498,-5.2498,-5.2498,-5.2498,-5.2498,-5.2498,-5.2498,-5.2498,-5.2498,-5.2498,-5.2498,-5.2498,-5.286,-5.3331,-6.1996,-6.1996,-6.1996,-6.1996,-6.1996,-6.1996,-6.1996,-6.1996,-6.1996,-6.1996,-6.1996,-6.1996,-6.1996,-6.1996,-6.1996,-6.1996,-6.1996,-6.1996,-6.1996,-6.1996,-6.1996,-6.1996,-6.1082,-6.0412,-6.0086,-6.0086,-5.9687,-5.8872,-5.8872,-5.8456,-5.7677,-5.7677,-5.7496,-5.7188,-5.7188,-5.7188,-5.7188,-5.7188,-5.7188,-5.7188,-5.7188,-5.7188,-5.7188,-5.7188,-5.7188,-5.7188,-5.7188,-5.7188,-5.7188,-5.7188,-5.7188,-5.7188,-5.7188,-5.7188,-5.7188,-5.7188,-5.7188,-5.7188,-5.7188,-5.7188,-5.7112,-5.6758,-5.5755,-5.4878,-5.4991,-5.3642,-5.2427,-5.258,-5.152,-5.0439,-5.0135,-4.9729,-4.934,-4.9052,-4.8646,-4.8359,-4.8359,-4.7953,-4.7665,-4.7665,-4.7665,-4.7665,-4.7665,-4.7665,-4.7851,-4.8308,-4.9095,-4.9555,-4.9555,-4.9855,-5.0153,-5.0359,-5.0387,-5.0497,-5.0697,-5.1651,-5.2138,-5.2138,-5.2387,-5.2498,-5.2498,-5.2498,-5.2498,-5.2498,-5.2498,-5.2498,-5.2498,-5.2498,-5.2498,-5.2498,-5.2498,-5.2498,-5.2498,-5.2498,-5.2806,-5.3222,-6.1996,-6.1996,-6.1996,-6.1996,-6.1996,-6.1996,-6.1996,-6.1996,-6.1996,-6.1996,-6.1996,-6.1996,-6.1996,-6.1996,-6.1996,-6.1996,-6.1996,-6.1996,-6.1996,-6.1996,-6.1996,-6.1996,-6.1996,-6.1652,-6.0937,-6.0919,-6.052,-5.9724,-5.9724,-5.9307,-5.851,-5.851,-5.8112,-5.7406,-5.7333,-5.7297,-5.7297,-5.7224,-5.7188,-5.7188,-5.7188,-5.7188,-5.7188,-5.7188,-5.7188,-5.7188,-5.7188,-5.7188,-5.7188,-5.7188,-5.7188,-5.7188,-5.7188,-5.7188,-5.7188,-5.7188,-5.7188,-5.7188,-5.7188,-5.7188,-5.7188,-5.7188,-5.7188,-5.7061,-5.6501,-5.5309,-5.4151,-5.3589,-5.2369,-5.1163,-5.0437,-5.0236,-4.9949,-4.9221,-4.9103,-4.9086,-4.9018,-4.9001,-4.9001,-4.9001,-4.9001,-4.9001,-4.9001,-4.9001,-4.9001,-4.9001,-4.9001,-4.9001,-4.9001,-4.9001,-4.926,-4.9803,-4.9832,-5.0056,-5.0535,-5.1131,-5.15,-5.1619,-5.2209,-5.2498,-5.2498,-5.2498,-5.2498,-5.2498,-5.2498,-5.2498,-5.2498,-5.2498,-5.2498,-5.2498,-5.2498,-5.2498,-5.2498,-5.2498,-5.2552,-5.2625,-6.1996,-6.1996,-6.1996,-6.1996,-6.1996,-6.1996,-6.1996,-6.1996,-6.1996,-6.1996,-6.1996,-6.1996,-6.1996,-6.1996,-6.1996,-6.1996,-6.1996,-6.1996,-6.1996,-6.1996,-6.1996,-6.1996,-6.1996,-6.1906,-6.1725,-6.1725,-6.1344,-6.0557,-6.0557,-6.014,-5.9343,-5.9343,-5.9253,-5.9054,-5.842,-5.8148,-5.8094,-5.746,-5.7188,-5.7188,-5.7188,-5.7188,-5.7188,-5.7188,-5.7188,-5.7188,-5.7188,-5.7188,-5.7188,-5.7188,-5.7188,-5.7188,-5.7188,-5.7188,-5.7188,-5.7188,-5.7188,-5.7188,-5.7188,-5.7188,-5.7188,-5.7188,-5.7188,-5.7181,-5.7036,-5.6041,-5.5092,-5.4991,-5.381,-5.2638,-5.1941,-5.1352,-5.0727,-4.9965,-4.9847,-4.9661,-4.9086,-4.9001,-4.9001,-4.9001,-4.9001,-4.9001,-4.9001,-4.9001,-4.9001,-4.9001,-4.9001,-4.9001,-4.9001,-4.9001,-4.9063,-4.9199,-4.9199,-4.9243,-4.9376,-4.9959,-5.0723,-5.1619,-5.2209,-5.2498,-5.2498,-5.2498,-5.2498,-5.2498,-5.2498,-5.2498,-5.2498,-5.2498,-5.2498,-5.2498,-5.2498,-5.2498,-5.2498,-5.2498,-5.2896,-5.353,-6.1996,-6.1996,-6.1996,-6.1996,-6.1996,-6.1996,-6.1996,-6.1996,-6.1996,-6.1996,-6.1996,-6.1996,-6.1996,-6.1996,-6.1996,-6.1996,-6.1996,-6.1996,-6.1996,-6.1996,-6.1996,-6.1996,-6.1996,-6.1996,-6.1996,-6.1996,-6.1779,-6.1362,-6.1362,-6.0946,-6.0176,-6.0176,-5.9977,-5.9579,-5.9162,-5.8981,-5.8945,-5.8528,-5.8347,-5.8347,-5.8347,-5.8347,-5.8347,-5.8347,-5.8347,-5.8293,-5.7913,-5.7532,-5.7188,-5.7188,-5.7188,-5.7188,-5.7188,-5.7188,-5.7188,-5.7188,-5.7188,-5.7188,-5.7188,-5.7188,-5.7188,-5.7188,-5.7188,-5.7188,-5.7188,-5.6501,-5.5733,-5.5443,-5.4544,-5.3513,-5.2482,-5.1995,-5.1488,-5.0744,-5.0625,-5.049,-5.0118,-4.9746,-4.9526,-4.9526,-4.9221,-4.9001,-4.9001,-4.9001,-4.9001,-4.9001,-4.9001,-4.9001,-4.9001,-4.9323,-4.9526,-4.9526,-4.9881,-5.0067,-5.0067,-5.0647,-5.1263,-5.1839,-5.2093,-5.2386,-5.2743,-5.2743,-5.2743,-5.2725,-5.2644,-5.2605,-5.2569,-5.2532,-5.2498,-5.2498,-5.2498,-5.2498,-5.2552,-5.2933,-5.3585,-5.4327,-6.1996,-6.1996,-6.1996,-6.1996,-6.1996,-6.1996,-6.1996,-6.1996,-6.1996,-6.1996,-6.1996,-6.1996,-6.1996,-6.1996,-6.1996,-6.1996,-6.1996,-6.1996,-6.1996,-6.1996,-6.1996,-6.1996,-6.1996,-6.1996,-6.1996,-6.1996,-6.1996,-6.1996,-6.1996,-6.1652,-6.1,-6.1,-6.0665,-6.0013,-5.9868,-5.9814,-5.9814,-5.9669,-5.9615,-5.9615,-5.9615,-5.9615,-5.9615,-5.9615,-5.9615,-5.9524,-5.8854,-5.8184,-5.7587,-5.7442,-5.7406,-5.7387,-5.7243,-5.7188,-5.7188,-5.7188,-5.7188,-5.7188,-5.7188,-5.7188,-5.7188,-5.7188,-5.7188,-5.7188,-5.7188,-5.6811,-5.6284,-5.5676,-5.5039,-5.417,-5.2915,-5.2552,-5.2266,-5.1522,-5.1403,-5.132,-5.1202,-5.0676,-5.0287,-5.0287,-4.9746,-4.939,-4.939,-4.939,-4.939,-4.939,-4.939,-4.939,-4.939,-4.9965,-5.0287,-5.0287,-5.0896,-5.1185,-5.1185,-5.1705,-5.2004,-5.2138,-5.2027,-5.2378,-5.3134,-5.3134,-5.3134,-5.3127,-5.2963,-5.2834,-5.2682,-5.2564,-5.2537,-5.2498,-5.2498,-5.2498,-5.2589,-5.3403,-5.4291,-5.5088,-6.1996,-6.1996,-6.1996,-6.1996,-6.1996,-6.1996,-6.1996,-6.1996,-6.1996,-6.1996,-6.1996,-6.1996,-6.1996,-6.1996,-6.1996,-6.1996,-6.1996,-6.1996,-6.1996,-6.1996,-6.1996,-6.1996,-6.1996,-6.1996,-6.1996,-6.1996,-6.1996,-6.1996,-6.1996,-6.1924,-6.1833,-6.1833,-6.1761,-6.1634,-6.0955,-6.0647,-6.0593,-5.9905,-5.9615,-5.9615,-5.9615,-5.9615,-5.9615,-5.9615,-5.9615,-5.9597,-5.9488,-5.9379,-5.918,-5.8474,-5.8239,-5.8112,-5.7424,-5.7188,-5.7188,-5.7188,-5.7188,-5.7188,-5.7188,-5.7188,-5.7188,-5.7188,-5.7188,-5.7188,-5.7188,-5.7138,-5.6915,-5.6311,-5.5705,-5.5022,-5.4253,-5.3695,-5.3078,-5.2283,-5.2147,-5.1944,-5.1269,-5.11,-5.1065,-5.1065,-5.0948,-5.0913,-5.0913,-5.0913,-5.0913,-5.0913,-5.0913,-5.0913,-5.0913,-5.1014,-5.1065,-5.1065,-5.1134,-5.1185,-5.1185,-5.1265,-5.1651,-5.2261,-5.2257,-5.2801,-5.378,-5.378,-5.378,-5.3762,-5.3753,-5.3333,-5.2692,-5.2679,-5.2592,-5.2498,-5.2498,-5.2498,-5.2589,-5.3403,-5.4617,-5.5848,-6.1996,-6.1996,-6.1996,-6.1996,-6.1996,-6.1996,-6.1996,-6.1996,-6.1996,-6.1996,-6.1996,-6.1996,-6.1996,-6.1996,-6.1996,-6.1996,-6.1996,-6.1996,-6.1996,-6.1996,-6.1996,-6.1996,-6.1996,-6.1996,-6.1996,-6.1996,-6.1996,-6.1996,-6.1996,-6.1996,-6.1996,-6.1996,-6.1996,-6.1978,-6.1616,-6.1453,-6.1435,-6.11,-6.0955,-6.0955,-6.0955,-6.0955,-6.0955,-6.0955,-6.0955,-6.0883,-6.0448,-5.9995,-5.9561,-5.9198,-5.9072,-5.9017,-5.8655,-5.8239,-5.7876,-5.7876,-5.755,-5.7188,-5.7188,-5.7188,-5.7188,-5.7188,-5.7188,-5.7188,-5.7188,-5.7188,-5.7036,-5.642,-5.609,-5.5601,-5.461,-5.4171,-5.3778,-5.3077,-5.2976,-5.2858,-5.2536,-5.2114,-5.1674,-5.1236,-5.1185,-5.1185,-5.1185,-5.1185,-5.1185,-5.1185,-5.1185,-5.1185,-5.1185,-5.1606,-5.1826,-5.1826,-5.2266,-5.2486,-5.2486,-5.2486,-5.2655,-5.2976,-5.2976,-5.3215,-5.3684,-5.4039,-5.4168,-5.418,-5.4453,-5.4126,-5.3359,-5.3297,-5.2955,-5.2498,-5.2498,-5.3041,-5.3929,-5.4689,-5.5703,-5.6609]},{"header":{"parameterUnit":"m.s-1","parameterCategory":1,"la1":30.6,"la2":28.766,"lo1":-90.7593,"lo2":-88.6598,"dy":0.0162,"dx":0.0183,"nx":116,"ny":114,"refTime":"2024-05-30T06:00:00:Z","depth":0,"parameterNumber":3,"parameterNumberName":"V-component_of_WINDS"},"data":[0.0,0.0,0.0,0.0,0.0,0.0,0.0,0.0,0.0,0.0,0.0,0.0,0.0,0.0,0.0,0.0,0.0,0.0,0.0,0.0,0.0,0.0,0.0,0.0,0.0,0.0,0.0,0.0,0.0,0.0,0.0,0.0,0.0,0.0,0.0,0.0,0.0,0.0,0.0,0.0,0.0,0.0,0.0,0.0,0.0,0.0,0.0,0.0,0.0,0.0,0.0,0.0,0.0,0.0,0.0,0.0,0.0,0.0,0.0,0.0,0.0,0.0,0.0,0.0,0.0,0.0,0.0,0.0,0.0,0.0,0.0,0.0,0.0,0.0,0.0,0.0,0.0,0.0,0.0,0.0,0.0,0.0,0.0,0.0,0.0,0.0,0.0,0.0,0.0,0.0,0.0,0.0,0.0,0.0,0.0,0.0,0.0,0.0,0.0,0.0,0.0,0.0,0.0,0.0,0.0,0.0,0.0,0.0,0.0,0.0,0.0,0.0,0.0,0.0,0.0,0.0,0.0,0.0,0.0,0.0,0.0,0.0,0.0,0.0,0.0,0.0,0.0,0.0,0.0,0.0,0.0,0.0,0.0,0.0,0.0,0.0,0.0,0.0,0.0,0.0,0.0,0.0,0.0,0.0,0.0,0.0,0.0,0.0,0.0,0.0,0.0,0.0,0.0,0.0,0.0,0.0,0.0,0.0,0.0,0.0,0.0,0.0,0.0,0.0,0.0,0.0,0.0,0.0,0.0,0.0,0.0,0.0,0.0,0.0,0.0,0.0,0.0,0.0,0.0,0.0,0.0,0.0,0.0,0.0,0.0,0.0,0.0,0.0,0.0,0.0,0.0,0.0,0.0,0.0,0.0,0.0,0.0,0.0,0.0,0.0,0.0,0.0,0.0,0.0,0.0,0.0,0.0,0.0,0.0,0.0,0.0,0.0,0.0,0.0,0.0,0.0,0.0,0.0,0.0,0.0,0.0,0.0,0.0,0.0,0.0,0.0,0.0,0.0,0.0,0.0,0.0,0.0,0.0,0.0,0.0,0.0,0.0,0.0,0.0,0.0,0.0,0.0,0.0,0.0,0.0,0.0,0.0,0.0,0.0,0.0,0.0,0.0,0.0,0.0,0.0,0.0,0.0,0.0,0.0,0.0,0.0,0.0,0.0,0.0,0.0,0.0,0.0,0.0,0.0,0.0,0.0,0.0,0.0,0.0,0.0,0.0,0.0,0.0,0.0,0.0,0.0,0.0,0.0,0.0,0.0,0.0,0.0,0.0,0.0,0.0,0.0,0.0,0.0,0.0,0.0,0.0,0.0,0.0,0.0,0.0,0.0,0.0,0.0,0.0,0.0,0.0,0.0,0.0,0.0,0.0,0.0,0.0,0.0,0.0,0.0,0.0,0.0,0.0,0.0,0.0,0.0,0.0,0.0,0.0,0.0,0.0,0.0,0.0,0.0,0.0,0.0,0.0,0.0,0.0,0.0,0.0,0.0,0.0,0.0,0.0,0.0,0.0,0.0,0.0,0.0,0.0,0.0,0.0,0.0,0.0,0.0,0.0,0.0,0.0,0.0,0.0,0.0,0.0,0.0,0.0,0.0,0.0,0.0,0.0,0.0,0.0,0.0,0.0,0.0,0.0,0.0,0.0,0.0,0.0,0.0,0.0,0.0,0.0,0.0,0.0,0.0,0.0,0.0,0.0,0.0,0.0,0.0,0.0,0.0,0.0,0.0,0.0,0.0,0.0,0.0,0.0,0.0,0.0,0.0,0.0,0.0,0.0,0.0,0.0,0.0,0.0,0.0,0.0,0.0,0.0,0.0,0.0,0.0,0.0,0.0,0.0,0.0,0.0,0.0,0.0,0.0,0.0,0.0,0.0,0.0,0.0,0.0,0.0,0.0,0.0,0.0,0.0,0.0,0.0,0.0,0.0,0.0,0.0,0.0,0.0,0.0,0.0,0.0,0.0,0.0,0.0,0.0,0.0,0.0,0.0,0.0,0.0,0.0,0.0,0.0,0.0,0.0,0.0,0.0,0.0,0.0,0.0,0.0,0.0,0.0,0.0,0.0,0.0,0.0,0.0,0.0,0.0,0.0,0.0,0.0,0.0,0.0,0.0,0.0,0.0,0.0,0.0,0.0,0.0,0.0,0.0,0.0,0.0,0.0,0.0,0.0,0.0,0.0,0.0,0.0,0.0,0.0,0.0,0.0,0.0,0.0,0.0,0.0,0.0,0.0,0.0,0.0,0.0,0.0,0.0,0.0,0.0,0.0,0.0,0.0,0.0,0.0,0.0,0.0,0.0,0.0,0.0,0.0,0.0,0.0,0.0,0.0,0.0,0.0,0.0,0.0,0.0,0.0,0.0,0.0,0.0,0.0,0.0,0.0,0.0,0.0,0.0,0.0,0.0,0.0,0.0,0.0,0.0,0.0,0.0,0.0,0.0,0.0,0.0,0.0,0.0,0.0,0.0,0.0,0.0,0.0,0.0,0.0,0.0,0.0,0.0,0.0,0.0,0.0,0.0,0.0,0.0,0.0,0.0,0.0,0.0,0.0,0.0,0.0,0.0,0.0,0.0,0.0,0.0,0.0,0.0,0.0,0.0,0.0,0.0,0.0,0.0,0.0,0.0,0.0,0.0,0.0,0.0,0.0,0.0,0.0,0.0,0.0,0.0,0.0,0.0,0.0,0.0,0.0,0.0,0.0,0.0,0.0,0.0,0.0,0.0,0.0,0.0,0.0,0.0,0.0,0.0,0.0,0.0,0.0,0.0,0.0,0.0,0.0,0.0,0.0,0.0,0.0,0.0,0.0,0.0,0.0,0.0,0.0,0.0,0.0,0.0,0.0,0.0,0.0,0.0,0.0,0.0,0.0,0.0,0.0,0.0,0.0,0.0,0.0,0.0,0.0,0.0,0.0,0.0,0.0,0.0,0.0,0.0,0.0,0.0,0.0,0.0,0.0,0.0,0.0,0.0,0.0,0.0,0.0,0.0,0.0,0.0,0.0,0.0,0.0,0.0,0.0,0.0,0.0,0.0,0.0,0.0,0.0,0.0,0.0,0.0,0.0,0.0,0.0,0.0,0.0,0.0,0.0,0.0,0.0,0.0,0.0,0.0,0.0,0.0,0.0,0.0,0.0,0.0,0.0,0.0,0.0,0.0,0.0,0.0,0.0,0.0,0.0,0.0,0.0,0.0,0.0,0.0,0.0,0.0,0.0,0.0,0.0,0.0,0.0,0.0,0.0,0.0,0.0,0.0,0.0,0.0,0.0,0.0,0.0,0.0,0.0,0.0,0.0,0.0,0.0,0.0,0.0,0.0,0.0,0.0,0.0,0.0,0.0,0.0,0.0,0.0,0.0,0.0,0.0,0.0,0.0,0.0,0.0,0.0,0.0,0.0,0.0,0.0,0.0,0.0,0.0,0.0,0.0,0.0,0.0,0.0,0.0,0.0,0.0,0.0,0.0,0.0,0.0,0.0,0.0,0.0,0.0,0.0,0.0,0.0,0.0,0.0,0.0,0.0,0.0,0.0,0.0,0.0,0.0,0.0,0.0,0.0,0.0,0.0,0.0,0.0,0.0,0.0,0.0,0.0,0.0,0.0,0.0,0.0,0.0,0.0,0.0,0.0,0.0,0.0,0.0,0.0,0.0,0.0,0.0,0.0,0.0,0.0,0.0,0.0,0.0,0.0,0.0,0.0,0.0,0.0,0.0,0.0,0.0,0.0,0.0,0.0,0.0,0.0,0.0,0.0,0.0,0.0,0.0,0.0,0.0,0.0,0.0,0.0,0.0,0.0,0.0,0.0,0.0,0.0,0.0,0.0,0.0,0.0,0.0,0.0,0.0,0.0,0.0,0.0,0.0,0.0,0.0,0.0,0.0,0.0,0.0,0.0,0.0,0.0,0.0,0.0,0.0,0.0,0.0,0.0,0.0,0.0,0.0,0.0,0.0,0.0,0.0,0.0,0.0,0.0,0.0,0.0,0.0,0.0,0.0,0.0,0.0,0.0,0.0,0.0,0.0,0.0,0.0,0.0,0.0,0.0,0.0,0.0,0.0,0.0,0.0,0.0,0.0,0.0,0.0,0.0,0.0,0.0,0.0,0.0,0.0,0.0,0.0,0.0,0.0,0.0,0.0,0.0,0.0,0.0,0.0,0.0,0.0,0.0,0.0,0.0,0.0,0.0,0.0,0.0,0.0,0.0,0.0,0.0,0.0,0.0,0.0,0.0,0.0,0.0,0.0,0.0,0.0,0.0,0.0,0.0,0.0,0.0,0.0,0.0,0.0,0.0,0.0,0.0,0.0,0.0,0.0,0.0,0.0,0.0,0.0,0.0,0.0,0.0,0.0,0.0,0.0,0.0,0.0,0.0,0.0,0.0,0.0,0.0,0.0,0.0,0.0,0.0,0.0,0.0,0.0,0.0,0.0,0.0,0.0,0.0,0.0,0.0,0.0,0.0,0.0,0.0,0.0,0.0,0.0,0.0,0.0,0.0,0.0,0.0,0.0,0.0,0.0,0.0,0.0,0.0,0.0,0.0,0.0,0.0,0.0,0.0,0.0,0.0,0.0,0.0,0.0,0.0,0.0,0.0,0.0,0.0,0.0,0.0,0.0,0.0,0.0,0.0,0.0,0.0,0.0,0.0,0.0,0.0,0.0,0.0,0.0,0.0,0.0,0.0,0.0,0.0,0.0,0.0,0.0,0.0,0.0,0.0,0.0,0.0,0.0,0.0,0.0,0.0,0.0,0.0,0.0,0.0,0.0,0.0,0.0,0.0,0.0,0.0,0.0,0.0,0.0,0.0,0.0,0.0,0.0,0.0,0.0,0.0,0.0,0.0,0.0,0.0,0.0,0.0,0.0,0.0,0.0,0.0,0.0,0.0,0.0,0.0,0.0,0.0,0.0,0.0,0.0,0.0,0.0,0.0,0.0,0.0,0.0,0.0,0.0,0.0,0.0,0.0,0.0,0.0,0.0,0.0,0.0,0.0,0.0,0.0,0.0,0.0,0.0,0.0,0.0,0.0,0.0,0.0,0.0,0.0,0.0,0.0,0.0,0.0,0.0,0.0,0.0,0.0,0.0,0.0,0.0,0.0,0.0,0.0,0.0,0.0,0.0,0.0,0.0,0.0,0.0,0.0,0.0,0.0,0.0,0.0,0.0,0.0,0.0,0.0,0.0,0.0,0.0,0.0,0.0,0.0,0.0,0.0,0.0,0.0,0.0,0.0,0.0,0.0,0.0,0.0,0.0,0.0,0.0,0.0,0.0,0.0,0.0,0.0,0.0,0.0,0.0,0.0,0.0,0.0,0.0,0.0,0.0,0.0,0.0,0.0,0.0,0.0,0.0,0.0,0.0,0.0,0.0,0.0,0.0,0.0,0.0,0.0,0.0,0.0,0.0,0.0,0.0,0.0,0.0,0.0,0.0,0.0,0.0,0.0,0.0,0.0,0.0,0.0,0.0,0.0,0.0,0.0,0.0,0.0,0.0,0.0,0.0,0.0,0.0,0.0,0.0,0.0,0.0,0.0,0.0,0.0,0.0,0.0,0.0,0.0,0.0,0.0,0.0,0.0,0.0,0.0,0.0,0.0,0.0,0.0,0.0,0.0,0.0,0.0,0.0,0.0,0.0,0.0,0.0,0.0,0.0,0.0,0.0,0.0,0.0,0.0,0.0,0.0,0.0,0.0,0.0,0.0,0.0,0.0,0.0,0.0,0.0,0.0,0.0,0.0,0.0,0.0,0.0,0.0,0.0,0.0,0.0,0.0,0.0,0.0,0.0,0.0,0.0,0.0,0.0,0.0,0.0,0.0,0.0,0.0,0.0,0.0,0.0,0.0,0.0,0.0,0.0,0.0,0.0,0.0,0.0,0.0,0.0,0.0,0.0,0.0,0.0,0.0,0.0,0.0,0.0,0.0,0.0,0.0,0.0,0.0,0.0,0.0,0.0,0.0,0.0,0.0,0.0,0.0,0.0,0.0,0.0,0.0,0.0,0.0,0.0,0.0,0.0,0.0,0.0,0.0,0.0,0.0,0.0,0.0,0.0,0.0,0.0,0.0,0.0,0.0,0.0,0.0,0.0,0.0,0.0,0.0,0.0,0.0,0.3399,0.3374,0.0,0.0,0.0,0.0,0.0,0.0,0.0,0.0,0.0,0.0,0.0,0.0,0.0,0.0,0.0,0.0,0.0,0.0,0.0,0.0,0.0,0.0,0.0,0.3499,0.34,0.3495,0.34,0.3436,0.3678,0.0,0.0,0.0,0.0,0.0,0.3545,0.3672,0.3869,0.413,0.4296,0.4609,0.5015,0.4995,0.4827,0.4532,0.0,0.0,0.0,0.0,0.0,0.0,0.0,0.0,0.0,0.0,0.0,0.0,0.0,0.0,0.0,0.0,0.0,0.0,0.0,0.0,0.0,0.0,0.0,0.0,0.0,0.0,0.0,0.0,0.0,0.0,0.0,0.0,0.0,0.0,0.0,0.0,0.0,0.0,0.0,0.0,0.0,0.0,0.0,0.0,0.0,0.0,0.0,0.0,0.0,0.0,0.0,0.0,0.0,0.0,0.0,0.0,0.0,0.0,0.0,0.0,0.0,0.0,0.0,0.0,0.0,0.0,0.0,0.0,0.0,0.0,0.4164,0.3911,0.0,0.0,0.0,0.0,0.0,0.0,0.0,0.0,0.0,0.0,0.0,0.0,0.0,0.0,0.0,0.0,0.0,0.0,0.0,0.0,0.0,0.3583,0.3637,0.346,0.3455,0.3736,0.3667,0.37,0.3923,0.3783,0.0,0.0,0.0,0.3547,0.3586,0.3953,0.4382,0.4887,0.5139,0.5554,0.6094,0.67,0.6606,0.5903,0.5641,0.0,0.0,0.0,0.0,0.0,0.0,0.0,0.0,0.0,0.0,0.0,0.0,0.0,0.0,0.0,0.0,0.0,0.0,0.0,0.0,0.0,0.0,0.0,0.0,0.0,0.0,0.0,0.0,0.0,0.0,0.0,0.0,0.0,0.0,0.0,0.0,0.0,0.0,0.0,0.0,0.0,0.0,0.0,0.0,0.0,0.0,0.0,0.0,0.0,0.0,0.0,0.0,0.0,0.0,0.0,0.0,0.0,0.0,0.0,0.0,0.0,0.0,0.0,0.6207,0.6369,0.6535,0.6371,0.6434,0.66,0.5184,0.473,0.4965,0.4946,0.0,0.0,0.0,0.0,0.0,0.0,0.0,0.0,0.0,0.0,0.0,0.0,0.0,0.0,0.0,0.0,0.0,0.0,0.0,0.393,0.4172,0.4016,0.4144,0.4747,0.4316,0.4044,0.4076,0.3792,0.0,0.0,0.3556,0.3754,0.3938,0.4429,0.4868,0.5239,0.6512,0.7301,0.7626,0.8237,0.8457,0.829,0.6994,0.629,0.6034,0.0,0.0,0.0,0.0,0.0,0.0,0.0,0.0,0.0,0.0,0.0,0.0,0.0,0.0,0.0,0.0,0.0,0.0,0.0,0.0,0.0,0.0,0.0,0.0,0.0,0.0,0.0,0.0,0.0,0.0,0.0,0.0,0.0,0.0,0.0,0.0,0.0,0.0,0.0,0.0,0.0,0.4218,0.4414,0.0,0.0,0.0,0.0,0.0,0.0,0.0,0.0,0.0,0.0,0.0,0.0,0.0,0.5875,0.5875,0.6431,0.6721,0.6741,0.7197,0.7404,0.7424,0.6584,0.6685,0.7402,0.6396,0.0,0.605,0.5434,0.0,0.0,0.0,0.0,0.0,0.0,0.0,0.0,0.0,0.0,0.0,0.0,0.0,0.0,0.0,0.0,0.0,0.0,0.0,0.0,0.0,0.4374,0.4492,0.4849,0.475,0.4502,0.413,0.4213,0.4036,0.3499,0.3911,0.4153,0.4169,0.4918,0.5788,0.6767,0.7909,0.8505,0.8651,0.9105,0.9299,0.9272,0.8617,0.7889,0.7108,0.6358,0.0,0.0,0.0,0.0,0.0,0.0,0.0,0.0,0.0,0.0,0.0,0.0,0.0,0.0,0.0,0.0,0.0,0.0,0.0,0.0,0.0,0.0,0.0,0.0,0.0,0.0,0.0,0.0,0.0,0.0,0.0,0.0,0.0,0.0,0.0,0.0,0.0,0.0,0.0,0.4066,0.4535,0.4606,0.4659,0.4624,0.0,0.0,0.0,0.0,0.0,0.0,0.0,0.0,0.0,0.6332,0.5967,0.5834,0.6019,0.5721,0.5603,0.5663,0.5858,0.6011,0.6075,0.567,0.5718,0.6075,0.567,0.5428,0.542,0.5964,0.6163,0.6098,0.0,0.0,0.0,0.0,0.6,0.6071,0.0,0.0,0.0,0.0,0.0,0.0,0.0,0.0,0.0,0.0,0.0,0.0,0.4788,0.4892,0.5033,0.5308,0.5281,0.5068,0.4615,0.4602,0.4346,0.3783,0.4151,0.4393,0.4424,0.5626,0.6873,0.8132,0.9084,0.955,0.9557,0.996,1.0127,1.012,1.0003,0.9339,0.8298,0.7428,0.6727,0.6113,0.0,0.0,0.0,0.0,0.0,0.0,0.0,0.0,0.0,0.0,0.0,0.0,0.0,0.0,0.0,0.0,0.0,0.0,0.0,0.0,0.0,0.0,0.0,0.0,0.0,0.0,0.0,0.0,0.0,0.0,0.0,0.0,0.0,0.0,0.0,0.0,0.0,0.4385,0.4816,0.4857,0.5159,0.5214,0.0,0.0,0.0,0.0,0.0,0.0,0.6349,0.6233,0.6366,0.6751,0.5833,0.5444,0.5647,0.4951,0.4674,0.4734,0.4734,0.482,0.4884,0.4884,0.4884,0.4884,0.4884,0.4847,0.4858,0.5905,0.6242,0.6083,0.614,0.5981,0.5745,0.627,0.6418,0.6392,0.0,0.0,0.0,0.0,0.0,0.0,0.0,0.0,0.0,0.0,0.0,0.5013,0.5663,0.5796,0.6092,0.6735,0.6094,0.5744,0.5892,0.4742,0.4077,0.4167,0.4076,0.425,0.4766,0.6753,0.8105,0.8764,0.9956,1.0526,1.0539,1.1069,1.1302,1.1282,1.0794,1.0204,0.9539,0.8683,0.8103,0.7692,0.6507,0.0,0.0,0.0,0.0,0.0,0.0,0.0,0.0,0.0,0.0,0.0,0.0,0.0,0.0,0.0,0.0,0.0,0.0,0.0,0.0,0.0,0.0,0.0,0.0,0.0,0.0,0.0,0.0,0.0,0.0,0.0,0.0,0.0,0.0,0.0,0.0,0.0,0.0,0.5344,0.5715,0.0,0.0,0.0,0.0,0.6221,0.6375,0.6719,0.7316,0.6377,0.5995,0.6333,0.5291,0.4732,0.4791,0.4827,0.4872,0.4876,0.4876,0.488,0.4884,0.4884,0.4884,0.4884,0.4884,0.4882,0.4869,0.481,0.4617,0.4436,0.541,0.51,0.419,0.5373,0.5823,0.5839,0.0,0.0,0.0,0.0,0.0,0.39,0.39,0.39,0.3927,0.4035,0.4673,0.5232,0.5507,0.6147,0.6536,0.651,0.6368,0.6071,0.5584,0.5378,0.5212,0.5039,0.5359,0.6043,0.7102,0.8004,0.8965,0.9963,1.0385,1.0787,1.1122,1.1295,1.1389,1.1382,1.1209,1.1002,1.0722,0.9437,0.8657,0.8163,0.7467,0.6566,0.0,0.0,0.0,0.0,0.0,0.0,0.0,0.0,0.0,0.0,0.0,0.0,0.0,0.0,0.0,0.0,0.0,0.0,0.0,0.0,0.0,0.0,0.0,0.0,0.0,0.0,0.0,0.0,0.0,0.0,0.0,0.0,0.0,0.0,0.0,0.0,0.0,0.6071,0.6393,0.0,0.6325,0.6441,0.6651,0.6996,0.7112,0.7417,0.7972,0.7601,0.7594,0.7962,0.6072,0.5113,0.528,0.3736,0.2955,0.2955,0.2955,0.3408,0.4142,0.3351,0.3408,0.4199,0.4199,0.4199,0.425,0.4954,0.5467,0.592,0.7092,0.7237,0.6913,0.7363,0.7532,0.7538,0.0,0.0,0.0,0.0,0.39,0.39,0.39,0.39,0.4019,0.433,0.4875,0.5404,0.5853,0.6385,0.6607,0.6425,0.638,0.6162,0.567,0.5816,0.5831,0.5572,0.623,0.7201,0.8516,0.8998,0.9726,1.0734,1.0941,1.1229,1.1577,1.1677,1.1688,1.1717,1.1623,1.1577,1.1503,1.0403,0.9646,0.9099,0.8512,0.7695,0.6778,0.0,0.0,0.0,0.0,0.0,0.0,0.0,0.0,0.0,0.0,0.0,0.0,0.0,0.0,0.0,0.0,0.0,0.0,0.0,0.0,0.0,0.0,0.0,0.0,0.0,0.0,0.0,0.0,0.0,0.0,0.0,0.0,0.0,0.0,0.5764,0.6217,0.6515,0.6949,0.7149,0.6946,0.7156,0.7407,0.7706,0.777,0.8021,0.8472,0.8124,0.8081,0.8451,0.6478,0.5516,0.5691,0.4055,0.3236,0.3236,0.3236,0.3646,0.4465,0.3587,0.3704,0.4465,0.4465,0.4465,0.4578,0.5801,0.6566,0.7073,0.7704,0.7728,0.7478,0.7846,0.7954,0.8006,0.0,0.0,0.0,0.3986,0.39,0.39,0.39,0.39,0.4238,0.5165,0.5176,0.5557,0.6748,0.6522,0.6386,0.6565,0.6169,0.6025,0.6304,0.5997,0.5798,0.5789,0.6606,0.7645,0.8844,0.9706,1.0428,1.1022,1.1625,1.1906,1.1926,1.2171,1.2305,1.2291,1.2047,1.1919,1.1899,1.1577,1.1122,1.0553,0.9604,0.9044,0.8619,0.0,0.0,0.0,0.0,0.0,0.0,0.0,0.0,0.0,0.0,0.0,0.0,0.0,0.0,0.0,0.0,0.0,0.0,0.0,0.0,0.0,0.0,0.0,0.0,0.0,0.0,0.0,0.0,0.0,0.0,0.0,0.0,0.0,0.6014,0.6421,0.6722,0.6739,0.738,0.7709,0.748,0.7797,0.8119,0.8279,0.8344,0.8486,0.8871,0.7835,0.7328,0.768,0.6516,0.5875,0.5877,0.5821,0.5819,0.5819,0.5819,0.5821,0.5877,0.5821,0.5821,0.5877,0.5877,0.5877,0.5936,0.7163,0.7688,0.7594,0.718,0.6324,0.5541,0.6595,0.6965,0.712,0.0,0.0,0.4473,0.3983,0.39,0.39,0.39,0.39,0.4145,0.4844,0.5039,0.5396,0.616,0.6286,0.6306,0.6323,0.6049,0.6178,0.6828,0.6386,0.6516,0.7483,0.8447,0.9308,1.0097,1.0521,1.1042,1.1665,1.1826,1.2013,1.2184,1.2265,1.2305,1.2298,1.2218,1.2184,1.2178,1.2091,1.185,1.1464,1.0579,0.9827,0.9212,0.0,0.0,0.0,0.0,0.0,0.0,0.0,0.0,0.0,0.0,0.0,0.0,0.0,0.0,0.0,0.0,0.0,0.0,0.0,0.0,0.0,0.0,0.0,0.0,0.0,0.0,0.0,0.0,0.0,0.0,0.0,0.6071,0.6454,0.6494,0.678,0.7136,0.7574,0.7803,0.8028,0.8163,0.8289,0.8472,0.8733,0.8757,0.8903,0.9242,0.8969,0.8881,0.9061,0.7757,0.7199,0.7336,0.6368,0.5885,0.5885,0.5885,0.6368,0.7276,0.6308,0.6429,0.7339,0.7339,0.7339,0.7391,0.8569,0.9068,0.9049,0.8823,0.8543,0.8323,0.8503,0.8459,0.8372,0.0,0.4654,0.4453,0.3983,0.39,0.39,0.39,0.39,0.4223,0.5106,0.5156,0.5405,0.6208,0.6212,0.6107,0.5965,0.5909,0.6114,0.6618,0.6731,0.7361,0.865,0.945,1.014,1.076,1.1182,1.159,1.2087,1.2087,1.2138,1.2305,1.2305,1.2305,1.2305,1.2305,1.2305,1.2305,1.2305,1.2204,1.1997,1.1397,1.0789,1.0241,0.9607,0.9101,0.8654,0.8159,0.7841,0.7591,0.7017,0.0,0.0,0.0,0.0,0.0,0.0,0.0,0.0,0.0,0.0,0.0,0.0,0.0,0.0,0.0,0.0,0.0,0.0,0.0,0.0,0.0,0.0,0.0,0.0,0.6726,0.7119,0.7244,0.7361,0.7624,0.8089,0.8245,0.8387,0.856,0.8689,0.8835,0.9015,0.9086,0.9228,0.9462,0.9476,0.9544,0.9693,0.8909,0.8579,0.8714,0.7917,0.7548,0.7548,0.7548,0.7917,0.8653,0.7917,0.7978,0.8714,0.8714,0.8714,0.8769,0.9429,0.9696,0.9676,0.0,0.0,0.0,0.0,0.9195,0.9117,0.0,0.4635,0.4443,0.3983,0.39,0.39,0.39,0.39,0.4341,0.5576,0.5369,0.5497,0.6539,0.6259,0.5916,0.5746,0.5809,0.5952,0.6173,0.7223,0.8354,0.9487,0.9989,1.0488,1.1082,1.1672,1.2044,1.2305,1.2305,1.2318,1.2351,1.2351,1.2371,1.2405,1.2405,1.2405,1.2405,1.2365,1.2351,1.2325,1.2074,1.1737,1.1382,1.0699,1.0411,1.0288,0.9683,0.9169,0.8673,0.7923,0.0,0.0,0.0,0.0,0.0,0.0,0.0,0.0,0.0,0.0,0.0,0.0,0.0,0.0,0.0,0.0,0.0,0.0,0.0,0.0,0.0,0.0,0.0,0.0,0.7361,0.7756,0.8022,0.8066,0.8167,0.8303,0.8567,0.8743,0.8757,0.9015,0.9245,0.9262,0.933,0.9473,0.9625,0.9635,0.0,0.0,0.0,0.9822,0.9822,0.9822,0.9822,0.9822,0.9822,0.9822,0.9822,0.9822,0.9822,0.9822,0.9822,0.9822,0.9822,0.9822,0.9822,0.9795,0.9534,0.9422,0.9408,0.9408,0.9395,0.9361,0.0,0.4605,0.4394,0.3973,0.39,0.39,0.39,0.39,0.426,0.5267,0.5224,0.5404,0.6201,0.613,0.6144,0.6541,0.6007,0.6121,0.7208,0.8645,0.9701,1.0262,1.0752,1.1228,1.1725,1.2044,1.2245,1.2305,1.2305,1.2425,1.2697,1.2697,1.2831,1.3039,1.3039,1.3039,1.3019,1.2804,1.2697,1.2677,1.2338,1.2044,1.1744,1.1321,1.1042,1.083,1.0594,1.0269,0.9902,0.9407,0.8975,0.8596,0.828,0.7571,0.0,0.0,0.0,0.0,0.0,0.0,0.0,0.0,0.0,0.0,0.0,0.0,0.0,0.0,0.0,0.0,0.0,0.0,0.0,0.7248,0.7641,0.8052,0.8523,0.8581,0.8591,0.8621,0.8784,0.894,0.9111,0.9232,0.9388,0.951,0.9547,0.9629,0.9771,0.9781,0.9791,0.9822,0.9822,0.9822,0.9822,0.9822,0.9822,0.9822,0.9822,0.0,0.9822,0.9822,0.9822,0.9822,0.9822,0.9822,0.9822,0.9822,0.9822,0.9815,0.9758,0.9666,0.9564,0.9564,0.9486,0.9378,0.4922,0.4694,0.4455,0.415,0.3986,0.39,0.39,0.39,0.4245,0.5179,0.5238,0.5372,0.5854,0.599,0.5937,0.562,0.5886,0.6558,0.7767,0.9139,1.0208,1.0878,1.1247,1.1655,1.2035,1.2224,1.2305,1.2305,1.2489,1.2643,1.279,1.2945,1.306,1.3213,1.3213,1.3213,1.32,1.3046,1.2924,1.2808,1.2623,1.2388,1.2071,1.1917,1.1683,1.1436,1.1368,1.0982,1.0438,1.0027,0.9686,0.9315,0.8812,0.7982,0.7154,0.0,0.0,0.0,0.0,0.0,0.0,0.0,0.0,0.0,0.0,0.0,0.0,0.0,0.0,0.6282,0.6329,0.0,0.7276,0.7634,0.8018,0.8367,0.8669,0.8777,0.8825,0.8825,0.8954,0.9076,0.9204,0.9361,0.9527,0.9605,0.9676,0.9747,0.9819,0.9822,0.9822,0.9822,0.9822,0.9822,0.9822,0.9822,0.9822,0.9822,0.9822,0.9822,0.9822,0.9822,0.9822,0.9822,0.9822,0.9822,0.9822,0.9822,0.9822,0.9822,0.9822,0.9778,0.9717,0.9717,0.9666,0.9591,0.5108,0.4862,0.4594,0.4323,0.4068,0.39,0.39,0.39,0.4215,0.5091,0.5253,0.5374,0.5583,0.5892,0.5745,0.4826,0.6073,0.7323,0.8276,0.9357,1.0401,1.1375,1.161,1.1874,1.2201,1.2257,1.2305,1.2305,1.2583,1.2757,1.2878,1.3093,1.3273,1.338,1.338,1.338,1.338,1.332,1.312,1.2871,1.2811,1.2603,1.2305,1.2305,1.2158,1.198,1.1926,1.1421,1.0725,1.0374,1.0034,0.9655,0.9138,0.8326,0.7471,0.6887,0.5923,0.0,0.0,0.0,0.0,0.0,0.0,0.0,0.0,0.5845,0.6071,0.6215,0.6532,0.6797,0.6907,0.7238,0.7638,0.8058,0.835,0.8581,0.8733,0.8807,0.8885,0.8885,0.9093,0.9255,0.9255,0.9473,0.9649,0.9649,0.9754,0.9822,0.9822,0.9822,0.9822,0.9822,0.9822,0.9822,0.9822,0.9576,0.9451,0.9451,0.9451,0.9451,0.9454,0.9697,0.9822,0.9822,0.9822,0.9822,0.9822,0.9822,0.9822,0.9822,0.9822,0.9822,0.9822,0.9822,0.9822,0.9805,0.0,0.5146,0.4802,0.4299,0.4035,0.39,0.39,0.39,0.4134,0.477,0.5114,0.5381,0.5582,0.5896,0.6073,0.6013,0.7504,0.8651,0.9139,0.9841,1.0732,1.1781,1.1764,1.19,1.2281,1.2285,1.2305,1.2305,1.2338,1.2632,1.316,1.3193,1.3487,1.3988,1.3988,1.3988,1.3968,1.3666,1.3387,1.3133,1.2898,1.2603,1.2305,1.2305,1.2278,1.2218,1.2,1.149,1.0956,1.0922,1.0347,0.9655,0.98,0.9425,0.8771,0.8104,0.7104,0.6124,0.5706,0.5232,0.502,0.5545,0.5539,0.5748,0.0,0.7231,0.7116,0.7658,0.7777,0.782,0.7706,0.7838,0.8069,0.8381,0.8574,0.8737,0.8838,0.8871,0.8885,0.8885,0.9184,0.9354,0.9354,0.9625,0.9798,0.9798,0.9812,0.9822,0.9822,0.9822,0.9822,0.9822,0.9822,0.9822,0.9822,0.8653,0.8102,0.8102,0.8102,0.8102,0.8163,0.9268,0.9822,0.9822,0.9822,0.9822,0.9822,0.9822,0.9822,0.9822,0.9822,0.9822,0.9822,0.9822,0.9822,0.9819,0.0,0.5039,0.4684,0.4423,0.4209,0.4035,0.3921,0.39,0.4042,0.4451,0.4626,0.4827,0.51,0.5261,0.5565,0.609,0.7181,0.8124,0.8787,0.9868,1.0928,1.1918,1.1878,1.2088,1.2622,1.2415,1.2305,1.2305,1.2516,1.273,1.2985,1.3126,1.334,1.3581,1.3754,1.3734,1.3581,1.358,1.3373,1.2965,1.2837,1.2603,1.2285,1.2118,1.1944,1.1777,1.1657,1.1236,0.0,1.0453,1.0184,0.9994,0.9824,0.9356,0.8785,0.8426,0.769,0.6931,0.6689,0.6104,0.5632,0.6088,0.6415,0.6796,0.7467,0.769,0.7801,0.7941,0.8044,0.8058,0.7919,0.8136,0.8367,0.8581,0.8743,0.8811,0.8875,0.8885,0.8885,0.8885,0.912,0.934,0.9371,0.9574,0.9734,0.9815,0.9822,0.9822,0.9822,0.9822,0.9822,0.9822,0.9822,0.9454,0.8714,0.89,0.8653,0.7919,0.8653,0.9022,0.9022,0.9576,0.9822,0.9822,0.9822,0.9822,0.9822,0.9822,0.9822,0.9822,0.9822,0.9822,0.9822,0.9822,0.9822,0.9822,0.0,0.4981,0.4664,0.4525,0.4332,0.4135,0.3931,0.39,0.399,0.4269,0.4385,0.4603,0.5021,0.5075,0.5372,0.6093,0.6795,0.7586,0.8494,0.9628,1.0704,1.1693,1.1697,1.1977,1.2687,1.2403,1.2291,1.2378,1.2556,1.2703,1.279,1.3018,1.3126,1.322,1.3387,1.3367,1.3227,1.3393,1.322,1.2784,1.2784,1.2556,1.2151,1.1857,1.1516,1.1189,1.1189,1.0808,1.0287,0.9953,0.9875,0.9899,0.9618,0.918,0.8751,0.8592,0.7964,0.72,0.6861,0.6466,0.6224,0.6643,0.7161,0.7637,0.7771,0.8055,0.8277,0.816,0.819,0.822,0.8125,0.8309,0.8533,0.8686,0.8872,0.8984,0.8888,0.8974,0.8984,0.8888,0.9028,0.9171,0.9361,0.952,0.9666,0.9812,0.9822,0.9822,0.9822,0.9822,0.9822,0.9822,0.9822,0.9329,0.8407,0.8961,0.8836,0.7919,0.8839,0.9268,0.9268,0.9636,0.9822,0.9822,0.9822,0.9822,0.9822,0.9822,0.9822,0.9822,0.9822,0.9822,0.9822,0.9822,0.9822,0.9822,0.0,0.0,0.4882,0.4565,0.4332,0.4135,0.3931,0.39,0.399,0.4269,0.4582,0.5041,0.5692,0.5773,0.5912,0.6273,0.6852,0.7632,0.8633,0.9148,0.9917,1.0979,1.1042,1.1409,1.2183,1.2161,1.2269,1.2599,1.2422,1.2465,1.2784,1.2797,1.2958,1.3213,1.322,1.322,1.3213,1.322,1.3039,1.2784,1.2784,1.2435,1.1886,1.155,1.1082,1.062,1.062,1.0238,0.9735,0.9699,0.9398,0.9086,0.9317,0.9197,0.8943,0.8751,0.7885,0.6816,0.5912,0.6057,0.6613,0.713,0.7533,0.7943,0.8449,0.8575,0.8575,0.8435,0.8372,0.8375,0.8286,0.8384,0.8533,0.8686,0.8957,0.9096,0.8902,0.9059,0.9093,0.8898,0.8888,0.9062,0.9354,0.952,0.9666,0.9812,0.9822,0.9822,0.9822,0.9822,0.9822,0.9822,0.9822,0.9758,0.9761,0.8532,0.7919,0.7919,0.7919,0.7978,0.798,0.9207,0.9822,0.9822,0.9822,0.9822,0.9822,0.9822,0.9822,0.9822,0.9822,0.9822,0.9822,0.9822,0.9822,0.9822,0.0,0.0,0.0,0.4594,0.425,0.3973,0.3911,0.39,0.399,0.4269,0.4779,0.0,0.0,0.0,0.0,0.0,0.6856,0.7435,0.8004,0.898,0.9799,1.0386,1.0906,1.1361,1.1714,1.1785,1.1832,1.1787,1.1953,1.21,1.2208,1.2395,1.2505,1.2612,1.2851,1.2792,1.2625,1.2857,1.2764,1.2438,1.2275,1.208,1.1852,1.1323,1.0775,1.0241,0.0,0.9726,0.9331,0.9165,0.911,0.9147,0.9246,0.9069,0.8809,0.8528,0.8049,0.7529,0.7222,0.6947,0.6914,0.7583,0.7937,0.8196,0.8649,0.8747,0.8634,0.8342,0.8282,0.8203,0.8006,0.8089,0.8269,0.852,0.8811,0.9028,0.9076,0.9211,0.9249,0.91,0.9171,0.9273,0.9371,0.9429,0.9557,0.9802,0.9822,0.9822,0.9822,0.9822,0.9822,0.9822,0.9822,0.939,0.8532,0.8961,0.8714,0.7919,0.8775,0.9147,0.9147,0.9576,0.9822,0.9822,0.9822,0.9822,0.9822,0.9822,0.9822,0.9822,0.9822,0.9822,0.9822,0.9822,0.9822,0.9822,0.0,0.0,0.0,0.0,0.0,0.0,0.0,0.0,0.0,0.0,0.0,0.0,0.0,0.0,0.0,0.0,0.0,0.7056,0.7494,0.8391,0.9209,0.9819,1.0285,1.0773,1.1234,1.1173,1.1195,1.1282,1.1377,1.1491,1.1591,1.1744,1.1891,1.1997,1.2184,1.2171,1.2004,1.2191,1.2164,1.1964,1.1677,1.1531,1.137,1.078,1.0221,0.0,0.9472,0.9245,0.9031,0.8871,0.8904,0.9078,0.9101,0.9004,0.8721,0.8161,0.7927,0.7802,0.7579,0.7396,0.7358,0.7951,0.822,0.8458,0.8605,0.8632,0.8468,0.8129,0.802,0.796,0.7866,0.7907,0.8093,0.845,0.876,0.8988,0.919,0.9334,0.9405,0.9309,0.932,0.9401,0.9456,0.9462,0.9561,0.9802,0.9822,0.9822,0.9822,0.9822,0.9822,0.9822,0.9822,0.939,0.8593,0.939,0.939,0.8593,0.939,0.9822,0.9822,0.9822,0.9822,0.9822,0.9822,0.9822,0.9822,0.9822,0.9822,0.9822,0.9822,0.9822,0.9822,0.9822,0.9822,0.9822,0.0,0.0,0.0,0.0,0.0,0.0,0.0,0.0,0.0,0.0,0.0,0.0,0.0,0.0,0.0,0.0,0.0,0.0,0.7122,0.7494,0.8186,0.9263,0.9224,0.9667,1.07,1.0276,1.0371,1.1017,1.0717,1.0713,1.0949,1.0962,1.1122,1.1349,1.1349,1.1349,1.1349,1.1349,1.1349,1.1322,1.1062,1.0814,1.0506,0.993,0.9499,0.9178,0.8904,0.8818,0.8811,0.8824,0.8831,0.8891,0.9023,0.9003,0.8742,0.7849,0.766,0.7604,0.7087,0.7351,0.7876,0.8144,0.8472,0.8676,0.8471,0.8262,0.8101,0.7822,0.7726,0.7696,0.7823,0.7873,0.7999,0.8459,0.8735,0.8991,0.92,0.9429,0.9564,0.9412,0.9398,0.9459,0.9595,0.9615,0.9676,0.9812,0.9822,0.9822,0.9822,0.9822,0.9822,0.9822,0.9822,0.9822,0.9822,0.9822,0.9822,0.9822,0.9822,0.9822,0.9822,0.9822,0.9822,0.9822,0.9822,0.9822,0.9822,0.9822,0.9822,0.9822,0.9822,0.9822,0.9822,0.9822,0.9822,0.9822,0.0,0.0,0.0,0.0,0.0,0.0,0.0,0.0,0.0,0.0,0.0,0.0,0.0,0.0,0.0,0.0,0.0,0.0,0.6522,0.7265,0.7837,0.8121,0.8721,0.9213,0.9601,0.9632,0.9789,1.0055,1.0188,1.0267,1.0316,1.06,1.0747,1.0814,1.0814,1.0814,1.0814,1.0814,1.0814,1.0787,1.0461,1.0294,1.0194,0.982,0.9499,0.9204,0.9131,0.8964,0.8838,0.9031,0.9416,0.9879,1.0052,0.9809,0.933,0.8843,0.8334,0.7909,0.7764,0.7747,0.7934,0.8517,0.8403,0.8206,0.8244,0.8087,0.7784,0.742,0.7351,0.7243,0.6935,0.7218,0.7601,0.7808,0.8428,0.9028,0.9286,0.9581,0.9713,0.9568,0.9646,0.9683,0.9615,0.9703,0.9781,0.9819,0.9822,0.9822,0.9822,0.9822,0.9822,0.9822,0.9822,0.9822,0.9822,0.9822,0.9822,0.9822,0.9822,0.9822,0.9822,0.9822,0.9822,0.9822,0.9822,0.9822,0.9822,0.9822,0.9822,0.9822,0.9822,0.9822,0.9822,0.9822,0.9822,0.9822,0.0,0.0,0.0,0.0,0.0,0.0,0.0,0.0,0.0,0.0,0.0,0.0,0.0,0.0,0.0,0.0,0.0,0.0,0.0,0.6907,0.7392,0.7683,0.8164,0.8571,0.8898,0.8955,0.898,0.8991,0.9233,0.9352,0.9359,0.9653,0.986,0.9987,1.0151,1.0211,1.0211,1.0211,1.0211,0.0,0.0,0.9704,0.967,0.9406,0.9198,0.9024,0.9024,0.9164,0.9417,0.9748,1.0055,1.0379,1.0882,1.0258,0.9411,0.9514,0.8721,0.784,0.797,0.8188,0.8425,0.8564,0.8485,0.8308,0.7926,0.7705,0.7403,0.6986,0.6979,0.6947,0.6527,0.6893,0.7318,0.7524,0.8204,0.8866,0.9228,0.9591,0.9791,0.971,0.9774,0.9788,0.971,0.9774,0.9822,0.9822,0.9822,0.9822,0.9822,0.9822,0.9822,0.9822,0.9822,0.9822,0.9822,0.9822,0.9852,0.9859,0.9852,0.989,1.0022,0.9951,0.9958,1.0022,1.0022,0.9985,0.9859,0.9859,0.9883,0.9822,0.9822,0.9822,0.9822,0.9822,0.9822,0.9822,0.0,0.0,0.0,0.0,0.0,0.0,0.0,0.0,0.0,0.0,0.0,0.0,0.0,0.0,0.0,0.0,0.0,0.0,0.0,0.0,0.0,0.7603,0.7669,0.7903,0.8427,0.8301,0.8182,0.8112,0.8288,0.8342,0.8348,0.8571,0.8818,0.9111,0.9392,0.9561,0.9566,0.9566,0.9566,0.9546,0.9257,0.9158,0.9124,0.0,0.0,0.8804,0.8804,0.9319,1.0046,1.0588,1.0694,1.0795,1.1705,1.0706,0.9387,1.0091,0.9059,0.7719,0.8043,0.8581,0.89,0.8528,0.8603,0.8548,0.7632,0.7285,0.7045,0.657,0.6637,0.6691,0.638,0.6663,0.7064,0.7421,0.8032,0.8625,0.9169,0.9534,0.9798,0.9819,0.9822,0.9822,0.9822,0.9822,0.9822,0.9822,0.9822,0.9822,0.9822,0.9822,0.9822,0.9822,0.9822,0.9832,0.9849,0.9849,0.9927,1.0014,0.9947,1.0022,1.0276,1.0141,1.0151,1.028,1.028,1.0205,1.0017,1.0017,0.9926,0.9849,0.9849,0.9839,0.9822,0.9822,0.9822,0.9822,0.0,0.0,0.0,0.0,0.0,0.0,0.0,0.0,0.0,0.0,0.573,0.5796,0.0,0.0,0.0,0.0,0.0,0.0,0.0,0.0,0.0,0.7275,0.7456,0.7709,0.8081,0.7961,0.7944,0.8112,0.8143,0.8099,0.7985,0.8032,0.8218,0.8549,0.8603,0.8757,0.8958,0.8958,0.8958,0.8951,0.8905,0.8858,0.8878,0.0,0.0,0.0,0.8804,0.9031,0.0,0.0,1.1381,1.2005,1.3089,1.1861,1.0159,1.1022,0.9675,0.805,0.8729,0.8742,0.8675,0.8907,0.8553,0.8035,0.75,0.7171,0.6825,0.6417,0.6272,0.6171,0.6034,0.6322,0.6762,0.7342,0.7945,0.8603,0.9245,0.9517,0.969,0.9805,0.9822,0.9822,0.9822,0.9822,0.9822,0.9822,0.9822,0.9822,0.9822,0.9822,0.9822,0.9822,0.9822,0.9883,0.9947,0.9947,1.0086,1.0239,1.0212,1.0229,1.028,1.0253,1.0256,1.028,1.028,1.0263,1.0239,1.0239,1.0148,0.9947,0.9947,0.9869,0.9822,0.9822,0.9822,0.9822,0.0,0.0,0.0,0.0,0.0,0.0,0.0,0.5385,0.5979,0.6468,0.6534,0.6402,0.6089,0.5898,0.5796,0.0,0.0,0.0,0.0,0.0,0.0,0.0,0.7447,0.7651,0.7738,0.7843,0.0,0.0,0.0,0.0,0.0,0.0,0.0,0.0,0.0,0.0,0.0,0.8804,0.8804,0.8804,0.8804,0.8804,0.0,0.0,0.0,0.0,0.0,0.0,0.957,0.0,1.1121,1.2036,1.3548,1.2639,1.1265,1.2092,1.0711,0.9023,0.9485,0.9369,0.904,0.899,0.8715,0.8274,0.757,0.7033,0.6556,0.6047,0.5978,0.5872,0.5452,0.587,0.6375,0.6642,0.7238,0.8047,0.9123,0.9277,0.9456,1.0016,0.9883,0.9822,0.9822,0.9822,0.9822,0.9822,0.9822,0.9822,0.9822,0.9822,0.9822,0.9822,0.9897,0.9913,0.9987,1.0131,1.0246,1.0388,1.0317,1.0361,1.0507,1.0426,1.0432,1.051,1.051,1.0463,1.0388,1.0388,1.0304,1.0171,1.0171,1.0073,0.9879,0.9879,0.989,0.9822,0.0,0.0,0.0,0.0,0.0,0.0,0.0,0.5759,0.6387,0.7202,0.7377,0.7202,0.6661,0.6243,0.5972,0.0,0.0,0.0,0.0,0.0,0.0,0.0,0.0,0.7642,0.7544,0.0,0.0,0.0,0.0,0.0,0.0,0.0,0.0,0.0,0.0,0.0,0.0,0.0,0.8804,0.0,0.0,0.0,0.0,0.0,0.0,0.0,0.0,0.0,0.9559,0.9973,1.0561,1.1404,1.3073,1.2814,1.2037,1.2767,1.1637,1.0119,1.0244,1.0067,0.9739,0.9215,0.8976,0.8571,0.763,0.6911,0.6275,0.5775,0.5733,0.5639,0.5134,0.5577,0.6031,0.6192,0.6706,0.7562,0.8983,0.904,0.9257,1.0127,0.9983,0.9832,0.9866,0.9869,0.9883,0.9917,0.9886,0.9856,0.9822,0.9822,0.9836,0.9869,0.9923,1.0017,1.0081,1.0263,1.0399,1.0538,1.0429,1.0497,1.0717,1.0595,1.0605,1.0721,1.0721,1.0653,1.0541,1.0541,1.0456,1.0327,1.0327,1.0212,0.9987,0.9987,0.9889,0.9822,0.0,0.0,0.0,0.0,0.0,0.0,0.0,0.6297,0.7216,0.7596,0.7931,0.7975,0.7616,0.7005,0.6523,0.0,0.0,0.0,0.0,0.0,0.0,0.0,0.0,0.0,0.0,0.0,0.0,0.0,0.0,0.0,0.0,0.0,0.0,0.0,0.0,0.0,0.0,0.0,0.0,0.0,0.0,0.0,0.0,0.0,0.0,0.0,0.0,0.0,0.9011,0.981,1.0034,1.0159,1.1307,1.1713,1.1912,1.249,1.1932,1.1103,1.0874,1.0699,1.0478,0.9838,0.9129,0.8379,0.7712,0.6896,0.617,0.591,0.5599,0.5386,0.5506,0.5608,0.5927,0.6768,0.6921,0.7469,0.8962,0.9028,0.9166,0.9926,0.0,0.0,0.9953,0.9967,1.0086,1.0229,1.0107,0.9906,0.9829,0.9822,0.9883,0.9963,0.998,1.0178,1.0449,1.0466,1.0548,1.07,1.0687,1.0694,1.0721,1.0707,1.0707,1.0721,1.0721,1.0711,1.07,1.07,1.0609,1.0473,1.0473,1.03,0.9987,0.9987,0.9889,0.9822,0.0,0.0,0.0,0.0,0.0,0.0,0.5246,0.6065,0.698,0.7887,0.8121,0.8304,0.8568,0.8012,0.7311,0.6596,0.0,0.0,0.0,0.0,0.0,0.0,0.0,0.0,0.0,0.0,0.0,0.0,0.0,0.0,0.0,0.0,0.0,0.0,0.0,0.0,0.0,0.0,0.0,0.0,0.0,0.0,0.0,0.0,0.0,0.0,0.0,0.0,0.8864,0.9212,0.9502,0.9824,1.0236,1.0812,1.1483,1.2316,1.237,1.2068,1.1361,1.1104,1.0828,0.9884,0.923,0.8642,0.7981,0.7119,0.6333,0.5972,0.5575,0.529,0.5302,0.5398,0.5697,0.6337,0.6434,0.6929,0.8396,0.8583,0.8809,0.9567,0.9761,0.9863,1.0015,0.9987,1.0011,1.0137,1.0171,1.012,0.9906,0.9896,1.0029,1.0181,1.027,1.0375,1.049,1.0582,1.066,1.0721,1.0721,1.0721,1.0721,1.0721,1.0721,1.0721,1.0721,1.0721,1.0721,1.0721,1.0683,1.0629,1.0629,1.05,1.0307,1.0219,1.009,0.9883,0.0,0.0,0.0,0.0,0.0,0.4917,0.5246,0.6023,0.6933,0.7924,0.8224,0.8524,0.9002,0.8451,0.78,0.7202,0.6957,0.0,0.0,0.0,0.0,0.0,0.0,0.0,0.0,0.0,0.8172,0.8355,0.8518,0.0,0.0,0.0,0.0,0.0,0.0,0.0,0.0,0.0,0.0,0.0,0.0,0.0,0.0,0.0,0.0,0.0,0.0,0.0,0.0,0.0,0.0,0.9426,0.9426,0.9967,0.0,1.1991,1.2566,1.2605,1.1735,1.1543,1.1221,0.989,0.92,0.8765,0.81,0.7197,0.6413,0.5995,0.5575,0.527,0.5183,0.5329,0.561,0.6069,0.6184,0.6749,0.8116,0.834,0.8645,0.9367,0.9638,0.9783,0.9937,1.0081,1.0149,1.0061,1.0256,1.0276,1.0127,1.0158,1.0229,1.0341,1.0439,1.0514,1.0558,1.0666,1.0721,1.0721,1.0721,1.0721,1.0721,1.0721,1.0721,1.0721,1.0721,1.0721,1.0721,1.0721,1.0721,1.0721,1.0721,1.0602,1.0419,1.0317,1.0154,0.9906,0.0,0.0,0.0,0.0,0.0,0.0,0.5246,0.637,0.7319,0.7654,0.8282,0.8708,0.8692,0.8114,0.7843,0.8158,0.7574,0.0,0.0,0.0,0.0,0.0,0.0,0.0,0.0,0.0,0.8369,0.85,0.8703,0.8804,0.8804,0.0,0.0,0.0,0.0,0.0,0.0,0.0,0.0,0.0,0.0,0.0,0.0,0.0,0.0,0.0,0.0,0.0,0.0,0.0,0.0,0.0,0.0,0.9225,0.0,0.0,1.2331,1.2631,1.1886,1.1948,1.178,1.0023,0.916,0.8534,0.7926,0.7019,0.6228,0.5967,0.5575,0.5297,0.5297,0.5466,0.573,0.6122,0.6433,0.707,0.8418,0.8559,0.873,0.0,0.9532,0.9629,0.9781,1.0361,1.0592,1.03,1.0409,1.0429,1.0287,1.0412,1.0487,1.049,1.049,1.0565,1.0717,1.0721,1.0721,1.0721,1.0721,1.0721,1.0721,1.0721,1.0721,1.0721,1.0721,1.0721,1.0721,1.0721,1.0721,1.0721,1.0721,1.0541,1.0283,1.028,1.0086,0.9822,0.0,0.0,0.0,0.0,0.0,0.0,0.0,0.5692,0.6439,0.6961,0.7209,0.7508,0.7975,0.7822,0.7735,0.7837,0.7457,0.0,0.0,0.0,0.0,0.0,0.0,0.0,0.0,0.0,0.8417,0.865,0.8735,0.8804,0.8804,0.8804,0.8804,0.0,0.0,0.0,0.0,0.0,0.0,0.0,0.0,0.0,0.0,0.0,0.0,0.0,0.0,0.0,0.0,0.0,0.0,0.0,0.0,0.0,0.0,1.0142,1.14,1.2228,1.1112,1.1101,1.0966,0.9339,0.851,0.7926,0.7392,0.6807,0.6249,0.5781,0.5486,0.5297,0.5297,0.5345,0.5684,0.6592,0.6807,0.0,0.819,0.8656,0.0,0.9407,0.9906,1.0247,1.0269,1.0373,1.0382,1.0287,1.0412,1.0473,1.0426,1.0568,1.0649,1.0649,1.0649,1.067,1.0721,1.0721,1.0721,1.0721,1.0721,1.0721,1.0721,1.0721,1.0721,1.0721,1.0721,1.0721,1.0721,1.0721,1.0721,1.0721,1.0721,1.0663,1.0558,1.0354,1.0219,1.0107,0.0,0.0,0.0,0.0,0.0,0.0,0.0,0.548,0.6126,0.6494,0.6629,0.6906,0.745,0.7508,0.7559,0.7683,0.7508,0.0,0.0,0.0,0.0,0.0,0.0,0.0,0.8234,0.8289,0.8487,0.8892,0.8931,0.8944,0.8944,0.8944,0.8884,0.8804,0.8804,0.0,0.0,0.0,0.0,0.0,0.0,0.0,0.0,0.0,0.0,0.0,0.0,0.0,0.0,0.0,0.0,0.0,0.0,0.0,0.0,0.0,1.0367,1.1189,1.0531,1.0429,1.0188,0.8969,0.8121,0.7435,0.7,0.6526,0.6103,0.5693,0.5446,0.5297,0.5297,0.5438,0.5745,0.6473,0.6869,0.732,0.8016,0.8749,0.9357,0.9754,1.0233,1.0577,1.0631,1.0656,1.0573,1.0384,1.0519,1.0513,1.0327,1.047,1.0555,1.0555,1.0663,1.0721,1.0721,1.0721,1.0721,1.0721,1.0721,1.0721,1.0721,1.0721,1.0721,1.0721,1.0721,1.0721,0.0,1.0721,1.0721,1.0714,1.0656,1.0602,1.0524,1.0283,1.0158,1.008,0.0,0.0,0.0,0.0,0.0,0.0,0.0,0.5612,0.6238,0.6267,0.6472,0.6753,0.7071,0.7151,0.7297,0.7596,0.0,0.0,0.0,0.0,0.0,0.0,0.0,0.0,0.8304,0.8318,0.8586,0.9184,0.9204,0.9211,0.9211,0.9231,0.9091,0.8838,0.8838,0.8824,0.0,0.0,0.0,0.0,0.0,0.0,0.0,0.0,0.0,0.0,0.0,0.0,0.0,0.0,0.0,0.0,0.0,0.0,0.0,0.0,0.0,0.0,0.0,0.9916,0.9451,0.8832,0.7886,0.7005,0.6696,0.6229,0.0,0.5628,0.5438,0.5309,0.5349,0.5673,0.5917,0.6006,0.6733,0.7433,0.8012,0.8877,0.9742,1.0451,1.0619,1.0688,1.0834,1.1072,1.1007,1.0553,1.0685,1.0584,1.0073,1.0202,1.028,1.028,1.0544,1.0694,1.0704,1.0714,1.0721,1.0721,1.0721,1.0721,1.0721,1.0721,1.0721,1.0721,1.0721,1.0721,1.0721,1.0721,1.0714,1.069,1.0548,1.0405,1.0259,1.0044,0.9899,0.9836,0.0,0.0,0.0,0.0,0.0,0.0,0.0,0.0,0.0,0.0,0.5979,0.6036,0.6117,0.6538,0.6848,0.0,0.0,0.0,0.0,0.0,0.0,0.0,0.0,0.0,0.8438,0.8358,0.8532,0.9038,0.9152,0.9211,0.9217,0.9472,0.9419,0.9111,0.9111,0.8991,0.0,0.0,0.0,0.0,0.0,0.0,0.0,0.0,0.0,0.0,0.8804,0.8804,0.0,0.0,0.0,0.0,0.0,0.0,0.0,0.0,0.8958,0.9084,0.9379,0.0,0.8404,0.7788,0.6934,0.6144,0.0,0.577,0.5624,0.5422,0.5325,0.545,0.5914,0.5951,0.6205,0.72,0.7606,0.8065,0.8747,0.973,1.0566,1.1063,1.1108,1.117,1.1209,1.0982,1.0757,1.0539,1.0516,1.0451,1.0222,1.0259,1.028,1.028,1.0348,1.0436,1.0544,1.0663,1.0721,1.0721,1.0721,1.0721,1.0721,1.0721,1.0721,1.0721,1.0721,1.0721,1.0721,1.0721,1.0653,1.0541,1.0507,1.0405,1.0259,1.0044,0.9963,0.9916,0.0,0.0,0.0,0.0,0.0,0.0,0.0,0.0,0.0,0.0,0.0,0.5796,0.5796,0.6341,0.0,0.0,0.0,0.0,0.0,0.0,0.0,0.0,0.0,0.7853,0.8391,0.8271,0.8568,0.9315,0.9394,0.9484,0.9617,0.9806,0.9653,0.9204,0.9071,0.8931,0.0,0.0,0.0,0.0,0.0,0.0,0.0,0.0,0.0,0.0,0.8804,0.8804,0.0,0.8804,0.8804,0.8804,0.0,0.0,0.0,0.0,0.8804,0.8844,0.8971,0.8592,0.8127,0.7953,0.7013,0.6103,0.6006,0.5696,0.5438,0.5317,0.5361,0.5555,0.5988,0.6188,0.6534,0.7378,0.7866,0.8507,0.9563,1.0351,1.0997,1.1451,1.1522,1.1522,1.1522,1.1341,1.1134,1.0916,1.0862,1.0718,1.0312,1.0319,1.0256,1.007,1.0137,1.0246,1.0392,1.0477,1.0551,1.0616,1.0616,1.0653,1.0721,1.0721,1.0721,1.0721,1.0721,1.0721,1.0721,1.0721,1.0629,1.0483,1.0419,1.0304,1.0154,1.0002,0.9883,0.993,0.0,0.0,0.0,0.0,0.0,0.0,0.0,0.0,0.0,0.0,0.0,0.0,0.0,0.0,0.0,0.0,0.0,0.0,0.0,0.0,0.0,0.0,0.763,0.7787,0.8257,0.8201,0.8624,0.9546,0.9686,0.9873,1.009,1.0177,0.9884,0.9264,0.8978,0.8844,0.0,0.0,0.0,0.0,0.0,0.0,0.0,0.0,0.0,0.0,0.0,0.0,0.0,0.8804,0.8804,0.8804,0.8804,0.0,0.0,0.0,0.0,0.0,0.8776,0.8502,0.8237,0.8356,0.7381,0.6371,0.6351,0.5838,0.5378,0.5378,0.5543,0.5774,0.6042,0.6489,0.696,0.7361,0.8069,0.8999,1.0331,1.0802,1.12,1.1715,1.1776,1.1776,1.1776,1.1776,1.1651,1.1333,1.1273,1.1031,1.0425,1.0304,1.0183,0.9943,0.9947,1.0076,1.0272,1.032,1.0351,1.049,1.049,1.0571,1.0721,1.0721,1.0721,1.0717,1.0697,1.0683,1.0683,1.0663,1.0561,1.0412,1.0293,1.0151,1.006,0.993,0.9883,1.0001,0.0,0.0,0.0,0.0,0.0,0.0,0.0,0.0,0.0,0.0,0.0,0.0,0.0,0.0,0.0,0.0,0.0,0.0,0.0,0.0,0.0,0.7946,0.7931,0.7989,0.8129,0.8334,0.8606,0.8945,0.9686,1.0074,1.0097,1.0621,1.0414,0.9599,0.9277,0.9011,0.8804,0.0,0.0,0.0,0.0,0.0,0.0,0.0,0.0,0.0,0.0,0.0,0.0,0.8804,0.8804,0.8804,0.8804,0.0,0.0,0.0,0.0,0.0,0.8728,0.8679,0.8412,0.7696,0.6928,0.6339,0.6038,0.5884,0.5807,0.5807,0.5975,0.629,0.6899,0.7208,0.763,0.8442,0.9173,0.9933,1.0769,1.1057,1.133,1.1732,1.1776,1.1776,1.1776,1.1776,1.1651,1.1333,1.1273,1.1152,1.0728,1.0425,1.0425,1.0668,1.0147,0.9988,1.0318,1.0273,1.0351,1.049,1.049,1.0571,1.0721,1.0721,1.0721,1.0714,1.0582,1.0527,1.0517,1.0395,1.0256,1.0051,1.0031,1.0112,1.0279,1.0254,1.0425,1.0668,0.0,0.0,0.0,0.0,0.0,0.0,0.0,0.0,0.0,0.0,0.0,0.0,0.0,0.0,0.0,0.0,0.0,0.0,0.0,0.0,0.7954,0.7899,0.8201,0.8351,0.8327,0.8545,0.8925,0.9519,1.008,1.0514,1.0789,1.0615,1.0221,0.9666,0.9205,0.8904,0.8804,0.8804,0.0,0.0,0.0,0.0,0.0,0.0,0.0,0.0,0.0,0.0,0.0,0.0,0.8804,0.8804,0.8804,0.0,0.0,0.0,0.0,0.0,0.8755,0.8576,0.8281,0.785,0.7429,0.7098,0.6971,0.6706,0.6498,0.6498,0.6641,0.6859,0.7285,0.7671,0.8243,0.9234,0.9916,1.0505,1.1033,1.1261,1.1472,1.1744,1.1776,1.1776,1.1776,1.1776,1.1712,1.1587,1.1587,1.1402,1.1091,1.091,1.0849,1.0789,1.0486,1.0425,1.0547,1.0573,1.0482,1.0253,1.0253,1.0334,1.0483,1.0483,1.0483,1.0477,1.0602,1.0571,1.0371,1.0498,1.044,1.0298,1.0298,1.0385,1.0547,1.0547,1.0789,1.1091,0.0,0.0,0.0,0.0,0.0,0.0,0.0,0.0,0.0,0.0,0.0,0.0,0.0,0.0,0.0,0.0,0.0,0.0,0.0,0.0,0.8075,0.793,0.8383,0.8634,0.8558,0.8851,0.9372,1.0083,1.0548,1.0989,1.1375,1.0595,1.0027,0.9659,0.9138,0.8871,0.8804,0.8804,0.8804,0.0,0.0,0.0,0.0,0.0,0.0,0.0,0.0,0.0,0.0,0.0,0.0,0.0,0.0,0.0,0.0,0.8804,0.8804,0.8798,0.878,0.8437,0.8105,0.8097,0.7843,0.7645,0.7771,0.7445,0.7139,0.722,0.7382,0.7581,0.7711,0.8243,0.8958,0.9868,1.0465,1.0923,1.1244,1.1447,1.1618,1.176,1.1776,1.1776,1.1776,1.1776,1.1776,1.1776,1.1776,1.1712,1.1458,1.1333,1.1212,1.1035,1.0849,1.0849,1.091,1.0849,1.063,1.0236,1.0236,1.0319,1.0534,1.0534,1.0534,1.0531,1.0745,1.0731,1.0475,1.0689,1.0724,1.0551,1.0551,1.0717,1.091,1.1035,1.1216,1.1398,0.0,0.0,0.0,0.0,0.0,0.0,0.0,0.0,0.0,0.0,0.0,0.0,0.0,0.0,0.0,0.0,0.0,0.0,0.0,0.0,0.8085,0.8245,0.8428,0.8585,0.8771,0.9332,0.9786,1.0083,1.0922,1.1349,1.1375,1.0841,1.0258,0.9695,0.9324,0.9031,0.8804,0.8804,0.8804,0.8804,0.0,0.0,0.0,0.0,0.0,0.0,0.0,0.0,0.0,0.0,0.0,0.0,0.0,0.0,0.8804,0.8804,0.8804,0.8789,0.8717,0.8426,0.8085,0.8098,0.7586,0.718,0.7686,0.7637,0.7537,0.787,0.8223,0.8518,0.8531,0.9194,0.9908,1.0274,1.0783,1.1252,1.1451,1.1638,1.176,1.1776,1.1776,1.1776,1.1776,1.1776,1.1776,1.1776,1.1776,1.1776,1.1776,1.1462,1.1458,1.1716,1.1099,1.097,1.1273,1.097,1.081,1.0915,1.0915,1.1003,1.1162,1.1162,1.1162,1.1154,1.0999,1.0995,1.0922,1.0828,1.0819,1.0808,1.0808,1.0982,1.1273,1.1591,1.1712,1.1776,0.0,0.0,0.0,0.0,0.0,0.0,0.0,0.0,0.0,0.0,0.0,0.0,0.0,0.0,0.0,0.0,0.0,0.0,0.0,0.8039,0.8268,0.8176,0.8577,0.8876,0.9044,0.9653,1.0187,1.0661,1.1363,1.1603,1.1375,1.0641,1.0067,0.9688,0.9185,0.8911,0.8804,0.8804,0.8804,0.8804,0.8804,0.0,0.0,0.0,0.0,0.0,0.0,0.0,0.0,0.0,0.8804,0.8804,0.8804,0.8804,0.8804,0.8804,0.8804,0.8798,0.8762,0.8546,0.8309,0.8453,0.7986,0.7637,0.818,0.842,0.8617,0.908,0.9202,0.9226,0.9226,0.9587,1.0038,1.0517,1.0948,1.1325,1.163,1.1732,1.1776,1.1776,1.1776,1.1776,1.1776,1.1776,1.1776,1.1776,1.1776,1.1776,1.1776,1.1651,1.1651,1.1776,1.1526,1.1466,1.1587,1.1466,1.1437,1.1504,1.1069,1.0916,1.0979,1.0979,1.0979,1.0975,1.1096,1.1065,1.0878,1.1058,1.1091,1.1152,1.1341,1.1526,1.1647,1.1776,1.1776,1.1776,0.0,0.0,0.0,0.0,0.0,0.0,0.0,0.0,0.0,0.0,0.0,0.0,0.0,0.0,0.0,0.0,0.0,0.0,0.7502,0.798,0.8236,0.8105,0.8548,0.8924,0.9204,0.979,1.0361,1.0855,1.1383,1.1477,1.1136,1.0441,0.996,0.9688,0.9165,0.8918,0.8911,0.8844,0.8804,0.8804,0.8804,0.8804,0.0,0.0,0.0,0.0,0.0,0.0,0.0,0.0,0.8804,0.8804,0.8804,0.8804,0.8804,0.8804,0.8744,0.8717,0.8717,0.8421,0.8171,0.8453,0.8192,0.8053,0.871,0.8962,0.9263,0.9851,0.9876,0.9815,0.9821,0.9977,1.0217,1.07,1.1078,1.1419,1.1732,1.1776,1.1776,1.1776,1.1776,1.1776,1.1776,1.1776,1.1776,1.1776,1.1776,1.1776,1.1776,1.1776,1.1776,1.1776,1.1776,1.1776,1.1776,1.1776,1.1776,1.1776,1.1345,1.1099,1.1099,1.1099,1.1099,1.116,1.1341,1.1341,1.1156,1.1341,1.1462,1.1462,1.1712,1.1776,1.1776,1.1776,1.1776,1.1776,0.0,0.0,0.0,0.0,0.0,0.0,0.0,0.0,0.0,0.0,0.0,0.0,0.0,0.0,0.0,0.0,0.0,0.0,0.7502,0.7694,0.7882,0.8099,0.829,0.8644,0.9191,0.9777,1.0254,1.0593,1.0881,1.0874,1.0579,1.0254,0.996,0.9695,0.9344,0.9211,0.9191,0.8904,0.8804,0.8804,0.8804,0.8804,0.0,0.0,0.0,0.0,0.0,0.0,0.0,0.0,0.8804,0.8804,0.8804,0.8811,0.8818,0.8804,0.8651,0.8516,0.851,0.8012,0.7592,0.7997,0.8047,0.826,0.92,0.923,0.9311,1.0077,1.0224,1.0229,1.0354,1.0387,1.0558,1.0915,1.1269,1.1565,1.1752,1.1776,1.1776,1.1776,1.1776,1.1776,1.1776,1.1776,1.1776,1.1776,1.1776,1.1776,1.1776,1.1776,1.1776,1.1776,1.1776,1.1776,1.1776,1.1776,1.1776,1.1776,1.1776,1.1776,1.1776,1.1776,1.1776,1.1776,1.1776,1.1776,1.1776,1.1776,1.1776,1.1776,1.1776,1.1776,1.1776,1.1776,1.1776,1.1776,0.0,0.0,0.0,0.0,0.0,0.0,0.0,0.0,0.0,0.0,0.0,0.0,0.0,0.0,0.0,0.0,0.0,0.0,0.7433,0.7657,0.7859,0.7963,0.8241,0.855,0.8898,0.9277,0.9917,1.0894,1.078,1.0566,1.0241,0.9947,0.9653,0.9344,0.9251,0.9098,0.8904,0.8844,0.8804,0.8804,0.8804,0.8804,0.0,0.0,0.0,0.0,0.0,0.0,0.0,0.0,0.0,0.0,0.8804,0.9092,0.9345,0.8925,0.9053,0.9192,0.8475,0.8388,0.845,0.8276,0.8602,0.906,0.9458,0.9701,1.005,1.0761,1.0907,1.0887,1.0822,1.081,1.0887,1.111,1.1346,1.1565,1.1752,1.1776,1.1776,1.1776,1.1776,1.1776,1.1776,1.1776,1.1776,1.1776,1.1776,1.1776,1.1776,1.1776,1.1776,1.1776,1.1776,1.1776,1.1776,1.1776,1.1776,1.1776,1.1776,1.1776,1.1776,1.1776,1.1776,1.1776,1.1776,1.1776,1.1776,1.1776,1.1776,1.1776,1.1776,1.1776,1.1776,1.1776,1.1776,1.1776,0.0,0.0,0.0,0.0,0.0,0.0,0.0,0.0,0.0,0.0,0.0,0.0,0.0,0.0,0.0,0.0,0.0,0.0,0.0,0.7657,0.7859,0.7987,0.8241,0.8564,0.8944,0.9124,0.9557,1.0294,1.0271,1.006,0.9744,0.9947,0.9813,0.9397,0.9659,0.9539,0.9145,0.9031,0.8951,0.8951,0.8951,0.8951,0.8951,0.0,0.0,0.0,0.0,0.0,0.0,0.0,0.0,0.0,0.8804,0.9051,0.9256,0.882,0.8862,0.8925,0.8331,0.8339,0.8558,0.8595,0.9012,0.9526,0.9945,1.0274,1.0643,1.1216,1.1273,1.1216,1.1183,1.1118,1.1126,1.1301,1.1488,1.165,1.176,1.1776,1.1776,1.1776,1.1776,1.1776,1.1776,1.1776,1.1776,1.1776,1.1776,1.1776,1.1776,1.1776,1.1776,1.1776,1.1776,1.1776,1.1776,1.1776,1.1776,1.1776,1.1776,1.1776,1.1776,1.1776,1.1776,1.1776,1.1776,1.1776,1.1776,1.1776,1.1776,1.1776,1.1776,1.1776,1.1776,1.1776,1.1776,1.1776,0.0,0.0,0.0,0.0,0.0,0.0,0.0,0.0,0.0,0.0,0.0,0.0,0.0,0.0,0.0,0.0,0.0,0.0,0.0,0.0,0.7882,0.8075,0.8311,0.8657,0.9164,0.9171,0.9171,0.9171,0.9499,0.9492,0.9191,1.008,1.0211,0.9666,1.0265,1.0198,0.9626,0.9297,0.9171,0.9171,0.9171,0.9171,0.9171,0.9171,0.0,0.0,0.0,0.0,0.0,0.0,0.0,0.0,0.8804,0.8844,0.8843,0.8608,0.8388,0.8202,0.811,0.809,0.8204,0.8889,0.9263,0.9726,1.0526,1.0846,1.1126,1.1427,1.1378,1.1325,1.1492,1.1386,1.133,1.1496,1.1667,1.1776,1.1776,1.1776,1.1776,1.1776,1.1776,1.1776,1.1776,1.1776,1.1776,1.1776,1.1776,1.1776,1.1776,1.1776,1.1776,1.1776,1.1776,1.1776,1.1776,1.1776,1.1776,1.1776,1.1776,1.1776,1.1776,1.1776,1.1776,1.1776,1.1776,1.1776,1.1776,1.1776,1.1776,1.1776,1.1776,1.1776,1.1776,1.1776,1.1776,1.1776,0.0,0.0,0.0,0.0,0.0,0.0,0.0,0.0,0.0,0.0,0.0,0.0,0.0,0.0,0.0,0.0,0.0,0.0,0.0,0.0,0.7729,0.794,0.8437,0.8771,0.8898,0.8871,0.8871,0.8871,0.9164,0.9158,0.8891,0.9566,0.9679,0.9324,0.9713,0.9673,0.9291,0.8998,0.8871,0.8871,0.8871,0.8871,0.8871,0.8871,0.8864,0.0,0.0,0.0,0.0,0.0,0.0,0.0,0.8804,0.9125,0.9397,0.8894,0.887,0.8916,0.8276,0.8271,0.8543,0.8787,0.9547,1.0327,1.0802,1.0996,1.1126,1.1427,1.1585,1.1671,1.1711,1.1687,1.1671,1.1711,1.1752,1.1776,1.1776,1.1776,1.1776,1.1776,1.1776,1.1776,1.1776,1.1776,1.1776,1.1776,1.1776,1.1776,1.1776,1.1776,1.1776,1.1776,1.1776,1.1776,1.1776,1.1776,1.1776,1.1776,1.1776,1.1776,1.1776,1.1776,1.1776,1.1776,1.1776,1.1776,1.1776,1.1776,1.1776,1.1776,1.1776,1.1776,1.1776,1.1776,1.1776,1.1776,0.0,0.0,0.0,0.0,0.0,0.0,0.0,0.0,0.0,0.0,0.0,0.0,0.0,0.0,0.0,0.0,0.0,0.0,0.0,0.7671,0.7984,0.8305,0.8644,0.8804,0.8804,0.8804,0.8804,0.8804,0.8931,0.8998,0.9004,0.9766,1.005,0.9886,1.018,1.0067,0.9604,0.9171,0.8984,0.8984,0.8984,0.8984,0.8984,0.8984,0.8904,0.8804,0.8804,0.0,0.0,0.0,0.0,0.0,0.0,0.0,0.9175,0.8775,0.8888,0.8986,0.8359,0.8547,0.9032,0.9403,0.9953,1.0505,1.0773,1.0907,1.1021,1.1208,1.1455,1.1671,1.176,1.1776,1.1776,1.1776,1.1776,1.1776,1.1776,1.1776,1.1776,1.1776,1.1776,1.1776,1.1776,1.1776,1.1776,1.1776,1.1776,1.1776,1.1776,1.1776,1.1776,1.1776,1.1776,1.1776,1.1776,1.1776,1.1776,1.1776,1.1776,1.1776,1.1776,1.1776,1.1776,1.1776,1.1776,1.1776,1.1776,1.1776,1.1776,1.1776,1.1776,1.1776,1.1776,1.1776,1.1776,1.1776,0.0,0.0,0.0,0.0,0.0,0.0,0.0,0.0,0.0,0.0,0.0,0.0,0.0,0.0,0.0,0.0,0.0,0.0,0.0,0.78,0.8288,0.8784,0.8804,0.8804,0.8804,0.8804,0.8804,0.8804,0.8804,0.9031,0.9451,1.0198,1.0546,1.06,1.0755,1.0541,1.0007,0.9391,0.9138,0.9138,0.9138,0.9138,0.9138,0.9138,0.8991,0.8804,0.8804,0.8804,0.8804,0.8804,0.0,0.0,0.0,0.0,0.8764,0.8604,0.8681,0.8757,0.847,0.8846,0.9446,1.0016,1.0274,1.0427,1.0651,1.081,1.0988,1.0964,1.1224,1.1508,1.1695,1.1732,1.174,1.1772,1.1776,1.1776,1.1776,1.1776,1.1776,1.1776,1.1776,1.1776,1.1776,1.1776,1.1776,1.1776,1.1776,1.1776,1.1776,1.1776,1.1776,1.1776,1.1776,1.1776,1.1776,1.1776,1.1776,1.1776,1.1776,1.1776,1.1776,1.1776,1.1776,1.1776,1.1776,1.1776,1.1776,1.1776,1.1776,1.1776,1.1776,1.1776,1.1776,1.1776,1.1776,1.1776,0.0,0.0,0.0,0.0,0.0,0.0,0.0,0.0,0.0,0.0,0.7669,0.7649,0.7544,0.7621,0.0,0.0,0.0,0.0,0.723,0.0,0.0,0.8784,0.8804,0.8804,0.8804,0.8804,0.8804,0.8804,0.8804,0.9345,1.0412,1.0241,1.0314,1.0579,1.0327,1.0047,0.9699,0.9112,0.8864,0.8864,0.8864,0.8864,0.8864,0.8864,0.8838,0.8804,0.8804,0.8804,0.8804,0.8804,0.8804,0.0,0.0,0.0,0.8798,0.8764,0.8649,0.8562,0.8615,0.0,0.9495,0.0,1.018,1.0427,1.0651,1.0712,1.0773,1.0936,1.1122,1.1317,1.15,1.1537,1.1589,1.1752,1.1776,1.1776,1.1776,1.1776,1.1776,1.1776,1.1776,1.1776,1.1776,1.1776,1.1776,1.1776,1.1776,1.1776,1.1776,1.1776,1.1776,1.1776,1.1776,1.1776,1.1776,1.1776,1.1776,1.1776,1.1776,1.1776,1.1776,1.1776,1.1776,1.1776,1.1776,1.1776,1.1776,1.1776,1.1776,1.1776,1.1776,1.1776,1.1776,1.1776,1.1776,1.1776,0.0,0.0,0.0,0.0,0.0,0.0,0.0,0.0,0.0,0.0,0.0,0.767,0.7621,0.7593,0.0,0.0,0.0,0.0,0.7355,0.7712,0.0,0.855,0.8717,0.8804,0.8804,0.8651,0.8644,0.8804,0.8644,0.9332,1.0834,1.0835,1.1182,1.1792,1.1129,1.0688,1.0354,0.9411,0.8931,0.8804,0.8804,0.9105,0.9486,0.8991,0.9112,0.9479,0.8985,0.8804,0.8804,0.8804,0.8804,0.8804,0.8804,0.0,0.0,0.0,0.8852,0.891,0.9047,0.9091,0.9226,0.0,0.9864,1.0031,1.0461,1.055,1.0599,1.0777,1.0871,1.1009,1.1293,1.1427,1.1529,1.161,1.1707,1.1776,1.1776,1.1776,1.1776,1.1776,1.1776,1.1776,1.1776,1.1776,1.1776,1.1776,1.1776,1.1776,1.1776,1.1776,1.1776,1.1776,1.1776,1.1776,1.1776,1.1776,1.1776,1.1776,1.1776,1.1776,1.1776,1.1776,1.1776,1.1776,1.1776,1.1776,1.1776,1.1776,1.1776,1.1776,1.1776,1.1776,1.1776,1.1776,1.1776,1.1776,0.0,0.0,0.0,0.0,0.0,0.0,0.0,0.0,0.0,0.0,0.0,0.0,0.7642,0.0,0.0,0.0,0.0,0.0,0.7493,0.0,0.0,0.0,0.0,0.8804,0.8804,0.8549,0.8543,0.8804,0.8543,0.934,1.1109,1.1323,1.2017,1.3085,1.2158,1.1436,1.0822,0.9837,0.9311,0.9138,0.9138,0.9532,1.0043,0.9719,0.9947,1.0316,0.9539,0.9205,0.9105,0.8884,0.8804,0.8804,0.8804,0.8804,0.0,0.0,0.0,0.9106,0.0,0.0,0.9107,0.9427,0.9625,0.9826,0.0,1.0314,1.0419,1.0599,1.0664,1.0773,1.1037,1.124,1.1378,1.1423,1.1545,1.1654,1.1699,1.1707,1.1723,1.1768,1.1776,1.1776,1.1776,1.1776,1.1776,1.1776,1.1776,1.1776,1.1776,1.1776,1.1776,1.1776,1.1776,1.1776,1.1776,1.1776,1.1776,1.1776,1.1776,1.1776,1.1776,1.1776,1.1776,1.1776,1.1776,1.1776,1.1776,1.1776,1.1776,1.1776,1.1776,1.1776,1.1776,1.1776,1.1776,1.1776,0.0,0.0,0.0,0.0,0.0,0.0,0.0,0.0,0.0,0.0,0.0,0.0,0.7523,0.7502,0.7426,0.723,0.0,0.0,0.0,0.0,0.0,0.0,0.0,0.0,0.8804,0.8549,0.8543,0.8804,0.8543,0.9412,1.1369,1.1382,1.2351,1.3975,1.3119,1.1933,1.0593,1.0214,1.006,1.0017,1.0017,1.0043,1.0234,1.1303,1.1563,1.1249,1.0713,1.0287,0.992,0.9085,0.8804,0.8804,0.8804,0.8804,0.8804,0.0,0.0,0.0,0.0,0.9032,0.0,0.9229,0.9669,1.0056,0.0,1.0184,1.0383,1.0391,1.0578,1.07,1.0716,1.0871,1.1049,1.1208,1.1244,1.1313,1.1488,1.1516,1.1577,1.1756,1.1776,1.1776,1.1776,1.1776,1.1776,1.1776,1.1776,1.1776,1.1776,1.1776,1.1776,1.1776,1.1776,1.1776,1.1776,1.1776,1.1776,1.1776,1.1776,1.1776,1.1776,1.1776,1.1776,1.1776,1.1776,1.1776,1.1776,1.1776,1.1776,1.1776,1.1776,1.1776,1.1776,1.1776,1.1776,1.1776,0.0,0.0,0.0,0.0,0.0,0.0,0.0,0.0,0.0,0.0,0.0,0.0,0.0,0.7502,0.7419,0.7216,0.7118,0.0,0.0,0.0,0.0,0.0,0.0,0.0,0.8804,0.8549,0.8543,0.8804,0.8543,0.9132,1.0563,1.0975,1.149,1.2111,1.2358,1.2208,1.161,1.0561,1.0083,1.0134,1.0321,1.0848,1.1523,1.1563,1.1997,1.2472,1.1718,1.1002,1.0412,1.0254,0.9706,0.9058,0.9058,0.8931,0.8804,0.8804,0.8804,0.8782,0.0,0.0,0.0,0.8674,0.8991,0.9358,0.9372,0.9657,0.9981,1.0213,1.0404,1.0526,1.0526,1.0769,1.1045,1.1049,1.1151,1.1244,1.1313,1.1321,1.1346,1.1411,1.1419,1.1419,1.1419,1.1419,1.1419,1.1419,1.1419,1.1472,1.1593,1.1602,1.1654,1.1772,1.1776,1.1776,1.1776,1.1776,1.1776,1.1776,1.1776,1.1776,1.1776,1.1776,1.1776,1.1776,1.1776,1.1776,1.1776,1.1776,1.1776,1.1776,1.1776,1.1776,1.1776,1.1776,1.1776,1.1776,0.0,0.0,0.0,0.0,0.0,0.0,0.0,0.0,0.0,0.7844,0.0,0.0,0.0,0.0,0.7671,0.7451,0.7357,0.7306,0.7306,0.7772,0.0,0.0,0.0,0.0,0.0,0.8549,0.8543,0.8804,0.8543,0.8971,1.0127,1.0514,1.0855,1.1156,1.1543,1.1884,1.2098,1.1223,1.0795,1.0742,1.1169,1.1732,1.2331,1.2645,1.3066,1.3427,1.2864,1.2147,1.1464,1.1323,1.0635,0.9764,0.957,0.9171,0.8804,0.8804,0.8804,0.8797,0.8755,0.0,0.0,0.0,0.8982,0.9131,0.9409,0.9562,0.9717,0.9947,1.0176,1.0343,1.0343,1.0538,1.0792,1.0854,1.0968,1.1066,1.1131,1.1139,1.1159,1.1216,1.1224,1.1224,1.1224,1.1224,1.1224,1.1224,1.1224,1.1277,1.1399,1.1407,1.1464,1.1585,1.1589,1.1622,1.1683,1.1683,1.1715,1.1776,1.1776,1.1776,1.1776,1.1776,1.1776,1.1776,1.1776,1.1776,1.1776,1.1776,1.1776,1.1776,1.1776,1.1776,1.1776,1.1776,1.1776,1.1776,0.0,0.0,0.0,0.0,0.0,0.0,0.0,0.0,0.7858,0.8173,0.0,0.0,0.0,0.0,0.0,0.7943,0.7919,0.7919,0.7905,0.821,0.0,0.0,0.0,0.0,0.8804,0.8556,0.8549,0.8804,0.8549,0.8965,1.0043,1.0057,1.0516,1.1315,1.0802,1.1069,1.1886,1.2111,1.2091,1.1966,1.2522,1.261,1.2585,1.4596,1.4843,1.4128,1.4128,1.3748,1.3106,1.2275,1.1578,1.0922,1.0307,0.9519,0.8818,0.8811,0.8811,0.8818,0.0,0.0,0.0,0.0,0.0,0.0,1.0024,0.0,0.9661,0.9636,0.9931,1.018,1.02,1.0208,1.0326,1.0619,1.068,1.0749,1.0936,1.1016,1.1021,1.1187,1.1208,1.1208,1.1208,1.1208,1.1208,1.1208,1.1208,1.1208,1.1212,1.122,1.1224,1.1224,1.1224,1.1309,1.1488,1.1492,1.1585,1.1768,1.1768,1.1772,1.1776,1.1776,1.1776,1.1776,1.1776,1.1776,1.1776,1.1776,1.1776,1.1776,1.1776,1.1776,1.1776,1.1776,1.1776,1.1776,0.0,0.0,0.0,0.0,0.0,0.8421,0.8421,0.8421,0.8451,0.0,0.0,0.0,0.8546,0.8521,0.849,0.8416,0.8324,0.8163,0.7919,0.821,0.8402,0.8402,0.8651,0.8804,0.8804,0.8731,0.8731,0.8804,0.8731,0.8851,0.9172,0.9357,0.9697,1.0174,1.0472,1.0727,1.0935,1.0586,1.1096,1.2164,1.1897,1.2639,1.3948,1.4309,1.4696,1.503,1.503,1.4522,1.3841,1.3801,1.2966,1.1724,1.0501,0.963,0.9051,0.8871,0.8931,0.9044,0.8864,0.0,0.0,0.0,0.0,0.0,0.9132,0.9139,0.9249,0.9705,0.9817,0.9875,0.9965,1.0122,1.0245,1.0347,1.042,1.0566,1.0745,1.0769,1.0785,1.0834,1.0838,1.0838,1.0838,1.0838,1.0838,1.0838,1.0838,1.0899,1.1033,1.1155,1.1224,1.1224,1.1224,1.1248,1.1297,1.1297,1.139,1.1577,1.1577,1.1646,1.1776,1.1776,1.1776,1.1776,1.1776,1.1776,1.1776,1.1776,1.1776,1.1776,1.1776,1.1776,1.1776,1.1776,1.1776,1.1776,0.0,0.0,0.0,0.8692,0.8826,0.8914,0.8914,0.8914,0.8958,0.0,0.0,0.0,0.9066,0.9486,0.9541,0.9026,0.8894,0.8688,0.8292,0.8457,0.8557,0.8557,0.8717,0.8804,0.8804,0.8804,0.8804,0.8804,0.8804,0.8804,0.8811,0.8951,0.9124,0.9332,0.9708,0.9923,0.998,0.9512,1.0334,1.1971,1.2371,1.326,1.4389,1.483,1.5244,1.5611,1.5852,1.5538,1.5003,1.505,1.3915,1.2278,1.1049,1.0316,0.9837,0.9325,0.9466,0.9726,0.9432,0.9385,0.9425,0.9508,0.0,0.0,0.9718,0.9337,0.8998,0.9624,0.9518,0.9359,0.9412,0.9652,0.9898,0.9929,1.0087,1.027,1.0444,1.0538,1.0586,1.0586,1.0647,1.0692,1.0692,1.0692,1.0692,1.0692,1.0692,1.0741,1.0846,1.0948,1.1001,1.1001,1.1001,1.1037,1.1118,1.1118,1.1208,1.1382,1.1464,1.1557,1.1663,1.174,1.1776,1.1776,1.1776,1.1776,1.1776,1.1776,1.1776,1.1776,1.1776,1.1776,1.1776,1.1776,1.1776,1.1776,0.0,0.0,0.8802,0.8838,0.9112,0.9332,0.9398,0.9383,0.9478,0.0,0.9636,0.9705,1.0192,1.0962,1.097,0.9818,0.9625,0.933,0.8871,0.8824,0.8804,0.8804,0.8804,0.8804,0.8804,0.8804,0.8804,0.8804,0.8804,0.8804,0.8804,0.8804,0.8804,0.8804,0.8804,0.8924,0.9158,0.9051,0.994,1.1529,1.3153,1.3968,1.4376,1.5678,1.6072,1.5992,1.652,1.654,1.6273,1.5939,1.4563,1.2871,1.1911,1.1423,1.1015,1.0134,1.0325,1.0713,1.0347,1.0094,1.0154,1.1096,1.0396,0.0,1.0936,1.0052,0.9068,0.9468,0.9201,0.8943,0.8938,0.9284,0.9573,0.9692,0.985,0.9981,1.018,1.0302,1.0404,1.0404,1.0542,1.0631,1.0631,1.0651,1.0664,1.0664,1.068,1.0692,1.0692,1.0692,1.0692,1.0692,1.0692,1.0769,1.0936,1.0996,1.1025,1.1196,1.1362,1.1459,1.1504,1.1671,1.1756,1.1776,1.1776,1.1776,1.1776,1.1776,1.1776,1.1776,1.1776,1.1776,1.1776,1.1776,1.1776,1.1776,0.0,0.927,0.9519,0.9775,0.9877,1.0097,1.0652,1.0506,1.055,1.1136,1.1355,1.1689,1.2339,1.1981,1.1586,1.1217,1.0366,0.9636,0.9144,0.8911,0.8804,0.8804,0.8804,0.8804,0.8804,0.8804,0.8804,0.8804,0.8804,0.8804,0.8804,0.8804,0.8804,0.8804,0.8804,0.8838,0.8951,0.9869,1.0681,1.1422,1.1768,1.3227,1.517,1.5458,1.5972,1.6547,1.6667,1.6667,1.654,1.6005,1.5251,1.4378,1.3213,1.2652,1.2268,1.1343,1.1503,1.185,1.1316,1.1303,1.1363,1.0881,1.1082,0.0,1.0253,1.0303,1.0405,0.9926,0.973,0.9728,0.9815,1.0082,1.0273,1.0318,1.0249,1.0224,1.0178,1.0245,1.0213,1.0213,1.0245,1.0318,1.0318,1.04,1.0485,1.0485,1.0611,1.0692,1.0692,1.0692,1.0692,1.0692,1.0692,1.0708,1.0745,1.0745,1.0838,1.1021,1.1057,1.122,1.15,1.1537,1.1634,1.1776,1.1776,1.1776,1.1776,1.1776,1.1776,1.1776,1.1776,1.1776,1.1776,1.1776,1.1776,1.1776,0.9394,0.9511,0.9716,1.0046,1.0236,1.0594,1.1246,1.121,1.1335,1.1955,1.2606,1.2943,1.2782,1.2844,1.2515,1.1593,1.0821,1.0083,0.9411,0.9072,0.8857,0.8804,0.8804,0.8804,0.8804,0.8804,0.8804,0.8804,0.8804,0.8804,0.8804,0.8804,0.8965,0.9232,0.8938,0.9051,0.9479,0.9773,1.0408,1.1303,1.2338,1.3901,1.5645,1.5939,1.6506,1.7141,1.7141,1.7048,1.6814,1.6079,1.5538,1.4977,1.3794,1.352,1.3427,1.2385,1.2505,1.2801,1.2245,1.2084,1.2051,1.1917,1.1764,0.0,0.0,1.0796,1.0454,1.0665,0.9986,0.9525,1.0042,1.0129,1.0207,1.0362,1.0648,1.0789,1.0597,1.0287,1.0073,1.0073,1.0159,1.0212,1.0212,1.0245,1.0298,1.0298,1.0465,1.0562,1.0562,1.0643,1.0692,1.0692,1.0692,1.0692,1.0692,1.0692,1.0741,1.0834,1.0923,1.1062,1.124,1.1419,1.1549,1.1646,1.1736,1.1776,1.1776,1.1776,1.1776,1.1776,1.1776,1.1776,1.1776,1.1776,1.1776,1.1776,0.9588,0.9588,0.9716,1.0046,1.0375,1.0836,1.1489,1.1591,1.1892,1.2694,1.3601,1.3938,1.3331,1.3806,1.3652,1.2328,1.1574,1.0863,1.013,0.9508,0.916,0.9112,0.8898,0.8864,0.8978,0.8864,0.8804,0.8804,0.8804,0.8804,0.8804,0.8804,0.9092,0.9579,0.9158,0.9432,1.0174,0.9724,1.029,1.1657,1.3394,1.4616,1.5445,1.6246,1.6867,1.7355,1.7522,1.7481,1.7159,1.6273,1.5845,1.5451,1.4292,1.4299,1.4563,1.3527,1.3554,1.382,1.336,1.3038,1.2879,1.3146,1.2574,1.2091,0.0,0.0,0.0,1.1249,1.0292,0.9515,1.0289,1.0242,1.0193,1.0466,1.0981,1.1278,1.1,1.0435,1.0043,1.0164,1.0092,1.0071,1.0254,1.0127,1.0065,1.0204,1.0201,1.0274,1.0375,1.0546,1.0643,1.0643,1.0676,1.0692,1.0692,1.0692,1.0692,1.0692,1.0842,1.0936,1.1037,1.1265,1.1435,1.1508,1.1658,1.1744,1.1776,1.1776,1.1776,1.1776,1.1776,1.1776,1.1776,1.1776,1.1776,1.1776,0.9588,0.9588,0.9716,1.0046,1.0375,1.0836,1.1489,1.1591,1.2142,1.3616,1.4406,1.5075,1.5848,1.5277,1.4903,1.5101,1.3279,1.215,1.215,1.0729,0.999,1.0198,0.9308,0.9051,0.9573,0.9072,0.8804,0.8804,0.8804,0.8804,0.8804,0.8804,0.8951,0.9271,0.9499,0.9956,1.0553,1.0715,1.1784,1.3347,1.3888,1.4008,1.3999,1.5365,1.6132,1.6576,1.7301,1.7562,1.7435,1.6814,1.6587,1.6393,1.5484,1.5418,1.5551,1.4948,1.4943,1.5124,1.4841,1.4733,1.4472,1.3454,1.3694,1.3647,1.165,0.0,1.2174,1.124,0.0,1.114,1.1238,0.0,0.0,1.1261,1.1241,1.112,1.0871,1.0607,1.0633,1.1161,1.0027,0.9603,1.0569,0.9776,0.9482,1.0167,0.9788,0.9739,1.022,1.0367,1.0411,1.0411,1.0611,1.0692,1.0692,1.0692,1.0692,1.0692,1.0712,1.081,1.1028,1.1069,1.12,1.15,1.152,1.1626,1.1776,1.1776,1.1776,1.1776,1.1776,1.1776,1.1776,1.1776,1.1776,1.1776,0.9588,0.9588,0.9716,1.0046,1.0214,1.0587,1.1459,1.256,1.3594,1.4428,1.5262,1.5921,1.6367,1.6009,1.5681,1.5494,1.4464,1.3446,1.2551,1.1774,1.1083,1.0543,1.0007,0.9721,0.9708,0.9272,0.8951,0.8804,0.8804,0.8804,0.8804,0.8804,0.9239,1.0013,1.0164,1.0834,1.1859,1.177,1.2184,1.2881,1.3567,1.3613,1.3627,1.5778,1.678,1.7081,1.7448,1.7582,1.7468,1.6707,1.6567,1.6553,1.5671,1.5591,1.5752,1.5337,1.5304,1.5331,1.5089,1.5129,1.5017,1.4182,1.4122,1.3921,1.2585,1.2295,1.2228,1.208,0.0,0.0,0.0,0.0,0.0,0.0,1.152,1.1447,1.0975,1.0672,1.0526,1.0643,1.008,0.9791,1.003,0.9322,0.8999,0.9506,0.9336,0.9397,0.9827,1.0221,1.0383,1.0383,1.0603,1.0692,1.0692,1.0692,1.0692,1.0692,1.0692,1.0733,1.081,1.0975,1.1106,1.1342,1.1451,1.1606,1.1776,1.1776,1.1776,1.1776,1.1776,1.1776,1.1776,1.1776,1.1776,1.1776,0.9588,0.9588,0.9687,0.9929,1.0119,1.0594,1.1694,1.3213,1.4414,1.4958,1.5752,1.6411,1.685,1.6821,1.6689,1.6499,1.5892,1.5037,1.3784,1.31,1.2381,1.1655,1.0973,1.0499,1.0311,0.9737,0.9246,0.8898,0.8844,0.8844,0.8898,0.8844,0.9345,1.0365,1.0687,1.1511,1.267,1.2746,1.2973,1.3327,1.3939,1.4266,1.4589,1.6321,1.7239,1.7582,1.7582,1.7582,1.7475,1.6804,1.6703,1.67,1.5979,1.5899,1.6012,1.5718,1.5691,1.5671,1.5304,1.5418,1.5438,1.4609,1.4242,1.3888,1.3133,1.2585,1.2368,1.2717,1.2234,0.0,0.0,0.0,0.0,0.0,0.0,1.1672,0.0,1.0689,1.0504,1.0445,1.0484,1.0357,0.9952,0.9285,0.9039,0.9305,0.9153,0.9154,0.9522,0.9973,1.0205,1.0359,1.053,1.0643,1.0692,1.0692,1.0692,1.0692,1.0692,1.0692,1.0696,1.0834,1.0988,1.1163,1.1346,1.1529,1.1703,1.1756,1.1776,1.1776,1.1776,1.1776,1.1776,1.1776,1.1776,1.1776,0.9588,0.9588,0.9588,0.9629,1.0155,1.1004,1.2299,1.3082,1.3982,1.5206,1.5673,1.6521,1.8072,1.7955,1.8145,1.9074,1.7984,1.7106,1.68,1.4856,1.3901,1.4153,1.2199,1.1295,1.1812,1.0619,0.9725,0.9198,0.8918,0.8924,0.9191,0.8911,0.9132,0.9789,1.0895,1.1744,1.2392,1.354,1.4683,1.5671,1.5704,1.6433,1.7361,1.6643,1.6884,1.7582,1.7582,1.7582,1.7535,1.728,1.7179,1.7132,1.676,1.6667,1.662,1.6333,1.644,1.654,1.5959,1.6019,1.5899,1.4456,1.4095,1.3781,1.2599,1.2766,1.3086,1.2844,1.318,1.344,1.3227,1.2951,0.0,0.0,0.0,0.0,0.0,1.0588,1.0789,1.1307,1.1457,1.1312,1.07,1.0077,0.9757,0.9969,0.9271,0.8965,0.9403,0.9547,0.9815,1.0212,1.0351,1.0521,1.0688,1.0692,1.0692,1.0692,1.0692,1.0692,1.0692,1.07,1.0802,1.0984,1.1155,1.1338,1.1524,1.1703,1.1776,1.1776,1.1776,1.1776,1.1776,1.1776,1.1776,1.1776,0.9936,1.0111,1.0119,0.9661,0.9972,1.085,1.2577,1.3755,1.4951,1.6447,1.6967,1.7706,1.9118,1.9169,1.9242,1.9625,1.9199,1.8475,1.7363,1.6546,1.5886,1.5303,1.4119,1.3407,1.3286,1.2116,1.1132,1.0332,0.9879,0.9655,0.0,0.0,0.0,1.0455,1.135,1.2265,1.3227,1.4456,1.507,1.5291,1.5671,1.6533,1.7549,1.7248,1.7321,1.7582,1.7582,1.7582,1.7569,1.7521,1.736,1.7186,1.7085,1.6867,1.6687,1.6587,1.6627,1.666,1.6466,1.6627,1.6596,1.5271,1.481,1.4398,1.3173,1.3206,1.3353,1.2891,1.338,1.3788,1.33,0.0,0.0,0.0,0.0,0.0,0.0,0.0,0.99,1.0456,1.0591,1.0446,0.9997,0.9399,0.9058,0.906,0.8682,0.8681,0.9192,0.9575,0.9851,0.9973,1.0274,1.0411,1.0521,1.0635,1.0692,1.0692,1.0692,1.0692,1.0692,1.0692,1.0794,1.1033,1.1147,1.1325,1.1516,1.1699,1.1776,1.1776,1.1776,1.1776,1.1776,1.1776,1.1776,1.1776,1.0294,1.0441,1.0455,1.0031,1.0616,1.1677,1.3279,1.4721,1.6074,1.7286,1.7889,1.8613,1.9806,1.993,1.9974,2.0091,2.0106,1.9497,1.805,1.7865,1.7428,1.659,1.5878,1.5281,1.4782,1.3705,1.2536,1.133,1.0866,1.0472,0.0,0.0,0.0,0.0,1.1709,1.258,1.3427,1.503,1.5658,1.5631,1.6219,1.6907,1.7582,1.7582,1.7582,1.7582,1.7582,1.7582,1.7582,1.7582,1.7514,1.7353,1.7353,1.7168,1.7001,1.6894,1.6934,1.6974,1.6767,1.6921,1.6945,1.5818,1.5411,1.4963,1.3788,1.3828,1.3941,1.3387,1.3761,1.4162,1.3888,1.3414,0.0,0.0,0.0,0.0,0.0,0.9639,0.9511,0.992,1.0155,0.0,0.0,0.9428,0.898,0.8767,0.8484,0.8522,0.8958,0.9384,0.9689,0.988,1.018,1.0371,1.0383,1.0607,1.0692,1.0692,1.0692,1.0692,1.0692,1.0692,1.0757,1.0883,1.1122,1.1289,1.1419,1.1671,1.1776,1.1776,1.1776,1.1776,1.1776,1.1776,1.1776,1.1776,1.0697,1.0689,1.0741,1.0806,1.2014,1.3353,1.4423,1.5883,1.713,1.7794,1.8438,1.9206,2.0124,2.0227,2.0358,2.072,2.075,2.0216,1.8964,1.8869,1.8622,1.8024,1.7377,1.6769,1.6363,1.5311,1.3947,1.2268,1.1838,1.1305,0.0,0.0,0.0,0.0,1.1957,1.2689,1.2997,1.529,1.6469,1.678,1.7355,1.7635,1.7635,1.7602,1.7602,1.7655,1.7589,1.7582,1.7582,1.7582,1.7582,1.7582,1.7582,1.7582,1.7528,1.73,1.742,1.7462,1.6901,1.6954,1.7018,1.6106,1.5872,1.5558,1.4429,1.466,1.4908,1.4275,1.4396,1.4676,1.4948,1.4242,0.0,0.0,0.0,0.0,0.0,0.0,0.9769,0.9766,0.0,0.0,0.0,1.0056,0.9468,0.9019,0.8585,0.8448,0.0,0.9029,0.9367,0.9843,1.0106,1.0245,1.0366,1.0603,1.0692,1.0692,1.0692,1.0692,1.0692,1.0692,1.0692,1.0712,1.1066,1.1224,1.1252,1.1622,1.1776,1.1776,1.1776,1.1776,1.1776,1.1776,1.1776,1.1776,1.1357,1.212,1.2899,1.3425,1.3214,1.3579,1.5284,1.6082,1.7116,1.8686,1.9257,1.9879,2.0852,2.0955,2.0998,2.1079,2.1086,2.0845,2.0267,2.0003,1.9774,1.9641,1.876,1.8242,1.8143,1.6334,1.5045,1.4413,1.2728,1.1887,1.1843,0.0,0.0,0.0,0.0,1.291,1.366,1.5209,1.6318,1.7119,1.7435,1.7747,1.7879,1.7896,1.803,1.8217,1.7768,1.7582,1.7582,1.7582,1.7582,1.7582,1.7582,1.7582,1.7569,1.7548,1.7522,1.7549,1.7402,1.7408,1.7361,1.6971,1.648,1.6025,1.5498,1.5671,1.5819,1.5184,1.5464,1.5578,1.4783,1.4269,1.3707,0.0,0.0,0.0,0.0,0.0,1.0526,1.0929,1.0767,0.0,0.9983,0.947,0.8997,0.8569,0.8637,0.868,0.8641,0.9332,0.9625,0.9526,0.998,1.0237,1.0233,1.0538,1.0692,1.0692,1.0692,1.0692,1.0692,1.0692,1.0692,1.0712,1.1066,1.1224,1.1252,1.1622,1.1776,1.1776,1.1776,1.1776,1.1776,1.1776,1.1776,1.1776,1.2442,1.3448,1.4501,1.5013,1.4874,1.5109,1.6345,1.6923,1.7713,1.9096,1.9681,2.0179,2.0728,2.1035,2.1211,2.1211,2.1211,2.1013,2.0482,2.0603,2.0537,2.019,1.985,1.9506,1.922,1.777,1.6422,1.5313,1.382,1.2763,1.2166,0.0,0.0,0.0,0.0,1.3045,1.3512,1.5466,1.6821,1.7725,1.8025,1.8337,0.0,1.8605,1.8721,1.8856,1.8522,1.8245,1.7976,1.7976,1.7896,1.7782,1.7782,1.7695,1.7582,1.7582,1.7582,1.7582,1.7582,1.7582,1.7542,1.7434,1.7139,1.6734,1.6306,1.6339,1.6333,1.5872,1.5939,1.5919,1.5384,1.4736,1.3895,0.0,0.0,0.0,1.1035,1.0888,1.0854,1.1022,1.0901,1.0553,0.9927,0.9116,0.855,0.8297,0.8452,0.8535,0.8478,0.9423,0.972,0.9282,0.989,1.0212,1.0212,1.1048,1.1177,1.0692,1.1232,1.1177,1.0692,1.0692,1.0692,1.0712,1.1066,1.1224,1.1252,1.1622,1.1776,1.1776,1.1776,1.1776,1.1776,1.1776,1.1776,1.1776,1.374,1.4757,1.5709,1.5987,1.663,1.7277,1.7596,1.8094,1.8679,1.9374,2.0025,2.0387,2.0431,2.0998,2.1335,2.1335,2.1335,2.1079,2.0464,2.0955,2.1006,2.0336,2.0596,2.0464,1.9955,1.9081,1.7677,1.5637,1.4779,1.3572,0.0,0.0,0.0,0.0,0.0,0.0,0.0,1.6011,1.7575,1.845,1.8765,1.9127,1.9463,1.945,1.9471,1.9534,1.9513,1.9099,1.8539,1.8539,1.8317,1.8049,1.8049,1.7889,1.7695,1.7642,1.7668,1.7635,1.7635,1.7582,1.7582,1.7582,1.7582,1.7448,1.6934,1.682,1.6747,1.65,1.6206,1.6046,1.6186,1.5257,1.4028,0.0,1.2017,1.1562,1.1423,1.1296,1.1142,1.0968,1.1095,0.0,1.0294,0.9093,0.831,0.8201,0.8257,0.8353,0.8485,0.954,0.997,0.9499,1.0212,1.0603,1.0625,1.1919,1.2014,1.0907,1.1932,1.1823,1.0692,1.0692,1.0704,1.0749,1.1078,1.1236,1.1285,1.1634,1.1776,1.1776,1.1776,1.1776,1.1776,1.1776,1.1776,1.1776,1.4995,1.5906,1.6668,1.6727,1.7669,1.865,1.9294,1.9258,1.9433,2.0347,2.1035,2.154,2.1818,2.1942,2.2015,2.2015,2.2015,2.1854,2.1467,2.1547,2.1445,2.1057,2.0837,2.0669,2.0559,1.8869,1.7662,1.695,1.4757,1.3243,0.0,0.0,0.0,0.0,0.0,0.0,1.5526,1.68,1.7789,1.851,1.8765,1.9236,1.9752,1.9745,1.9906,2.0117,2.0139,1.9562,1.8809,1.8809,1.8665,1.841,1.841,1.8367,1.8285,1.8017,1.7949,1.7859,1.7635,1.7582,1.7582,1.7582,1.7582,1.7555,1.7448,1.7428,1.7415,1.7361,1.7172,1.6757,1.6032,1.495,1.3995,1.3453,1.308,1.3053,1.348,1.2945,1.2549,1.2719,1.2351,1.175,1.0922,0.9777,0.9,0.879,0.8765,0.8981,0.9434,1.0444,1.1138,1.1481,1.2127,1.2592,1.2828,1.3242,1.2991,1.2091,1.2309,1.1823,1.0692,1.0692,1.0773,1.0932,1.1135,1.1309,1.1468,1.1687,1.1776,1.1776,1.1776,1.1776,1.1776,1.1776,1.1776,1.1776,1.6601,1.7172,1.7761,1.8099,1.8899,1.9762,2.0413,2.0794,2.1006,2.0976,2.1247,2.1503,2.1657,2.1979,2.2184,2.2184,2.2184,2.2118,2.1957,2.195,2.1803,2.1474,2.1313,2.1072,2.0728,1.9477,1.8335,1.7279,1.5431,1.3909,1.276,0.0,0.0,0.0,0.0,1.4637,0.0,1.7471,1.8383,1.9194,1.9675,2.0111,2.0525,2.0508,2.0636,2.0771,2.0745,2.0366,1.9822,1.966,1.9451,1.9152,1.9152,1.8947,1.87,1.8707,1.8598,1.8447,1.8337,1.8289,1.8201,1.7893,1.7799,1.7747,1.7635,1.7694,1.7747,1.7635,1.7632,1.7313,1.6268,1.5224,1.4442,1.4106,1.3854,1.3768,1.4048,1.3581,1.3153,1.3025,0.0,0.0,1.1089,1.0503,0.9952,0.9353,0.9138,0.9288,0.9924,1.0755,1.1398,1.1896,1.2485,1.2977,1.3392,1.4194,1.4164,1.3275,1.3922,1.328,1.1555,1.1555,1.1393,1.1033,1.1147,1.1325,1.1516,1.1699,1.1776,1.1776,1.1776,1.1776,1.1776,1.1776,1.1776,1.1776,1.8064,1.8386,1.8818,1.9469,2.0179,2.0845,2.1423,2.2323,2.2615,2.173,2.1672,2.1745,2.1811,2.222,2.2484,2.2484,2.2418,2.2352,2.2279,2.2279,2.2132,2.1818,2.173,2.1459,2.094,2.023,1.9103,1.749,1.6257,1.4765,1.3104,0.0,0.0,0.0,0.0,1.5487,1.7167,1.8021,1.9008,2.0011,2.0516,2.0918,2.1211,2.1211,2.1211,2.1211,2.1211,2.1024,2.078,2.0558,2.0223,1.9906,1.9906,1.9591,1.9237,1.9451,1.9292,1.9078,1.8998,1.894,1.8775,1.8326,1.8117,1.801,1.7845,1.7905,1.801,1.7793,1.7855,1.7586,1.6567,1.5759,1.512,1.4669,1.4422,1.4295,1.4355,1.4001,1.3561,1.3125,0.0,0.0,1.1276,1.0902,1.0481,0.9943,0.9481,0.9573,1.041,1.1095,1.1732,1.2357,1.292,1.347,1.4027,1.5143,1.5274,1.4513,1.5429,1.4781,1.2738,1.2738,1.2394,1.1811,1.1674,1.1579,1.1569,1.1715,1.1776,1.1776,1.1776,1.1776,1.1776,1.1776,1.1776,1.1776,1.9074,1.9456,1.9828,2.0472,2.1372,2.2111,2.244,2.3318,2.3698,2.3018,2.3186,2.3486,2.3786,2.3603,2.3464,2.3464,2.3193,2.2901,2.2601,2.2579,2.2447,2.2154,2.1854,2.1672,2.1606,2.0676,1.9542,1.8211,1.6916,1.5347,1.3448,1.3389,1.366,1.4291,1.5604,1.6733,1.7772,1.8452,1.9477,2.064,2.0698,2.0918,2.1211,2.1211,2.1211,2.1211,2.1211,2.1211,2.1146,2.1146,2.0723,2.0228,2.0228,2.0196,2.0131,1.9822,1.973,1.9661,1.9428,1.9108,1.8877,1.8849,1.8579,1.837,1.8318,1.8318,1.837,1.8318,1.7923,1.7385,1.6786,1.6334,1.5858,1.5062,1.4941,1.5022,1.5237,1.4563,1.4021,1.3968,0.0,0.0,1.1859,1.062,1.0023,1.0472,0.9977,1.0129,1.1226,1.1867,1.2818,1.4209,1.4838,1.5429,1.6006,1.6394,1.6298,1.5755,1.5861,1.5209,1.3922,1.3922,1.4171,1.4488,1.3312,1.2404,1.1752,1.1768,1.1776,1.1776,1.1776,1.1776,1.1776,1.1776,1.1776,1.1776,2.0662,2.0676,2.0955,2.1979,2.2169,2.241,2.3098,2.3537,2.3698,2.3435,2.3684,2.394,2.4064,2.3962,2.3888,2.3888,2.3771,2.3552,2.323,2.3208,2.2981,2.2469,2.2323,2.2169,2.1993,2.1218,2.0377,1.9462,1.7969,1.6543,1.5245,1.4633,1.4714,1.5394,1.6667,1.7669,1.8452,1.9301,2.0069,2.0742,2.094,2.1094,2.1211,2.1211,2.1211,2.1211,2.1211,2.1211,2.1211,2.1211,2.1031,2.0859,2.0859,2.0709,2.0544,2.0608,2.0508,2.0308,2.0185,2.0096,1.9854,1.9259,1.9021,1.8872,1.8464,1.8534,1.8646,1.8422,1.7932,1.7421,1.7203,1.6498,1.5891,1.5737,1.5581,1.5514,1.5618,1.5179,1.471,1.4369,0.0,1.2659,1.2178,1.1122,1.0641,1.1049,0.9886,0.9746,1.1096,1.1557,1.2458,1.3906,1.4736,1.5551,1.6315,1.656,1.679,1.6935,1.6935,1.6293,1.5167,1.5366,1.5332,1.5074,1.3941,1.3218,1.29,1.2134,1.1776,1.1776,1.1776,1.1776,1.1776,1.1776,1.1776,1.1776,2.1906,2.1781,2.1972,2.3062,2.2886,2.2857,2.3618,2.3735,2.3735,2.3735,2.394,2.4086,2.4086,2.3998,2.394,2.394,2.3852,2.3698,2.3464,2.3545,2.3347,2.2791,2.2762,2.2623,2.2315,2.1774,2.113,2.0321,1.9133,1.7984,1.6923,1.625,1.6184,1.6813,1.7904,1.8694,1.9264,1.9993,2.0511,2.0889,2.1115,2.1211,2.1211,2.1211,2.1211,2.1211,2.1211,2.1211,2.1211,2.1211,2.1211,2.1211,2.1211,2.1024,2.0902,2.1146,2.1024,2.0852,2.0869,2.0794,2.0555,1.9885,1.9578,1.9323,1.8935,1.9174,1.942,1.9198,1.8629,1.8086,1.7704,1.684,1.6183,1.6208,1.6032,1.5904,1.5873,1.5538,1.5147,1.468,1.3709,1.2889,1.2502,1.1563,1.1182,1.1615,1.0454,1.0234,1.1477,1.1703,1.2452,1.3813,1.4756,1.5558,1.6315,1.6647,1.7088,1.7582,1.7582,1.7206,1.6411,1.6767,1.651,1.574,1.5103,1.4376,1.3605,1.2724,1.213,1.1776,1.1776,1.1776,1.1776,1.1776,1.1776,1.1776,2.2557,2.2608,2.2813,2.3471,2.3581,2.3691,2.4027,2.4079,2.4079,2.4079,2.4079,2.4086,2.4086,2.3793,2.3603,2.3603,2.331,2.312,2.312,2.342,2.3449,2.312,2.3106,2.2952,2.2623,2.2323,2.1693,2.072,2.0321,1.9497,1.8277,1.8262,1.8438,1.8782,1.9447,1.9916,2.0183,2.0574,2.0903,2.1203,2.1211,2.1211,2.1211,2.1211,2.1211,2.1211,2.1211,2.1211,2.1211,2.1211,2.1211,2.1211,2.1211,2.1211,2.1211,2.1211,2.1211,2.1211,2.1203,2.0969,2.072,2.0713,2.023,1.9815,1.9755,2.0375,2.0885,2.0885,2.0321,1.9447,1.8158,1.7402,1.6825,1.6281,1.6213,1.6155,1.6123,1.5642,1.5205,1.4934,1.3608,1.2736,1.2788,1.1718,1.1356,1.2225,1.2004,1.2127,1.2768,1.2764,1.332,1.4426,1.5357,1.5965,1.6321,1.6904,1.734,1.7582,1.7582,1.7582,1.7602,1.821,1.7953,1.7011,1.7334,1.6031,1.3725,1.3665,1.296,1.1776,1.1776,1.1776,1.1776,1.1776,1.1776,1.1776,2.3223,2.3288,2.342,2.3852,2.3742,2.3632,2.3735,2.3567,2.342,2.342,2.342,2.342,2.342,2.372,2.3925,2.3925,2.383,2.3676,2.3457,2.3537,2.3449,2.3128,2.3106,2.3062,2.2952,2.2645,2.233,2.2015,2.1269,2.0347,1.9294,1.9294,1.9404,1.9536,2.0128,2.0472,2.0533,2.0918,2.1115,2.1211,2.1211,2.1211,2.1211,2.1211,2.1211,2.1211,2.1211,2.1211,2.1211,2.1211,2.1211,2.1211,2.1211,2.1211,2.1211,2.1211,2.1211,2.1211,2.1211,2.113,2.1006,2.0779,2.0398,2.0025,1.9813,2.0375,2.0885,2.0885,2.0562,1.9826,1.8442,1.7671,1.7377,1.7641,1.7174,1.6889,1.735,1.6342,1.5452,1.5208,1.4075,1.3339,1.3347,1.2683,1.2342,1.2623,1.2181,1.2074,1.2425,1.3026,1.3527,1.3866,1.5118,1.5972,1.6321,1.6911,1.7347,1.7582,1.7582,1.7802,1.8217,1.8604,1.8711,1.8577,1.7833,1.7038,1.6149,1.4436,1.343,1.302,1.213,1.1776,1.1776,1.1776,1.1776,1.1893,2.3581,2.3596,2.3618,2.3698,2.3545,2.3413,2.3413,2.3237,2.3106,2.3106,2.3106,2.3106,2.3106,2.3471,2.372,2.372,2.372,2.3632,2.3427,2.353,2.3449,2.3128,2.323,2.3237,2.3113,2.2908,2.2747,2.2623,2.192,2.1269,2.0725,2.0725,2.0725,2.0747,2.1094,2.1269,2.1284,2.1489,2.1576,2.1576,2.1576,2.1576,2.1576,2.1576,2.1576,2.1576,2.1576,2.1576,2.1576,2.1576,2.1496,2.1393,2.1393,2.1306,2.1211,2.1211,2.1211,2.1211,2.1211,2.1211,2.1159,2.0955,2.0662,2.0515,2.0901,2.1596,2.1988,2.1582,2.1245,2.044,1.8647,1.8181,1.8223,1.8481,1.8303,1.811,1.8102,1.7131,1.6147,1.5497,1.4584,1.4008,1.3925,1.3649,1.3501,1.3615,1.338,1.3273,1.3454,1.354,1.3853,1.4406,1.5518,1.6299,1.665,1.7125,1.7454,1.7582,1.7702,1.807,1.8657,1.8838,1.9085,1.9366,1.8583,1.7929,1.7396,1.5795,1.4555,1.3605,1.284,1.2191,1.1837,1.2367,1.2483,1.2724,2.3618,2.3567,2.3464,2.3164,2.3106,2.3106,2.3106,2.3106,2.3106,2.3106,2.3106,2.3106,2.3106,2.3106,2.3106,2.3106,2.3106,2.3106,2.3106,2.3391,2.3427,2.312,2.3398,2.342,2.312,2.3106,2.2959,2.2652,2.2359,2.2213,2.2213,2.2191,2.2184,2.2184,2.2184,2.2184,2.2184,2.2184,2.2184,2.2184,2.2184,2.2184,2.2184,2.2184,2.2184,2.2184,2.2184,2.2184,2.2184,2.2184,2.1979,2.173,2.173,2.1525,2.1269,2.1218,2.1211,2.1211,2.1211,2.1211,2.1211,2.1211,2.1018,2.1201,2.2655,2.3595,2.3877,2.2844,2.235,2.1409,1.8874,1.8972,1.9335,1.8976,1.9492,1.9587,1.8567,1.7921,1.7075,1.5792,1.5127,1.4719,1.4593,1.4618,1.4713,1.4972,1.5281,1.5403,1.5383,1.4335,1.4402,1.5738,1.642,1.6867,1.7199,1.7494,1.7595,1.7615,1.7896,1.8342,1.8925,1.8945,1.9105,1.9424,1.9424,1.8706,1.763,1.7513,1.609,1.3963,1.3844,1.3135,1.2195,1.337,1.3844,1.4018,2.3237,2.3223,2.3201,2.312,2.3106,2.3106,2.3106,2.3106,2.3106,2.3106,2.3106,2.3106,2.3106,2.3106,2.3106,2.3106,2.3106,2.3106,2.3106,2.3179,2.3186,2.3113,2.3186,2.3186,2.3106,2.3106,2.3069,2.2996,2.2674,2.252,2.2513,2.2286,2.2184,2.2184,2.2184,2.2184,2.2184,2.2184,2.2184,2.2184,2.2184,2.2184,2.2184,2.2184,2.2184,2.2184,2.2184,2.2184,2.2184,2.2184,2.2132,2.2067,2.2067,2.2015,2.1854,2.1357,2.1211,2.1211,2.1211,2.1211,2.1211,2.1211,2.1616,2.2213,2.2864,2.3877,2.4441,2.3854,2.366,2.283,2.0347,2.0427,2.0783,2.031,2.02,2.0025,1.9796,1.8681,1.7467,1.642,1.5814,1.5448,1.5404,1.5638,1.5517,1.4886,1.5337,1.5449,1.5038,1.5157,1.5433,1.5812,1.662,1.7132,1.7199,1.7494,1.7702,1.7889,1.8415,1.8791,1.8931,1.9158,1.9299,1.9424,1.9424,1.9249,1.8887,1.7929,1.7155,1.6503,1.551,1.4981,1.4743,1.5035,1.5268,1.5612,2.3106,2.3106,2.3106,2.3106,2.3106,2.3106,2.3106,2.3237,2.3332,2.3332,2.3464,2.3501,2.3347,2.3332,2.3274,2.312,2.3106,2.3106,2.3106,2.3106,2.3106,2.3106,2.3106,2.3106,2.3106,2.3106,2.3106,2.3106,2.293,2.2842,2.2842,2.2681,2.2608,2.2608,2.2608,2.2608,2.2608,2.2608,2.2608,2.2608,2.2608,2.2608,2.2608,2.2608,2.2608,2.2608,2.2608,2.2608,2.2608,2.2608,2.2506,2.2381,2.2381,2.2293,2.2118,2.1759,2.1547,2.143,2.143,2.132,2.1211,2.1211,2.2218,2.3265,2.3453,2.4702,2.5566,2.4623,2.444,2.375,2.1536,2.1619,2.1905,2.1516,2.1491,2.1167,2.0135,1.9323,1.8271,1.6857,1.6304,1.6119,1.6267,1.6331,1.6179,1.5667,1.5941,1.6025,1.5906,1.623,1.632,1.6226,1.6827,1.7266,1.7393,1.7649,1.8016,1.8395,1.8715,1.8991,1.9132,1.9292,1.9424,1.9424,1.9424,1.9424,1.9366,1.8648,1.8046,1.7455,1.675,1.6101,1.5688,1.6385,1.6733,1.7079,2.3106,2.3149,2.3186,2.3186,2.3223,2.3252,2.3252,2.3493,2.3669,2.3669,2.391,2.3976,2.3698,2.3669,2.3537,2.3208,2.3186,2.3164,2.3113,2.3106,2.3106,2.3106,2.3106,2.3106,2.3106,2.3106,2.3106,2.3106,2.3106,2.3106,2.3106,2.3106,2.3106,2.3106,2.3106,2.3106,2.3106,2.3106,2.3106,2.3106,2.3106,2.3106,2.3106,2.3106,2.3106,2.3106,2.3106,2.3106,2.3106,2.3106,2.2923,2.2696,2.2696,2.252,2.2323,2.2323,2.2096,2.1818,2.1723,2.1568,2.1482,2.171,2.3141,2.4464,2.4404,2.5814,2.6727,2.5372,2.5089,2.4528,2.2763,2.2766,2.2833,2.2244,2.2681,2.2334,2.0166,1.999,1.9387,1.7485,1.7049,1.6996,1.7181,1.6966,1.6871,1.6871,1.6871,1.6984,1.7204,1.7273,1.7182,1.6924,1.7112,1.7407,1.7649,1.8003,1.8375,1.8925,1.8965,1.9125,1.9424,1.9424,1.9424,1.9424,1.9424,1.9424,1.9424,1.9424,1.8765,1.7864,1.7864,1.722,1.6455,1.7787,1.8312,1.8545,2.3106,2.3332,2.3515,2.3515,2.3749,2.3932,2.3932,2.3976,2.4005,2.4005,2.4049,2.4064,2.4013,2.4005,2.3874,2.3545,2.3515,2.3406,2.3128,2.3106,2.3106,2.3106,2.3106,2.3106,2.3106,2.3106,2.3106,2.3106,2.3106,2.3106,2.3106,2.3106,2.3106,2.3106,2.3106,2.3106,2.3106,2.3106,2.3106,2.3106,2.3106,2.3106,2.3106,2.3106,2.3106,2.3106,2.3106,2.3106,2.3106,2.3106,2.3076,2.3032,2.3032,2.3003,2.2967,2.2967,2.2732,2.2367,2.184,2.2188,2.2974,2.3902,2.5133,2.6064,2.5684,2.6635,2.7389,2.6798,2.6379,2.5779,2.4574,2.4228,2.3588,2.1816,2.2408,2.2394,2.0425,2.0873,2.0772,1.9121,1.8879,1.864,1.8172,1.8054,1.8054,1.8054,1.8054,1.7985,1.7796,1.8046,1.8064,1.7796,1.7621,1.7662,1.7916,1.8462,1.8831,1.8925,1.9178,1.9325,1.9424,1.9424,1.9424,1.9424,1.9424,1.9424,1.9424,1.9424,1.9417,1.9461,1.9461,1.9513,1.9622,1.9859,2.0083,2.0307,2.3596,2.3662,2.372,2.3837,2.4079,2.4218,2.4101,2.4232,2.4349,2.4349,2.4496,2.454,2.4364,2.4349,2.421,2.3888,2.3859,2.372,2.3391,2.3208,2.3106,2.3106,2.3106,2.3106,2.3106,2.3106,2.3106,2.3106,2.3106,2.3106,2.3106,2.3106,2.3106,2.3106,2.3106,2.3106,2.3106,2.3106,2.3106,2.3106,2.3106,2.3106,2.3106,2.3106,2.3106,2.3106,2.3106,2.3106,2.3106,2.3106,2.3106,2.3106,2.3106,2.3106,2.3106,2.3106,2.2879,2.2642,2.2934,2.3134,2.3545,2.4772,2.5794,2.6481,2.6298,2.7182,2.7881,2.7451,2.7207,2.6832,2.5853,2.5343,2.4707,2.3596,2.344,2.2977,2.1545,2.1735,2.1571,2.0314,1.9852,1.9509,1.9195,1.8636,1.8299,1.8299,1.8299,1.8329,1.8361,1.8412,1.8496,1.8674,1.8446,1.8529,1.8947,1.9122,1.9226,1.9381,1.9414,1.9424,1.9424,1.9424,1.9424,1.9424,1.9424,1.9424,1.9424,1.9533,1.9707,1.9815,1.9989,2.0155,2.0328,2.0436,2.0601,2.0716,2.4035,2.4013,2.3998,2.4166,2.4393,2.4496,2.4335,2.4518,2.4753,2.4753,2.4973,2.5024,2.4708,2.4753,2.4554,2.4225,2.4196,2.4057,2.3727,2.3471,2.3267,2.312,2.3106,2.3106,2.3106,2.3106,2.3106,2.3106,2.3106,2.3106,2.3106,2.3106,2.3106,2.3106,2.3106,2.3106,2.3106,2.3106,2.3106,2.3106,2.3106,2.3106,2.3106,2.3106,2.3106,2.3106,2.3106,2.3106,2.3106,2.3106,2.3106,2.3106,2.3106,2.3106,2.3106,2.3106,2.293,2.2904,2.394,2.4122,2.4343,2.5457,2.6396,2.7028,2.6935,2.7628,2.8203,2.7881,2.7787,2.7513,2.6807,2.625,2.5645,2.4996,2.4441,2.3724,2.2621,2.2658,2.2465,2.1617,2.1033,2.0565,2.0165,1.9589,1.9059,1.8575,1.8768,1.8929,1.8942,1.8774,1.9009,1.9589,1.9271,1.9325,1.9801,1.9659,1.9704,1.9924,1.9707,1.9597,1.9597,1.9597,1.9597,1.9597,1.9597,1.9597,1.9655,1.9815,1.9931,2.004,2.027,2.0443,2.0507,2.0723,2.0838,2.0845,2.4079,2.4313,2.4518,2.4532,2.4796,2.5068,2.5053,2.5075,2.509,2.509,2.5105,2.5119,2.509,2.509,2.4958,2.4562,2.4532,2.4393,2.4064,2.4027,2.3742,2.3135,2.3106,2.3106,2.3106,2.3106,2.3106,2.3106,2.3106,2.3106,2.3106,2.3106,2.3106,2.3106,2.3106,2.3106,2.3106,2.3106,2.3106,2.3106,2.3106,2.3106,2.3106,2.3106,2.3106,2.3106,2.3106,2.3106,2.3106,2.3106,2.3106,2.3106,2.3106,2.3106,2.3106,2.3106,2.3091,2.3251,2.412,2.5066,2.591,2.6711,2.7834,2.8606,2.8272,2.8237,2.8281,2.8252,2.7939,2.7699,2.764,2.6904,2.5894,2.4606,2.4746,2.4542,2.314,2.3699,2.3991,2.3363,2.3235,2.2619,2.0977,2.1652,2.1357,1.9354,2.0156,2.0266,1.9287,1.9528,1.9989,2.0577,2.0025,1.9759,1.9808,2.0095,2.0249,2.027,2.0213,2.0213,2.0213,2.0213,2.0213,2.0213,2.0213,2.0213,2.022,2.027,2.0378,2.0658,2.0658,2.0845,2.1153,2.1153,2.1153,2.1153,2.4649,2.4848,2.4936,2.4936,2.5046,2.5127,2.5127,2.5127,2.5127,2.5127,2.5127,2.5127,2.5127,2.5127,2.5075,2.4951,2.4936,2.4797,2.4408,2.4386,2.4093,2.3435,2.3215,2.3106,2.3106,2.3106,2.3106,2.3106,2.3106,2.3106,2.3106,2.3106,2.3106,2.3106,2.3106,2.3106,2.3106,2.3106,2.3106,2.3106,2.3106,2.3106,2.3106,2.3106,2.3106,2.3106,2.3106,2.3106,2.3106,2.3106,2.3106,2.3106,2.3106,2.3106,2.3106,2.3106,2.3106,2.3146,2.3509,2.4896,2.6475,2.7567,2.8351,2.8877,2.8721,2.8476,2.8291,2.8291,2.8164,2.7978,2.7767,2.7454,2.6929,2.6129,2.5692,2.5276,2.4766,2.4754,2.4732,2.4507,2.411,2.3628,2.2976,2.2634,2.2283,2.1688,2.2014,2.1914,2.1,2.0607,2.0472,2.0713,2.0692,2.0679,2.0679,2.0609,2.0551,2.0551,2.0385,2.027,2.027,2.027,2.027,2.027,2.027,2.027,2.0328,2.0493,2.0608,2.0723,2.0902,2.1089,2.1211,2.1211,2.1211,2.1211,2.5075,2.5127,2.5127,2.5127,2.5127,2.5127,2.5127,2.5127,2.5127,2.5127,2.5127,2.5127,2.5127,2.5127,2.5127,2.5127,2.5127,2.5031,2.4804,2.4627,2.432,2.3771,2.3537,2.3369,2.3267,2.3267,2.3208,2.3106,2.3106,2.3106,2.3106,2.3106,2.3106,2.3106,2.3106,2.3106,2.3106,2.3106,2.3106,2.3106,2.3106,2.3106,2.3106,2.3106,2.3106,2.3106,2.3106,2.3106,2.3106,2.3106,2.3106,2.3106,2.3106,2.3106,2.3106,2.3106,2.3106,2.3106,2.3106,2.4515,2.6168,2.6878,2.7616,2.8201,2.8412,2.8179,2.7991,2.8432,2.8389,2.8203,2.792,2.7861,2.7715,2.7295,2.6728,2.6299,2.6103,2.5879,2.5684,2.5684,2.5279,2.4883,2.4532,2.4171,2.3772,2.3358,2.3643,2.3496,2.2753,2.2159,2.1691,2.1414,2.1647,2.1596,2.1211,2.0967,2.0845,2.0845,2.0673,2.0565,2.0565,2.0565,2.0565,2.0565,2.0565,2.0565,2.0622,2.0788,2.0845,2.0902,2.1089,2.1211,2.1211,2.1211,2.1211,2.1211,2.5127,2.5127,2.5127,2.5127,2.5127,2.5127,2.5127,2.5127,2.5127,2.5127,2.5127,2.5127,2.5127,2.5127,2.5127,2.5127,2.5127,2.5127,2.5127,2.4819,2.443,2.4101,2.4086,2.3932,2.361,2.3596,2.3442,2.3113,2.3113,2.3113,2.3106,2.3106,2.3106,2.3106,2.3106,2.3106,2.3106,2.3106,2.3106,2.3106,2.3106,2.3106,2.3106,2.3106,2.3106,2.3106,2.3106,2.3106,2.3106,2.3106,2.3106,2.3106,2.3106,2.3106,2.3106,2.3106,2.3106,2.3106,2.3106,2.4092,2.4992,2.4514,2.5429,2.6631,2.741,2.7304,2.7364,2.8642,2.8594,2.8301,2.8301,2.8291,2.8154,2.7796,2.7718,2.7562,2.708,2.7012,2.7012,2.7012,2.7012,2.6593,2.5543,2.6378,2.6121,2.3965,2.4805,2.508,2.4378,2.4287,2.3922,2.3023,2.303,2.2425,2.1268,2.1211,2.1211,2.1211,2.1211,2.1211,2.1211,2.1211,2.1211,2.1211,2.1211,2.1211,2.1211,2.1211,2.1211,2.1211,2.1211,2.1211,2.1211,2.1211,2.1211,2.1211,2.5127,2.5127,2.5127,2.5127,2.5127,2.5127,2.5127,2.5127,2.5127,2.5127,2.5127,2.5127,2.5127,2.5127,2.5127,2.5127,2.5127,2.5127,2.5127,2.5031,2.4936,2.4833,2.4327,2.4035,2.394,2.394,2.3779,2.3449,2.3449,2.3332,2.3106,2.3106,2.3106,2.3106,2.3106,2.3106,2.3106,2.3106,2.3106,2.3106,2.3106,2.3106,2.3106,2.3106,2.3106,2.3106,2.3106,2.3106,2.3106,2.3106,2.3106,2.3106,2.3106,2.3106,2.3106,2.3106,2.3106,2.3106,2.3106,2.3417,2.3884,2.47,2.6338,2.758,2.6939,2.7829,2.8697,2.8118,2.8409,2.873,2.873,2.8496,2.8252,2.8125,2.7861,2.7669,2.749,2.7207,2.7012,2.7012,2.7012,2.6858,2.6541,2.6798,2.6882,2.6536,2.6333,2.6054,2.5838,2.5057,2.4442,2.4172,2.4181,2.4014,2.3687,2.2036,2.1211,2.1211,2.1211,2.1211,2.1211,2.1211,2.1211,2.1211,2.1211,2.1211,2.1211,2.1211,2.1211,2.1211,2.1211,2.1211,2.1211,2.1211,2.1357,2.1547,2.5127,2.5127,2.5127,2.5127,2.5127,2.5127,2.5127,2.5127,2.5127,2.5127,2.5127,2.5127,2.5127,2.5127,2.5127,2.5127,2.5127,2.5127,2.5127,2.5127,2.5127,2.5127,2.4679,2.4408,2.4276,2.4276,2.4115,2.3786,2.3786,2.3618,2.3303,2.3303,2.323,2.3106,2.3106,2.3106,2.3106,2.3106,2.3106,2.3106,2.3106,2.3106,2.3106,2.3106,2.3106,2.3106,2.3106,2.3106,2.3106,2.3106,2.3106,2.3106,2.3106,2.3106,2.3106,2.3106,2.3106,2.3106,2.3106,2.3106,2.3293,2.4092,2.5262,2.6175,2.5936,2.7184,2.8244,2.7957,2.8558,2.9121,2.8945,2.8711,2.8486,2.832,2.8086,2.792,2.792,2.7685,2.7519,2.7519,2.7519,2.7519,2.7519,2.7519,2.7627,2.7891,2.7494,2.7187,2.7187,2.6509,2.5899,2.5452,2.5397,2.5177,2.4727,2.2862,2.193,2.193,2.1432,2.1211,2.1211,2.1211,2.1211,2.1211,2.1211,2.1211,2.1211,2.1211,2.1211,2.1211,2.1211,2.1211,2.1211,2.1211,2.1335,2.1503,2.5127,2.5127,2.5127,2.5127,2.5127,2.5127,2.5127,2.5127,2.5127,2.5127,2.5127,2.5127,2.5127,2.5127,2.5127,2.5127,2.5127,2.5127,2.5127,2.5127,2.5127,2.5127,2.5127,2.4987,2.462,2.4613,2.4452,2.413,2.413,2.3962,2.364,2.364,2.3479,2.3193,2.3164,2.3149,2.3149,2.312,2.3106,2.3106,2.3106,2.3106,2.3106,2.3106,2.3106,2.3106,2.3106,2.3106,2.3106,2.3106,2.3106,2.3106,2.3106,2.3106,2.3106,2.3106,2.3106,2.3106,2.3106,2.3106,2.3106,2.3106,2.3106,2.3417,2.4641,2.5718,2.6778,2.7971,2.888,2.939,2.9046,2.9004,2.8838,2.8418,2.835,2.834,2.8301,2.8291,2.8291,2.8291,2.8291,2.8291,2.8291,2.8291,2.8291,2.8291,2.8291,2.8291,2.8291,2.8291,2.7799,2.669,2.6636,2.6127,2.5058,2.3911,2.3199,2.2982,2.1759,2.1211,2.1211,2.1211,2.1211,2.1211,2.1211,2.1211,2.1211,2.1211,2.1211,2.1211,2.1211,2.1211,2.1211,2.1211,2.1233,2.1262,2.5127,2.5127,2.5127,2.5127,2.5127,2.5127,2.5127,2.5127,2.5127,2.5127,2.5127,2.5127,2.5127,2.5127,2.5127,2.5127,2.5127,2.5127,2.5127,2.5127,2.5127,2.5127,2.5127,2.509,2.5017,2.5017,2.4863,2.4466,2.4466,2.4298,2.3976,2.3976,2.394,2.3859,2.3603,2.3493,2.3471,2.3215,2.3106,2.3106,2.3106,2.3106,2.3106,2.3106,2.3106,2.3106,2.3106,2.3106,2.3106,2.3106,2.3106,2.3106,2.3106,2.3106,2.3106,2.3106,2.3106,2.3106,2.3106,2.3106,2.3106,2.3106,2.3106,2.3175,2.3479,2.5245,2.6945,2.7193,2.8011,2.8878,2.9762,2.9648,2.9287,2.8848,2.8779,2.8672,2.834,2.8291,2.8291,2.8291,2.8291,2.8291,2.8291,2.8291,2.8291,2.8291,2.8291,2.8291,2.8291,2.8291,2.8184,2.7906,2.7906,2.7789,2.7511,2.6354,2.4808,2.2982,2.1759,2.1211,2.1211,2.1211,2.1211,2.1211,2.1211,2.1211,2.1211,2.1211,2.1211,2.1211,2.1211,2.1211,2.1211,2.1211,2.1372,2.1628,2.5127,2.5127,2.5127,2.5127,2.5127,2.5127,2.5127,2.5127,2.5127,2.5127,2.5127,2.5127,2.5127,2.5127,2.5127,2.5127,2.5127,2.5127,2.5127,2.5127,2.5127,2.5127,2.5127,2.5127,2.5127,2.5127,2.5039,2.487,2.487,2.4701,2.4313,2.4313,2.4232,2.4071,2.3903,2.383,2.3815,2.3647,2.3574,2.3574,2.3574,2.3574,2.3574,2.3574,2.3574,2.3552,2.3398,2.3245,2.3106,2.3106,2.3106,2.3106,2.3106,2.3106,2.3106,2.3106,2.3106,2.3106,2.3106,2.3106,2.3106,2.3106,2.3106,2.3106,2.3106,2.4641,2.6286,2.6892,2.7866,2.8904,2.9996,3.0019,2.9726,2.9297,2.9228,2.915,2.8935,2.8721,2.8594,2.8594,2.8418,2.8291,2.8291,2.8291,2.8291,2.8291,2.8291,2.8291,2.8291,2.8476,2.8594,2.8594,2.8799,2.8906,2.8906,2.7714,2.6473,2.5283,2.3878,2.3324,2.3483,2.3483,2.3483,2.3475,2.2686,2.233,2.2314,2.1491,2.1211,2.1211,2.1211,2.1211,2.1233,2.1386,2.165,2.195,2.5127,2.5127,2.5127,2.5127,2.5127,2.5127,2.5127,2.5127,2.5127,2.5127,2.5127,2.5127,2.5127,2.5127,2.5127,2.5127,2.5127,2.5127,2.5127,2.5127,2.5127,2.5127,2.5127,2.5127,2.5127,2.5127,2.5127,2.5127,2.5127,2.4987,2.4723,2.4723,2.451,2.4247,2.4188,2.4166,2.4166,2.4108,2.4086,2.4086,2.4086,2.4086,2.4086,2.4086,2.4086,2.4049,2.3779,2.3508,2.3267,2.3208,2.3193,2.3186,2.3128,2.3106,2.3106,2.3106,2.3106,2.3106,2.3106,2.3106,2.3106,2.3106,2.3106,2.3106,2.3106,2.3969,2.5133,2.6407,2.7667,2.8878,2.9786,3.0188,3.0176,2.9746,2.9678,2.9704,2.9636,2.9258,2.9033,2.9033,2.8721,2.8516,2.8516,2.8516,2.8516,2.8516,2.8516,2.8516,2.8516,2.8848,2.9033,2.9033,2.9385,2.9626,2.9626,2.8587,2.8163,2.8162,2.6867,2.6044,2.57,2.57,2.57,2.5625,2.4276,2.3662,2.3524,2.2177,2.1427,2.1211,2.1211,2.1211,2.1247,2.1576,2.1935,2.2257,2.5127,2.5127,2.5127,2.5127,2.5127,2.5127,2.5127,2.5127,2.5127,2.5127,2.5127,2.5127,2.5127,2.5127,2.5127,2.5127,2.5127,2.5127,2.5127,2.5127,2.5127,2.5127,2.5127,2.5127,2.5127,2.5127,2.5127,2.5127,2.5127,2.5097,2.5061,2.5061,2.5031,2.498,2.4627,2.4503,2.4481,2.4203,2.4086,2.4086,2.4086,2.4086,2.4086,2.4086,2.4086,2.4079,2.4035,2.3991,2.391,2.3625,2.353,2.3479,2.3201,2.3106,2.3106,2.3106,2.3106,2.3106,2.3106,2.3106,2.3106,2.3106,2.3106,2.3106,2.3106,2.323,2.372,2.5071,2.6346,2.7658,2.8847,2.9993,3.0644,3.0185,3.0107,2.999,2.9675,2.9577,2.9482,2.9482,2.9489,2.9394,2.9394,2.9394,2.9394,2.9394,2.9394,2.9394,2.9394,2.9453,2.9482,2.9482,2.9597,2.9626,2.9626,2.9449,2.9521,2.987,2.9641,2.7706,2.4367,2.4367,2.4367,2.4359,2.4143,2.3885,2.3598,2.3385,2.246,2.1211,2.1211,2.1211,2.1247,2.1576,2.2067,2.2564,2.5127,2.5127,2.5127,2.5127,2.5127,2.5127,2.5127,2.5127,2.5127,2.5127,2.5127,2.5127,2.5127,2.5127,2.5127,2.5127,2.5127,2.5127,2.5127,2.5127,2.5127,2.5127,2.5127,2.5127,2.5127,2.5127,2.5127,2.5127,2.5127,2.5127,2.5127,2.5127,2.5127,2.5119,2.4973,2.4907,2.4899,2.4686,2.4627,2.4627,2.4627,2.4627,2.4627,2.4627,2.4627,2.4598,2.4423,2.424,2.4064,2.3918,2.3866,2.3845,2.3698,2.353,2.3384,2.3384,2.3252,2.3106,2.3106,2.3106,2.3106,2.3106,2.3106,2.3106,2.3106,2.3106,2.3479,2.4826,2.5562,2.652,2.8504,2.9412,2.9963,3.049,3.0586,3.0518,3.0332,3.0088,2.9834,2.9655,2.9626,2.9626,2.9626,2.9626,2.9626,2.9626,2.9626,2.9626,2.9626,2.9795,2.9922,2.9922,3.0176,3.0303,3.0303,3.0303,3.04,3.0586,3.0586,2.965,2.7872,2.709,2.6786,2.6719,2.5103,2.4169,2.3827,2.2898,2.2002,2.1211,2.1211,2.143,2.1789,2.2096,2.2506,2.2871]}]]